[[{"header":{"parameterUnit":"m.s-1","parameterCategory":1,"la1":30.6,"la2":29.2853,"lo1":-89.7004,"lo2":-87.6739,"dy":0.0162,"dx":0.0183,"nx":112,"ny":82,"refTime":"2023-08-29T06:00:00:Z","depth":0,"parameterNumber":2,"parameterNumberName":"U-component_of_WINDS"},"data":[0.0,0.0,0.0,0.0,0.0,0.0,0.0,0.0,0.0,0.0,0.0,0.0,0.0,0.0,0.0,0.0,0.0,0.0,0.0,0.0,0.0,0.0,0.0,0.0,0.0,0.0,0.0,0.0,0.0,0.0,0.0,0.0,0.0,0.0,0.0,0.0,0.0,0.0,0.0,0.0,0.0,0.0,0.0,0.0,0.0,0.0,0.0,0.0,0.0,0.0,0.0,0.0,0.0,0.0,0.0,0.0,0.0,0.0,0.0,0.0,0.0,0.0,0.0,0.0,0.0,0.0,0.0,0.0,0.0,0.0,0.0,0.0,0.0,0.0,0.0,0.0,0.0,0.0,0.0,0.0,0.0,0.0,0.0,0.0,0.0,0.0,0.0,0.0,0.0,0.0,-0.3525,-0.4475,-0.5367,-0.5972,-0.6028,-0.5611,-0.5476,-0.5726,0.0,0.0,0.0,0.0,0.0,0.0,0.0,0.0,0.0,0.0,0.0,0.0,0.0,0.0,0.0,0.0,0.0,0.0,0.0,0.0,0.0,0.0,0.0,0.0,0.0,0.0,0.0,0.0,0.0,0.0,0.0,0.0,0.0,0.0,0.0,0.0,0.0,0.0,0.0,0.0,0.0,0.0,0.0,0.0,0.0,0.0,0.0,0.0,0.0,0.0,0.0,0.0,0.0,0.0,0.0,0.0,0.0,0.0,0.0,0.0,0.0,0.0,0.0,0.0,0.0,0.0,0.0,0.0,0.0,0.0,0.0,0.0,0.0,0.0,0.0,0.0,0.0,0.0,0.0,0.0,0.0,0.0,0.0,0.0,0.0,0.0,0.0,0.0,0.0,0.0,0.0,0.0,0.0,0.0,0.0,0.0,0.0,0.0,0.0,0.0,0.0,0.0,0.0,0.0,-0.4663,-0.5701,-0.5954,-0.597,-0.5795,-0.5703,-0.5696,-0.5841,0.0,0.0,0.0,0.0,0.0,0.0,0.0,0.0,0.0,0.0,0.0,0.0,0.0,0.0,0.0,0.0,0.0,0.0,0.0,0.0,0.0,0.0,0.0,0.0,0.0,0.0,0.0,0.0,0.0,0.0,0.0,0.0,0.0,0.0,0.0,0.0,0.0,0.0,0.0,0.0,0.0,0.0,0.0,0.0,0.0,0.0,0.0,0.0,0.0,0.0,0.0,0.0,0.0,0.0,0.0,0.0,0.0,0.0,0.0,0.0,0.0,0.0,0.0,0.0,0.0,0.0,0.0,0.0,0.0,0.0,0.0,0.0,0.0,0.0,0.0,0.0,0.0,0.0,0.0,0.0,0.0,0.0,0.0,0.0,0.0,0.0,0.0,0.0,0.0,0.0,0.0,0.0,0.0,0.0,0.0,0.0,0.0,0.0,0.0,0.0,0.0,0.0,0.0,-0.4512,-0.4964,-0.608,-0.6184,-0.616,-0.6074,-0.5833,-0.5806,-0.6155,-0.5522,0.0,0.0,0.0,0.0,0.0,0.0,0.0,0.0,0.0,0.0,0.0,0.0,0.0,0.0,0.0,0.0,0.0,0.0,0.0,0.0,0.0,0.0,0.0,0.0,0.0,0.0,0.0,0.0,0.0,0.0,0.0,0.0,0.0,0.0,0.0,0.0,0.0,0.0,0.0,0.0,0.0,0.0,0.0,0.0,0.0,0.0,0.0,0.0,0.0,0.0,0.0,0.0,0.0,0.0,0.0,0.0,0.0,0.0,0.0,0.0,0.0,0.0,0.0,0.0,0.0,0.0,0.0,0.0,0.0,0.0,0.0,0.0,0.0,0.0,0.0,0.0,0.0,0.0,0.0,0.0,0.0,0.0,0.0,0.0,0.0,0.0,0.0,0.0,0.0,0.0,0.0,0.0,0.0,0.0,0.0,0.0,0.0,0.0,0.0,0.0,0.0,0.0,-0.4703,-0.5302,-0.6247,-0.6309,-0.6344,-0.6331,-0.5937,-0.5887,-0.6287,-0.5689,0.0,0.0,0.0,0.0,0.0,0.0,0.0,0.0,0.0,0.0,0.0,0.0,0.0,0.0,0.0,0.0,0.0,0.0,0.0,0.0,0.0,0.0,0.0,0.0,0.0,0.0,0.0,0.0,0.0,0.0,0.0,0.0,0.0,0.0,0.0,0.0,0.0,0.0,0.0,0.0,0.0,0.0,0.0,0.0,0.0,0.0,0.0,0.0,0.0,0.0,0.0,0.0,0.0,0.0,0.0,0.0,0.0,0.0,0.0,0.0,0.0,0.0,0.0,0.0,0.0,0.0,0.0,0.0,0.0,0.0,0.0,0.0,0.0,0.0,0.0,0.0,0.0,0.0,0.0,0.0,0.0,0.0,0.0,0.0,0.0,0.0,0.0,0.0,0.0,0.0,0.0,0.0,0.0,0.0,0.0,0.0,0.0,0.0,0.0,0.0,0.0,0.0,-0.4989,-0.6249,-0.6363,-0.6376,-0.6279,-0.6039,-0.5992,-0.5992,-0.6042,-0.5737,0.0,0.0,0.0,0.0,0.0,0.0,0.0,0.0,0.0,0.0,0.0,0.0,0.0,0.0,0.0,0.0,0.0,0.0,0.0,0.0,0.0,0.0,0.0,0.0,0.0,0.0,0.0,0.0,0.0,0.0,0.0,0.0,0.0,0.0,0.0,0.0,0.0,0.0,0.0,0.0,0.0,0.0,0.0,0.0,0.0,0.0,0.0,0.0,0.0,0.0,0.0,0.0,0.0,0.0,0.0,0.0,0.0,0.0,0.0,0.0,0.0,0.0,0.0,0.0,0.0,0.0,0.0,0.0,0.0,0.0,0.0,0.0,0.0,0.0,0.0,0.0,0.0,0.0,0.0,0.0,0.0,0.0,0.0,0.0,0.0,0.0,0.0,0.0,0.0,0.0,0.0,0.0,0.0,0.0,0.0,0.0,0.0,0.0,0.0,0.0,0.0,0.0,-0.4754,-0.5392,-0.6084,-0.6139,-0.6039,-0.5789,-0.5591,-0.5589,-0.5737,0.0,0.0,0.0,0.0,0.0,0.0,0.0,0.0,0.0,0.0,0.0,0.0,0.0,0.0,0.0,0.0,0.0,0.0,0.0,0.0,0.0,0.0,0.0,0.0,0.0,0.0,0.0,0.0,0.0,0.0,0.0,0.0,0.0,0.0,0.0,0.0,0.0,0.0,0.0,0.0,0.0,0.0,0.0,0.0,0.0,0.0,0.0,0.0,0.0,0.0,0.0,0.0,0.0,0.0,0.0,0.0,0.0,0.0,0.0,0.0,0.0,0.0,0.0,0.0,0.0,0.0,0.0,0.0,0.0,0.0,0.0,0.0,0.0,0.0,0.0,0.0,0.0,0.0,0.0,0.0,0.0,0.0,0.0,0.0,0.0,0.0,0.0,0.0,0.0,0.0,0.0,0.0,0.0,0.0,0.0,0.0,0.0,0.0,0.0,0.0,0.0,0.0,-0.4533,-0.4682,-0.5083,-0.5789,-0.5889,-0.5739,-0.5486,-0.5288,-0.529,-0.5436,0.0,0.0,0.0,0.0,0.0,0.0,0.0,0.0,0.0,0.0,0.0,0.0,0.0,0.0,0.0,0.0,0.0,0.0,0.0,0.0,0.0,0.0,0.0,0.0,0.0,0.0,0.0,0.0,0.0,0.0,0.0,0.0,0.0,0.0,0.0,0.0,0.0,0.0,0.0,0.0,0.0,0.0,0.0,0.0,0.0,0.0,0.0,0.0,0.0,0.0,0.0,0.0,0.0,0.0,0.0,0.0,0.0,0.0,0.0,0.0,0.0,0.0,0.0,0.0,0.0,0.0,0.0,0.0,0.0,0.0,0.0,0.0,0.0,0.0,0.0,0.0,0.0,0.0,0.0,0.0,0.0,0.0,0.0,0.0,0.0,0.0,0.0,0.0,0.0,0.0,0.0,0.0,0.0,0.0,0.0,0.0,0.0,0.0,0.0,0.0,0.0,0.0,-0.3982,-0.4935,-0.5584,-0.5584,-0.5584,-0.5486,-0.524,-0.519,-0.519,0.0,0.0,0.0,0.0,0.0,0.0,0.0,0.0,0.0,0.0,0.0,0.0,0.0,0.0,0.0,0.0,0.0,0.0,0.0,0.0,0.0,0.0,0.0,0.0,0.0,0.0,0.0,0.0,0.0,0.0,0.0,0.0,0.0,0.0,0.0,0.0,0.0,0.0,0.0,0.0,0.0,0.0,0.0,0.0,0.0,0.0,0.0,0.0,0.0,0.0,0.0,0.0,0.0,0.0,0.0,0.0,0.0,0.0,0.0,0.0,0.0,0.0,0.0,0.0,0.0,0.0,0.0,0.0,0.0,0.0,0.0,0.0,0.0,0.0,0.0,0.0,0.0,0.0,0.0,0.0,0.0,0.0,0.0,0.0,0.0,0.0,0.0,0.0,0.0,0.0,0.0,0.0,0.0,0.0,0.0,0.0,0.0,0.0,0.0,0.0,0.0,0.0,0.0,-0.4083,-0.4786,-0.5338,-0.5338,-0.5338,-0.5188,-0.4937,-0.4937,-0.4937,-0.4937,0.0,0.0,0.0,0.0,0.0,0.0,0.0,0.0,0.0,0.0,0.0,0.0,0.0,0.0,0.0,0.0,0.0,0.0,0.0,0.0,0.0,0.0,0.0,0.0,0.0,0.0,0.0,0.0,0.0,0.0,0.0,0.0,0.0,0.0,0.0,0.0,0.0,0.0,0.0,0.0,0.0,0.0,0.0,0.0,0.0,0.0,0.0,0.0,0.0,0.0,0.0,0.0,0.0,0.0,0.0,0.0,0.0,0.0,0.0,0.0,0.0,0.0,0.0,0.0,0.0,0.0,0.0,0.0,0.0,0.0,0.0,0.0,0.0,0.0,0.0,0.0,0.0,0.0,0.0,0.0,0.0,0.0,0.0,0.0,0.0,0.0,0.0,0.0,0.0,0.0,0.0,0.0,0.0,0.0,0.0,0.0,0.0,0.0,0.0,0.0,0.0,0.0,-0.4383,-0.4736,-0.5037,-0.5037,-0.5037,-0.4987,-0.4834,-0.4784,-0.4784,-0.4784,0.0,0.0,0.0,0.0,0.0,0.0,0.0,0.0,0.0,0.0,0.0,0.0,0.0,0.0,0.0,0.0,0.0,0.0,0.0,0.0,0.0,0.0,0.0,0.0,0.0,0.0,0.0,0.0,0.0,0.0,0.0,0.0,0.0,0.0,0.0,0.0,0.0,0.0,0.0,0.0,0.0,0.0,0.0,0.0,0.0,0.0,0.0,0.0,0.0,0.0,0.0,0.0,0.0,0.0,0.0,0.0,0.0,0.0,0.0,0.0,0.0,0.0,0.0,0.0,0.0,0.0,0.0,0.0,0.0,0.0,0.0,0.0,0.0,0.0,0.0,0.0,0.0,0.0,0.0,0.0,0.0,0.0,0.0,0.0,0.0,0.0,0.0,0.0,0.0,0.0,0.0,0.0,0.0,0.0,0.0,0.0,0.0,0.0,0.0,0.0,0.0,0.0,-0.4784,-0.4784,-0.4784,-0.4784,-0.4784,-0.4784,-0.4784,-0.4784,-0.4784,-0.4784,0.0,0.0,0.0,0.0,0.0,0.0,0.0,0.0,0.0,0.0,0.0,0.0,0.0,0.0,0.0,0.0,0.0,0.0,0.0,0.0,0.0,0.0,0.0,0.0,0.0,0.0,0.0,0.0,0.0,0.0,0.0,0.0,0.0,0.0,0.0,0.0,0.0,0.0,0.0,0.0,0.0,0.0,0.0,0.0,0.0,0.0,0.0,0.0,0.0,0.0,0.0,0.0,0.0,0.0,0.0,0.0,0.0,0.0,0.0,0.0,0.3266,0.2998,0.0,0.0,0.0,0.0,0.0,0.0,0.0,0.0,0.0,0.0,0.0,0.0,0.0,0.0,0.0,0.0,0.0,0.0,0.0,0.0,0.0,0.0,0.0,0.0,0.0,0.0,0.0,0.0,0.0,0.0,0.0,0.0,0.0,0.0,0.0,0.0,0.0,0.0,0.0,0.0,-0.4784,-0.4784,-0.4784,-0.4784,-0.4784,-0.4784,-0.4784,-0.4784,-0.4784,-0.4784,-0.4784,0.0,0.0,0.0,0.0,0.0,0.0,0.0,0.0,0.0,0.0,0.0,0.0,0.0,0.0,0.0,0.0,0.0,0.0,0.0,0.0,0.0,0.0,0.0,0.0,0.0,0.0,0.0,0.0,0.0,0.0,0.0,0.0,0.0,0.0,0.0,0.0,0.0,0.0,0.0,0.0,0.0,0.0,0.0,0.0,0.0,0.0,0.0,0.0,0.0,0.0,0.0,0.0,0.0,0.0,0.0,0.0,0.0,0.0,0.0,0.3176,0.2774,0.0,0.0,0.0,0.0,0.0,0.0,0.0,0.0,0.0,0.0,0.0,0.0,0.0,0.0,0.0,0.0,0.0,0.0,0.0,0.0,0.0,0.0,0.0,0.0,0.0,0.0,0.0,0.0,0.0,0.0,0.0,0.0,0.0,0.0,0.0,0.0,0.0,0.0,0.0,0.0,-0.4784,-0.4784,-0.4784,-0.4784,-0.4784,-0.4784,-0.4784,-0.4784,-0.4784,-0.4784,-0.4784,0.0,0.0,0.0,0.0,0.0,0.0,0.0,0.0,0.0,0.0,0.0,0.0,0.0,0.0,0.0,0.0,0.0,0.0,0.0,0.0,0.0,0.0,0.0,0.0,0.0,0.0,0.0,0.0,0.0,0.0,0.0,0.0,0.0,0.0,0.0,0.0,0.0,0.0,0.0,0.0,0.0,0.0,0.0,0.0,0.0,0.0,0.0,0.0,0.0,0.0,0.0,0.0,0.0,0.3661,0.3707,0.2809,0.3619,0.3529,0.2809,0.2809,0.2261,0.1398,0.1398,0.0,0.0,0.0,0.0,0.0,0.0,0.0,0.0,0.0,0.0,0.0,0.0,0.0,0.0,0.0,0.0,0.0,0.0,0.0,0.0,0.0,0.0,-0.3093,-0.3239,-0.3855,-0.4413,-0.4413,0.0,0.0,0.0,0.0,0.0,0.0,0.0,0.0,0.0,0.0,0.0,-0.4857,-0.4859,-0.4863,-0.4831,-0.4831,-0.4831,-0.4831,-0.4831,-0.4831,-0.4831,-0.4831,-0.4825,0.0,0.0,0.0,0.0,0.0,0.0,0.0,0.0,0.0,0.0,0.0,0.0,0.0,0.0,0.0,0.0,0.0,0.0,0.0,0.0,0.0,0.0,0.0,0.0,0.0,0.0,0.0,0.0,0.0,0.0,0.0,0.0,0.4767,0.4884,0.0,0.0,0.0,0.0,0.0,0.0,0.0,0.0,0.0,0.0,0.0,0.0,0.0,0.4089,0.5048,0.509,0.5043,0.49,0.4285,0.3397,0.2366,0.2508,0.2508,0.2366,0.2366,0.0,0.1475,0.1475,0.0,0.0,0.0,0.0,0.0,0.0,0.0,0.0,0.0,0.0,0.0,0.0,0.0,0.0,0.0,0.0,0.0,0.0,0.0,0.0,0.0,0.0,-0.3779,-0.4265,-0.4507,-0.4555,-0.4555,-0.4683,-0.4826,-0.4918,-0.4947,-0.4953,0.0,0.0,0.0,0.0,0.0,0.0,-0.4943,-0.4953,-0.4983,-0.5063,-0.5071,-0.5071,-0.5071,-0.5071,-0.5071,-0.5071,-0.5071,-0.5037,-0.4957,-0.4953,0.0,0.0,0.0,0.0,0.0,0.0,0.0,0.0,0.0,0.0,0.0,0.0,0.0,0.0,0.0,0.0,0.0,0.0,0.0,0.0,0.0,0.0,0.0,0.0,0.0,0.0,0.0,0.0,0.0,0.4456,0.4956,0.34,0.3314,0.3419,0.0,0.0,0.0,0.0,0.0,0.0,0.0,0.0,0.0,0.3248,0.318,0.3429,0.4036,0.3929,0.3899,0.3898,0.3284,0.2762,0.2291,0.2291,0.2291,0.2291,0.2291,0.2196,0.2006,0.1986,0.1846,0.1719,0.0,0.0,0.0,0.0,0.1577,0.1575,0.1558,0.1551,0.1597,0.1675,0.0,0.0,0.0,0.0,0.0,0.0,0.0,-0.2475,-0.2616,-0.3235,-0.3959,-0.4538,-0.4649,-0.4661,-0.471,-0.482,-0.4908,-0.4898,-0.4937,-0.4988,-0.5041,-0.5014,0.0,0.0,0.0,-0.5002,-0.5043,-0.5049,-0.5063,-0.5104,-0.5108,-0.5108,-0.5108,-0.5108,-0.5108,-0.5108,-0.5108,-0.509,-0.5051,-0.5049,-0.5028,0.0,0.0,0.0,0.0,0.0,0.0,0.0,0.0,0.0,0.0,0.0,0.0,0.0,0.0,0.0,0.0,0.0,0.0,0.0,0.0,0.0,0.0,0.0,0.0,0.0,0.0,0.0,0.0,0.4583,0.469,0.3069,0.3172,0.3476,0.0,0.0,0.0,0.0,0.0,0.0,0.4656,0.3947,0.3616,0.3855,0.3158,0.3023,0.3502,0.3325,0.3237,0.3237,0.3046,0.2807,0.2518,0.2518,0.2518,0.2518,0.2518,0.2537,0.2615,0.2421,0.2217,0.2036,0.2065,0.1978,0.1784,0.1708,0.1768,0.1814,0.174,0.1731,0.1825,0.1994,0.1888,0.1646,0.1403,0.0,0.0,0.0,0.0,-0.314,-0.2802,-0.3189,-0.3783,-0.4185,-0.4299,-0.432,-0.4396,-0.4513,-0.4642,-0.4831,-0.4945,-0.5028,-0.5096,-0.5108,0.0,-0.5108,-0.5108,-0.5116,-0.5139,-0.5143,-0.5153,-0.5175,-0.5179,-0.5179,-0.5179,-0.5179,-0.5179,-0.5179,-0.5179,-0.5167,-0.5143,-0.5143,-0.5132,-0.5108,0.0,0.0,0.0,0.0,0.0,0.0,0.0,0.0,0.0,0.0,0.0,0.0,0.0,0.0,0.0,0.0,0.0,0.0,0.0,0.0,0.0,0.0,0.0,0.0,0.0,0.0,0.0,0.0,0.0,0.5562,0.398,0.0,0.0,0.0,0.0,0.2432,0.2385,0.2527,0.2809,0.2761,0.2858,0.3144,0.3105,0.3573,0.4594,0.4678,0.467,0.467,0.467,0.4121,0.3171,0.3171,0.3171,0.3171,0.3171,0.3173,0.312,0.2616,0.2376,0.2364,0.2366,0.2367,0.2318,0.207,0.2121,0.2321,0.2069,0.2168,0.2367,0.2365,0.1862,0.0907,-0.0855,-0.0755,0.0,0.0,-0.2815,-0.2061,-0.3519,-0.3571,-0.3222,-0.3275,-0.3277,-0.3292,-0.335,-0.3364,-0.3727,-0.4759,-0.5039,-0.5102,-0.5106,0.0,-0.5108,-0.5108,-0.5108,-0.5139,-0.5172,-0.5182,-0.5271,-0.5359,-0.5367,-0.5367,-0.5367,-0.5367,-0.5367,-0.5367,-0.5367,-0.5328,-0.5186,-0.5182,-0.5144,-0.511,-0.5104,0.0,0.0,0.0,0.0,0.0,0.0,0.0,0.0,0.0,0.0,0.0,0.0,0.0,0.0,0.0,0.0,0.0,0.0,0.0,0.0,0.0,0.0,0.0,0.0,0.0,0.0,0.0,0.0,0.464,0.4209,0.0,0.4351,0.3444,0.3413,0.4824,0.3655,0.3214,0.4,0.341,0.3066,0.3165,0.3187,0.3347,0.3744,0.377,0.3783,0.3783,0.3783,0.3581,0.318,0.318,0.318,0.318,0.318,0.318,0.3179,0.3006,0.2809,0.2674,0.2674,0.2573,0.2371,0.2271,0.2321,0.2371,0.2271,0.2321,0.232,0.2017,0.1816,0.1413,-0.0303,-0.1059,-0.1462,-0.222,-0.2523,-0.2674,-0.2925,-0.285,-0.2825,-0.3182,-0.3263,-0.3297,-0.3315,-0.3321,-0.3426,-0.3847,-0.4276,-0.4723,-0.5219,-0.5284,-0.5284,-0.5284,-0.5284,-0.5296,-0.5328,-0.5333,-0.5345,-0.5377,-0.5382,-0.5382,-0.5382,-0.5382,-0.5382,-0.5382,-0.5382,-0.5367,-0.5335,-0.5333,-0.5316,-0.5286,-0.5226,-0.5224,0.0,0.0,0.0,0.0,0.0,0.0,0.0,0.0,0.0,0.0,0.0,0.0,0.0,0.0,0.0,0.0,0.0,0.0,0.0,0.0,0.0,0.0,0.0,0.0,0.0,0.5547,0.515,0.4737,0.4344,0.424,0.4491,0.3662,0.373,0.5222,0.3981,0.3531,0.4234,0.3581,0.318,0.318,0.318,0.318,0.318,0.318,0.318,0.318,0.318,0.318,0.318,0.318,0.318,0.318,0.318,0.318,0.318,0.318,0.309,0.2953,0.2934,0.2826,0.2674,0.2573,0.2573,0.2674,0.2674,0.2674,0.2522,0.1613,0.1462,0.1313,-0.0356,-0.1324,-0.1885,-0.1899,-0.2417,-0.288,-0.2519,-0.249,-0.2564,-0.2718,-0.2744,-0.2772,-0.2788,-0.2793,-0.2851,-0.3085,-0.3752,-0.4436,-0.4934,-0.5248,-0.5382,-0.5382,-0.5382,-0.5382,-0.5382,-0.5382,-0.5382,-0.5382,-0.5382,-0.5382,-0.5382,-0.5382,-0.5382,-0.5382,-0.5382,-0.5382,-0.5382,-0.5382,-0.5382,-0.5382,-0.5097,-0.4985,-0.5098,0.0,0.0,0.0,0.0,0.0,0.0,0.0,0.0,0.0,0.0,0.0,0.0,0.0,0.0,0.0,0.0,0.0,0.0,0.0,0.0,0.0,0.0,0.0,0.6933,0.5773,0.5136,0.6112,0.4482,0.3682,0.4684,0.3831,0.3181,0.3183,0.3183,0.3184,0.3185,0.3185,0.3185,0.3185,0.3185,0.3185,0.3185,0.3185,0.3185,0.3185,0.3185,0.3185,0.3185,0.3185,0.3185,0.3185,0.3185,0.3185,0.3185,0.3185,0.322,0.3318,0.3207,0.3184,0.3185,0.2932,0.2982,0.3185,0.3185,0.3185,0.2881,0.1313,0.0808,0.0456,-0.1189,-0.1716,-0.1826,-0.2333,-0.2504,-0.2504,-0.2504,-0.2452,-0.2345,-0.1812,-0.1706,-0.1715,-0.1799,-0.1806,-0.198,-0.2573,-0.354,-0.4261,-0.4259,-0.4877,-0.5382,-0.5382,-0.5382,0.0,-0.5382,-0.5382,-0.5382,-0.5382,-0.5382,-0.5382,-0.5382,-0.5382,-0.5382,-0.5382,-0.5382,-0.5382,-0.5382,-0.5382,-0.5382,-0.5326,-0.4763,-0.4482,-0.4484,0.0,0.0,0.0,0.0,0.0,0.0,0.0,0.0,0.0,0.0,0.0,0.0,0.0,0.0,0.0,0.0,0.0,0.0,0.0,0.0,0.0,0.676,0.6853,0.658,0.6168,0.5992,0.6317,0.5857,0.5329,0.4834,0.3831,0.3197,0.3293,0.3296,0.3316,0.336,0.3362,0.3362,0.3362,0.3362,0.3362,0.3362,0.3362,0.3362,0.3362,0.3362,0.3362,0.3362,0.3362,0.3362,0.3362,0.3362,0.3362,0.3362,0.3362,0.3372,0.3382,0.332,0.3323,0.331,0.3258,0.3258,0.3362,0.3362,0.2942,0.2257,0.1207,0.042,-0.0315,-0.1373,-0.1958,-0.2225,-0.1969,-0.2184,-0.2398,-0.2024,-0.1936,-0.1955,-0.1791,-0.1754,-0.1772,-0.178,-0.1782,-0.1841,-0.2017,-0.2626,-0.3285,-0.3728,-0.43,-0.4761,-0.4761,-0.51,-0.5382,-0.5382,-0.5382,-0.5382,-0.5382,-0.5382,-0.5382,-0.5382,-0.5382,-0.5382,-0.5382,-0.5382,-0.5382,-0.5382,-0.4987,-0.4538,-0.4091,-0.3913,-0.3824,0.0,0.0,0.0,0.0,0.0,0.0,0.0,0.0,0.0,0.0,0.0,0.0,0.0,0.0,0.0,0.0,0.0,0.0,0.0,0.0,0.0,0.0,0.7609,0.7633,0.6626,0.6882,0.6977,0.6592,0.6596,0.6428,0.5765,0.4688,0.404,0.4083,0.362,0.3375,0.341,0.3413,0.3413,0.3413,0.3413,0.3413,0.3413,0.3413,0.3413,0.3413,0.3413,0.3413,0.3413,0.3413,0.3413,0.3413,0.3413,0.3413,0.3413,0.3413,0.3427,0.3441,0.0,0.0,0.0,0.0,0.3413,0.3358,0.2984,0.2504,0.1917,0.0692,-0.0053,-0.064,-0.1504,-0.1938,-0.2158,-0.1847,-0.196,-0.2124,-0.1797,-0.1755,-0.1823,-0.1823,-0.1782,-0.1795,-0.1795,-0.1795,-0.1795,-0.1795,-0.2076,0.0,-0.2803,-0.353,-0.4145,-0.4145,-0.4426,-0.4763,-0.4987,-0.5043,-0.5043,-0.5043,-0.5043,-0.4931,-0.4651,-0.4651,0.0,0.0,0.0,-0.4651,-0.4651,-0.4314,0.0,0.0,0.0,-0.3228,-0.325,-0.3069,0.0,0.0,-0.2829,-0.2958,0.0,0.0,0.0,0.0,0.0,0.0,0.0,0.0,0.0,0.0,0.0,0.0,0.0,0.0,0.0,0.0,0.8238,0.803,0.7142,0.78,0.7984,0.7041,0.6934,0.7004,0.7004,0.5787,0.4998,0.5008,0.4005,0.3425,0.3432,0.3432,0.0,0.0,0.0,0.3432,0.3432,0.3432,0.3432,0.3432,0.3432,0.3432,0.3432,0.3432,0.3432,0.3432,0.3432,0.3432,0.3432,0.3432,0.3462,0.3501,0.3451,0.3432,0.3432,0.3432,0.3432,0.3325,0.2518,0.0,0.0,0.0161,-0.0482,-0.0806,-0.1583,-0.1809,-0.1816,-0.1787,-0.1795,-0.1795,-0.1795,-0.1795,-0.1795,-0.1795,-0.1795,-0.1795,-0.1795,-0.1795,-0.1795,-0.1795,-0.1795,-0.1795,-0.1795,-0.2747,-0.3475,-0.3475,-0.3531,-0.3811,-0.4313,-0.4424,-0.4424,-0.4424,-0.4424,0.0,-0.3643,-0.3587,-0.3587,-0.3587,-0.3587,-0.359,-0.3485,-0.3485,-0.3456,-0.3399,-0.2885,-0.2618,-0.2715,-0.2161,-0.1937,-0.1937,-0.2479,-0.272,0.0,0.0,0.0,0.0,0.0,0.0,0.0,0.0,0.0,0.0,0.0,0.0,0.0,0.0,0.0,0.8525,0.8583,0.8521,0.8272,0.8444,0.8511,0.8282,0.7404,0.6843,0.6843,0.4945,0.375,0.3799,0.3588,0.3501,0.355,0.3553,0.3553,0.3553,0.3553,0.3553,0.3553,0.3553,0.3553,0.3553,0.3553,0.0,0.3553,0.3553,0.3553,0.3553,0.3553,0.3553,0.3553,0.3553,0.356,0.3568,0.3557,0.3553,0.3553,0.3553,0.3553,0.3553,0.3387,0.2331,0.1055,0.0722,-0.0333,-0.1556,-0.1729,-0.1787,0.0,-0.1793,-0.1795,-0.1795,-0.1795,-0.1795,-0.1795,-0.1795,-0.1795,-0.1795,-0.1795,-0.1795,-0.1795,-0.1795,-0.1795,-0.1795,-0.1795,-0.2412,-0.2862,-0.2862,-0.3307,-0.3643,-0.3755,-0.3755,-0.3755,-0.3755,-0.3755,-0.3699,-0.3587,-0.3587,-0.3587,-0.3587,-0.3587,-0.3384,-0.2914,-0.2858,-0.2651,-0.2227,-0.2138,-0.2036,-0.2102,-0.2014,-0.1968,-0.1968,-0.2091,-0.2152,0.0,0.0,0.0,0.0,0.0,0.0,0.0,0.0,0.0,0.0,0.0,1.0277,1.0697,0.0,0.9867,0.9916,0.9987,0.985,0.9391,0.9363,0.9241,0.8707,0.7624,0.6964,0.6964,0.5398,0.444,0.4476,0.4147,0.3998,0.4032,0.4313,0.448,0.448,0.4201,0.4033,0.4033,0.3755,0.3587,0.3587,0.3587,0.3587,0.3587,0.3587,0.3587,0.3587,0.3587,0.3587,0.3587,0.3587,0.3587,0.3587,0.3587,0.3587,0.3587,0.3587,0.3587,0.3475,0.2578,0.1682,0.0729,-0.0168,-0.1065,-0.1795,-0.1795,-0.1795,-0.1795,-0.1795,-0.1795,-0.1795,-0.1795,-0.1795,-0.1795,-0.1795,-0.1795,-0.1795,-0.1795,-0.1795,-0.1795,-0.1795,-0.1795,-0.1795,-0.1795,-0.2076,-0.2244,-0.2244,-0.2523,-0.2803,-0.3085,-0.3141,-0.3141,-0.3141,-0.3141,-0.3029,-0.2747,-0.2691,-0.2691,-0.2691,-0.2691,-0.2542,-0.2239,-0.2241,-0.2151,-0.1907,-0.1924,-0.1939,-0.1954,-0.1969,-0.1977,-0.1977,-0.1977,-0.1977,0.0,0.0,0.0,0.0,0.0,0.0,0.0,1.027,1.0287,1.0694,1.0828,1.1006,1.1436,1.1419,1.1331,1.1296,1.1318,1.1072,1.015,0.9941,0.9479,0.8537,0.7633,0.7141,0.7141,0.6091,0.5427,0.5427,0.4925,0.4702,0.4702,0.5148,0.5427,0.5427,0.4925,0.4702,0.4702,0.4201,0.3867,0.3755,0.3755,0.3699,0.3587,0.3587,0.3587,0.3587,0.3587,0.3587,0.3587,0.3587,0.3587,0.3587,0.3587,0.3587,0.3587,0.3587,0.3587,0.3363,0.1737,0.1065,0.0617,-0.1009,-0.1627,-0.1795,-0.1795,-0.1795,-0.1795,-0.1795,-0.1795,-0.1795,-0.1795,-0.1795,-0.1795,-0.1795,-0.1795,-0.1795,-0.1795,-0.1795,-0.1795,-0.1795,-0.1795,-0.1795,-0.1795,-0.1795,-0.1795,-0.1795,-0.1795,-0.1964,-0.2469,-0.2525,-0.2525,-0.2525,-0.2525,-0.23,-0.1851,-0.1795,-0.1795,-0.1795,-0.1795,-0.1811,-0.1848,-0.1791,-0.1878,-0.1939,-0.194,-0.1952,-0.1977,-0.1977,-0.1977,-0.1977,-0.1977,-0.1977,1.0892,1.0993,1.1028,1.1186,1.1221,1.1207,0.0,1.1423,1.1423,1.1489,1.1485,1.1495,1.134,1.1436,1.1535,1.1318,1.1428,1.126,1.0331,0.9292,0.8355,0.7465,0.7254,0.7207,0.7207,0.6096,0.5427,0.5427,0.5316,0.5316,0.5316,0.5371,0.5427,0.5427,0.5316,0.5316,0.5316,0.5204,0.4925,0.4424,0.4424,0.4145,0.3587,0.3587,0.3587,0.3587,0.3587,0.3587,0.3587,0.3587,0.3587,0.3587,0.3587,0.3587,0.3587,0.3587,0.3587,0.3474,0.2409,0.1569,0.0729,-0.0224,-0.1121,-0.1795,-0.1795,-0.1795,-0.1795,-0.1795,-0.1795,-0.1795,-0.1795,-0.1795,-0.1795,-0.1795,-0.1795,-0.1795,-0.1795,-0.1795,-0.1795,-0.1795,-0.1795,-0.1795,-0.1795,-0.1795,-0.1795,-0.1795,-0.1795,-0.1851,-0.1907,-0.1907,-0.1907,-0.1907,-0.1907,-0.1851,-0.1795,-0.1795,-0.1795,-0.1795,-0.1795,-0.1821,-0.1879,-0.1881,-0.1909,-0.197,-0.1971,-0.1973,-0.1977,-0.1977,-0.1977,-0.1977,-0.1977,-0.1977,1.173,1.1808,1.1826,1.1913,1.1828,1.1742,1.1823,1.1756,1.1706,1.1819,1.186,1.1899,1.1931,1.2005,1.2032,1.195,1.2005,1.1728,1.0857,0.9856,0.8916,0.8039,0.7487,0.6932,0.6207,0.5706,0.5427,0.5427,0.5706,0.5929,0.5929,0.6262,0.6429,0.6429,0.6096,0.5929,0.5929,0.5594,0.526,0.5037,0.4646,0.4367,0.4089,0.3755,0.3587,0.3587,0.3587,0.3587,0.3587,0.3587,0.3587,0.3587,0.3587,0.3587,0.3587,0.3587,0.3587,0.3419,0.1961,0.1177,0.0673,-0.0729,-0.1458,-0.1795,-0.1795,-0.1795,-0.1795,-0.1795,-0.1795,-0.1795,-0.1795,-0.1795,-0.1795,-0.1795,-0.1795,-0.1795,-0.1795,-0.1795,-0.1795,-0.1795,-0.1795,-0.1795,-0.1795,-0.1795,-0.1795,-0.1795,-0.1795,-0.1795,-0.1795,-0.1795,-0.1795,-0.1795,-0.1795,-0.1795,-0.1795,-0.1795,-0.1795,-0.1795,-0.1795,-0.1814,-0.1857,-0.1859,-0.1888,-0.1949,-0.195,-0.1959,-0.1977,-0.1959,-0.195,-0.195,-0.195,-0.196,1.2344,1.2387,1.2387,1.2387,1.2278,1.2114,1.2114,1.2004,1.1944,1.2082,1.2161,1.2212,1.2358,1.2387,1.2387,1.2387,1.2387,1.211,1.1236,1.0351,0.9467,0.8595,0.7709,0.6877,0.5984,0.5873,0.5873,0.5873,0.6318,0.6541,0.6541,0.6988,0.721,0.721,0.6765,0.6541,0.6541,0.6096,0.5817,0.565,0.5204,0.4814,0.4479,0.3867,0.3587,0.3587,0.3587,0.3587,0.3587,0.3587,0.3587,0.3587,0.3587,0.3587,0.3587,0.3587,0.3418,0.297,0.1458,0.0729,0.028,-0.129,-0.1795,-0.1795,-0.1795,-0.1795,-0.1795,-0.1795,-0.1795,-0.1795,-0.1795,-0.1795,-0.1795,-0.1795,-0.1795,-0.1795,-0.1795,-0.1795,-0.1795,-0.1795,-0.1795,-0.1795,-0.1795,-0.1795,-0.1795,-0.1795,-0.1795,-0.1795,-0.1795,-0.1795,-0.1795,-0.1795,-0.1795,-0.1795,-0.1795,-0.1795,-0.1795,-0.1795,-0.1795,-0.1808,-0.1782,-0.1783,-0.1807,-0.1917,-0.1927,-0.1938,-0.1952,-0.1938,-0.1927,-0.1919,-0.1927,-0.1952,1.2382,1.2387,1.2387,1.2387,1.2382,1.2382,1.2382,1.2377,1.2377,1.2382,1.2377,1.2377,1.2387,1.2387,1.2387,1.2387,1.2387,1.211,1.1236,1.0351,0.9467,0.8595,0.7709,0.721,0.7154,0.7154,0.7154,0.7154,0.7154,0.7154,0.7154,0.721,0.721,0.721,0.721,0.7154,0.7154,0.7154,0.6877,0.6262,0.6262,0.565,0.4479,0.3867,0.3587,0.3587,0.3587,0.3587,0.3587,0.3587,0.3587,0.3587,0.3587,0.3587,0.3587,0.3587,0.3025,0.2128,0.1233,0.0336,-0.0505,-0.1458,-0.1795,-0.1795,-0.1795,-0.1795,-0.1795,-0.1795,-0.1795,-0.1795,-0.1795,-0.1795,-0.1795,-0.1795,-0.1795,-0.1795,-0.1795,-0.1795,-0.1795,-0.1795,-0.1795,-0.1795,-0.1795,-0.1795,-0.1795,-0.1795,-0.1795,-0.1795,-0.1795,-0.1795,-0.1795,-0.1795,-0.1795,-0.1795,-0.1795,-0.1795,-0.1795,-0.1795,-0.1795,-0.1808,-0.1782,-0.1783,-0.1855,-0.1887,-0.1916,-0.1917,-0.1889,-0.1917,-0.1916,-0.1888,-0.1917,-0.1962,1.2387,1.2387,1.2387,1.2387,1.2387,1.2387,1.2387,1.2387,1.2387,1.2387,1.2387,1.2387,1.2387,1.2387,1.2387,1.2387,1.2387,1.2273,1.2001,1.0735,0.9688,0.9412,0.8094,0.721,0.721,0.721,0.721,0.721,0.721,0.721,0.721,0.721,0.721,0.721,0.721,0.721,0.721,0.721,0.7099,0.6874,0.6096,0.526,0.4479,0.3867,0.3587,0.3587,0.3587,0.3587,0.3587,0.3587,0.3587,0.3587,0.3587,0.3587,0.3587,0.3587,0.2634,0.1289,0.1009,0.0336,-0.0561,-0.1514,-0.1795,-0.1795,-0.1795,-0.1795,-0.1795,-0.1795,-0.1795,-0.1795,-0.1795,-0.1795,-0.1795,-0.1795,-0.1795,-0.1795,-0.1795,-0.1795,-0.1795,-0.1795,-0.1795,-0.1795,-0.1795,-0.1795,-0.1795,-0.1795,-0.1795,-0.1795,-0.1795,-0.1795,-0.1795,-0.1795,-0.1795,-0.1795,-0.1795,-0.1795,-0.1795,-0.1795,-0.1795,-0.18,-0.181,-0.181,-0.1825,-0.1855,-0.1807,-0.1826,-0.1916,-0.1826,-0.1876,-0.1885,-0.1876,-0.1844,1.2363,1.2387,1.2387,1.2387,1.2387,1.2387,1.2387,1.2387,1.2387,1.2387,1.2387,1.2387,1.2387,1.2387,1.2387,1.2387,1.2387,1.2387,1.2387,1.0899,0.9798,0.9798,0.8257,0.721,0.721,0.721,0.721,0.721,0.721,0.721,0.721,0.721,0.721,0.721,0.721,0.721,0.721,0.721,0.721,0.721,0.6207,0.5539,0.5093,0.4313,0.3921,0.3923,0.3699,0.3587,0.3587,0.3587,0.3587,0.3587,0.3587,0.3587,0.3531,0.325,0.2185,0.0897,0.0897,0.0112,-0.1009,-0.1627,-0.1795,-0.1795,-0.1795,-0.1795,-0.1795,-0.1795,-0.1795,-0.1795,-0.1795,-0.1795,-0.1795,-0.1795,-0.1795,-0.1795,-0.1795,-0.1795,-0.1795,-0.1795,-0.1795,-0.1795,-0.1795,-0.1795,-0.1795,-0.1795,-0.1795,-0.1795,-0.1795,-0.1795,-0.1795,-0.1795,-0.1795,-0.1795,-0.1795,-0.1795,-0.1795,-0.1795,-0.1795,-0.1795,-0.1795,-0.1806,-0.1821,-0.1782,-0.1803,-0.1828,-0.1915,-0.1886,-0.1877,-0.1885,-0.1866,-0.1883,1.233,1.2387,1.2387,1.2387,1.2387,1.2387,1.2387,1.2387,1.2387,1.2387,1.2387,1.2387,1.2387,1.2387,1.2387,1.2387,1.2387,1.2387,1.2387,1.0899,0.9798,0.0,0.0,0.0,0.0,0.0,0.721,0.721,0.721,0.721,0.721,0.721,0.721,0.721,0.721,0.721,0.721,0.721,0.721,0.721,0.6541,0.6262,0.6262,0.5037,0.4479,0.4479,0.3866,0.3587,0.3587,0.3587,0.3587,0.3587,0.3587,0.3587,0.3475,0.252,0.1625,0.0897,0.0841,-0.0336,-0.1795,-0.1795,-0.1795,-0.1795,-0.1795,-0.1795,-0.1795,-0.1795,-0.1795,-0.1795,-0.1795,-0.1795,-0.1795,-0.1795,-0.1795,-0.1795,-0.1795,-0.1795,-0.1795,-0.1795,-0.1795,-0.1795,-0.1795,-0.1851,-0.1907,-0.1907,-0.1907,-0.1851,-0.1795,-0.1795,-0.1795,-0.1795,-0.1795,-0.1795,-0.1795,-0.1795,-0.1795,-0.1795,-0.1795,-0.1795,-0.1795,-0.1824,-0.1783,-0.1783,-0.1839,-0.1915,-0.1888,-0.1915,-0.1915,-0.1888,-0.1887,-0.1902,1.233,1.2387,1.2387,1.2387,1.2387,1.2387,1.2387,1.2387,1.2387,1.2387,1.2387,1.2387,1.2387,1.2387,1.2387,1.2387,1.2387,1.2387,1.2387,1.0899,0.0,0.9798,0.0,0.721,0.721,0.721,0.721,0.721,0.721,0.721,0.721,0.721,0.721,0.721,0.721,0.721,0.721,0.721,0.721,0.721,0.6151,0.5873,0.6262,0.459,0.4089,0.4479,0.3866,0.3587,0.3587,0.3587,0.3587,0.3587,0.3587,0.3587,0.3475,0.252,0.1625,0.0785,0.0168,-0.0841,-0.1795,-0.1795,-0.1795,-0.1795,-0.1795,-0.1795,-0.1795,-0.1795,-0.1795,-0.1795,-0.1795,-0.1795,-0.1795,-0.1795,-0.1795,-0.1795,-0.1795,-0.1795,-0.1795,-0.1795,-0.1795,-0.1795,-0.1795,-0.2521,-0.3135,-0.3135,-0.3135,-0.28,-0.1907,-0.1795,-0.1795,-0.1795,-0.1795,-0.1795,-0.1795,-0.1795,-0.1795,-0.1795,-0.1795,-0.1795,-0.1795,-0.1824,-0.1783,-0.1783,-0.1878,-0.1904,-0.1919,-0.1904,-0.1905,-0.1919,-0.1896,-0.1902,1.2415,1.2387,1.2387,1.2387,1.2387,1.2387,1.2387,1.2387,1.2387,1.2387,1.2387,1.2387,1.2387,1.2387,1.2387,1.2387,1.2387,1.2387,1.2387,1.0899,0.9798,0.0,0.8257,0.0,0.721,0.721,0.721,0.721,0.721,0.721,0.721,0.721,0.721,0.721,0.721,0.721,0.721,0.721,0.721,0.721,0.6262,0.5984,0.6262,0.4702,0.4201,0.4479,0.3866,0.3587,0.3587,0.3587,0.3587,0.3587,0.3587,0.3587,0.3418,0.2129,0.1345,0.0729,-0.0561,-0.1346,-0.1795,-0.1795,-0.1795,-0.1795,-0.1795,-0.1795,-0.1795,-0.1795,-0.1795,-0.1795,-0.1795,-0.1795,-0.1795,-0.1795,-0.1795,-0.1795,-0.1795,-0.1795,-0.1795,-0.1795,-0.1795,-0.1963,-0.2521,-0.3135,-0.3804,-0.4305,-0.4414,-0.4137,-0.3469,-0.2465,-0.1795,-0.1795,-0.1795,-0.1795,-0.1795,-0.1795,-0.1795,-0.1795,-0.1795,-0.1801,-0.1814,-0.1844,-0.1866,-0.1821,-0.191,-0.1934,-0.1951,-0.1934,-0.1934,-0.195,-0.192,-0.1915,1.2543,1.2441,1.2387,1.2387,1.2387,1.2387,1.2387,1.2387,1.2387,1.2387,1.2387,1.2387,1.2387,1.2387,1.2387,1.2387,0.0,1.2387,1.2387,1.0899,0.9798,0.9798,0.8257,0.721,0.721,0.721,0.721,0.721,0.721,0.721,0.721,0.721,0.721,0.721,0.721,0.721,0.721,0.721,0.721,0.721,0.6596,0.6318,0.6262,0.5037,0.448,0.4479,0.3866,0.3587,0.3587,0.3587,0.3587,0.3587,0.3587,0.3531,0.3194,0.1514,0.0841,0.0505,-0.1234,-0.1795,-0.1795,-0.1795,-0.1795,-0.1795,-0.1795,-0.1795,-0.1795,-0.1795,-0.1795,-0.1795,-0.1795,-0.1795,-0.1795,-0.1795,-0.1795,-0.1795,-0.1795,-0.1795,-0.1795,-0.1795,-0.1907,-0.2353,-0.3413,-0.386,-0.4416,-0.5472,-0.5641,-0.5641,-0.5641,-0.3692,-0.2298,-0.2298,-0.213,-0.2018,-0.2018,-0.1907,-0.1795,-0.1795,-0.1795,-0.1808,-0.1782,-0.187,-0.19,-0.187,-0.1961,-0.1977,-0.1977,-0.1977,-0.1977,-0.1976,-0.1949,-0.1937,1.3027,1.2767,1.2387,1.2387,1.2387,1.2387,1.2387,1.2387,0.0,1.2387,1.2387,1.2387,1.2387,1.2387,1.2387,1.2387,1.2387,1.2387,1.2387,1.0899,0.9798,0.0,0.8257,0.721,0.721,0.721,0.721,0.721,0.721,0.721,0.721,0.721,0.721,0.721,0.721,0.721,0.721,0.721,0.721,0.721,0.6596,0.6318,0.6262,0.5037,0.448,0.4479,0.3866,0.3587,0.3587,0.3587,0.3587,0.3587,0.3587,0.3137,0.2297,0.1289,0.0449,-0.0336,-0.1402,-0.1795,-0.1795,-0.1795,-0.1795,-0.1795,-0.1795,-0.1795,-0.1795,-0.1795,-0.1795,-0.1795,-0.1795,-0.1795,-0.1795,-0.1795,-0.1795,-0.1795,-0.1795,-0.1795,-0.1795,-0.1795,-0.2632,-0.3358,-0.358,-0.5198,-0.6538,-0.676,-0.6816,-0.6816,-0.6816,-0.5641,-0.4749,-0.4749,-0.3858,-0.3301,-0.3301,-0.2353,-0.1795,-0.1795,-0.1795,-0.1808,-0.1782,-0.187,-0.19,-0.187,-0.1961,-0.1977,-0.1977,-0.1977,-0.1977,-0.1977,-0.1971,-0.1969,1.2733,1.2523,1.2387,1.2387,1.2387,1.2387,1.2387,0.0,0.0,1.2387,1.2387,1.2387,1.2387,1.2387,1.2387,1.2387,1.2387,1.2387,1.2387,1.0899,0.9798,0.9798,0.8257,0.721,0.721,0.721,0.721,0.721,0.721,0.721,0.721,0.721,0.721,0.721,0.721,0.721,0.721,0.721,0.721,0.721,0.6262,0.5817,0.5817,0.459,0.4033,0.4033,0.3699,0.3587,0.3587,0.3587,0.3587,0.3531,0.3081,0.2576,0.2016,0.0729,-0.0056,-0.0561,-0.1458,-0.1795,-0.1795,-0.1795,-0.1795,-0.1795,-0.1795,-0.1795,-0.1795,-0.1795,-0.1795,-0.1795,-0.1795,-0.1795,-0.1795,-0.1795,-0.1795,-0.1795,-0.1795,-0.2298,-0.2744,-0.2744,-0.3692,-0.4749,-0.531,-0.6369,-0.7321,-0.7934,-0.8045,-0.8045,-0.8045,-0.754,-0.6755,-0.5528,-0.486,-0.4528,-0.4528,-0.4026,-0.3692,-0.3692,-0.3692,-0.3383,-0.2755,-0.28,-0.255,-0.193,-0.1945,-0.1961,-0.1977,-0.196,-0.1961,-0.1977,-0.1977,-0.1977,1.2436,1.2239,1.225,1.225,1.225,1.225,1.225,1.225,1.225,1.225,1.225,1.2264,1.2311,1.2321,1.2335,1.2377,1.2387,1.2387,1.2387,1.1063,1.0017,0.9798,0.8423,0.0,0.721,0.721,0.721,0.721,0.721,0.721,0.721,0.721,0.721,0.721,0.721,0.721,0.721,0.721,0.721,0.721,0.6262,0.565,0.5371,0.4424,0.3866,0.3587,0.3587,0.3587,0.3587,0.3587,0.3587,0.3531,0.2576,0.2067,0.1727,0.0167,-0.0501,-0.0776,-0.1498,-0.1776,-0.1776,-0.1776,-0.1785,-0.1795,-0.1795,-0.1795,-0.1795,-0.1795,-0.1795,-0.1795,-0.1795,-0.1795,-0.1795,-0.1795,-0.1795,-0.1795,-0.1795,-0.2744,-0.358,-0.358,-0.4751,-0.6031,-0.693,-0.7321,-0.7823,-0.8771,-0.8885,-0.8885,-0.8885,-0.8885,-0.8211,-0.6364,-0.5919,-0.5753,-0.5753,-0.5528,-0.5417,-0.5417,-0.5417,-0.4953,-0.4011,-0.4063,-0.366,-0.2711,-0.2712,-0.2733,-0.2837,-0.2803,-0.2804,-0.2837,-0.2837,-0.2837,1.272,1.2279,1.1874,1.1874,1.1874,1.1874,1.1874,0.0,1.1874,1.1874,1.1874,1.1935,1.2076,1.2114,1.2175,1.2354,1.2387,1.2387,1.2387,1.1564,1.0684,0.9908,0.0,0.0,0.7265,0.721,0.721,0.721,0.721,0.721,0.721,0.721,0.721,0.721,0.721,0.721,0.721,0.721,0.721,0.721,0.7099,0.6485,0.5371,0.526,0.4646,0.3587,0.3587,0.3587,0.3587,0.3587,0.3587,0.3531,0.2576,0.172,0.0931,-0.0055,-0.0922,-0.1605,-0.1659,-0.1712,-0.1712,-0.1712,-0.175,-0.1795,-0.1795,-0.1795,-0.1795,-0.1795,-0.1795,-0.1795,-0.1795,-0.1795,-0.1795,-0.1795,-0.1795,-0.1795,-0.1795,-0.2744,-0.358,-0.358,-0.5421,-0.6985,-0.7096,-0.7989,-0.8771,-0.8881,-0.8885,-0.8885,-0.8885,-0.8885,-0.8826,-0.8602,-0.7598,-0.693,-0.693,-0.5975,-0.5417,-0.5417,-0.5417,-0.5346,-0.5264,-0.5218,-0.5302,-0.5346,-0.535,-0.539,-0.5531,-0.5523,-0.5523,-0.5531,-0.5531,-0.5531,1.2172,1.1881,1.1817,1.1817,1.1817,1.1817,1.1817,0.0,1.1817,1.1817,1.1817,1.1846,1.1878,1.2001,1.2114,1.2194,1.1873,1.1618,1.1618,1.041,0.942,0.903,0.826,0.7598,0.0,0.721,0.721,0.721,0.721,0.721,0.721,0.721,0.721,0.721,0.721,0.721,0.721,0.721,0.721,0.721,0.6818,0.6207,0.5371,0.5037,0.4424,0.3587,0.3587,0.3587,0.3585,0.3548,0.3257,0.2704,0.1801,0.0866,0.0,-0.0861,-0.1393,-0.1704,-0.1704,-0.1704,-0.1704,-0.1704,-0.172,-0.174,-0.174,-0.1753,-0.1823,-0.1823,-0.1781,-0.1795,-0.1795,-0.1795,-0.1795,-0.1795,-0.1795,-0.2019,-0.2744,-0.3858,-0.4862,-0.5588,-0.7038,-0.8156,-0.8156,-0.8605,-0.8885,-0.8885,-0.8885,-0.8885,-0.8885,-0.8885,-0.8885,-0.8885,-0.8491,-0.8156,-0.8156,-0.7762,-0.7482,-0.7482,-0.7482,-0.7168,-0.6429,-0.649,-0.6162,-0.5546,-0.56,-0.5671,-0.576,-0.5881,-0.5908,-0.5896,-0.5896,-0.5896,1.167,1.1524,1.1633,1.1633,1.1633,1.1633,0.0,0.0,1.1633,1.1633,1.1633,1.1652,1.1718,1.1855,1.1892,1.1739,1.1554,1.1226,1.0785,0.986,0.9092,0.854,0.0,0.7487,0.721,0.721,0.721,0.721,0.721,0.721,0.721,0.721,0.721,0.721,0.721,0.721,0.721,0.721,0.721,0.721,0.6765,0.6151,0.5371,0.4981,0.4313,0.3587,0.3568,0.3561,0.3556,0.3222,0.2766,0.2168,0.1284,0.0371,-0.0423,-0.1057,-0.1474,-0.1678,-0.1678,-0.1678,-0.1678,-0.1678,-0.1678,-0.1678,-0.1678,-0.1705,-0.179,-0.179,-0.1758,-0.1782,-0.1782,-0.1789,-0.1795,-0.1795,-0.2074,-0.2576,-0.3413,-0.4806,-0.6144,-0.693,-0.81,-0.8885,-0.8885,-0.8885,-0.8885,-0.8885,-0.8885,-0.8885,-0.8885,-0.8885,-0.8885,-0.8885,-0.8885,-0.8885,-0.8885,-0.8885,-0.8885,-0.8885,-0.8885,-0.8491,-0.7654,-0.7679,-0.7344,-0.6524,-0.6597,-0.6691,-0.68,-0.6953,-0.7005,-0.7016,-0.7045,-0.6874,1.1345,1.1198,1.1203,1.1203,1.1203,1.1203,1.1203,1.1203,1.1203,1.1203,1.1203,1.1269,1.1482,1.1524,1.1346,1.089,1.1545,1.1563,1.0049,1.0519,1.0414,0.0,0.8484,0.8152,0.7265,0.721,0.721,0.721,0.721,0.721,0.721,0.721,0.721,0.721,0.721,0.721,0.721,0.721,0.721,0.721,0.721,0.6541,0.5427,0.5371,0.4758,0.3583,0.3523,0.3497,0.3437,0.2575,0.2185,0.2131,0.1224,0.0421,-0.0311,-0.0363,-0.0923,-0.1618,-0.1618,-0.1618,-0.1618,-0.1618,-0.1618,-0.1618,-0.1618,-0.1658,-0.1705,-0.1705,-0.1727,-0.1804,-0.1804,-0.1828,-0.1795,-0.1795,-0.2688,-0.358,-0.358,-0.5421,-0.7096,-0.7096,-0.81,-0.8885,-0.8885,-0.8885,-0.8885,-0.8885,-0.8885,-0.8885,-0.8885,-0.8885,-0.8885,-0.8885,-0.8885,-0.8885,-0.8885,-0.8885,-0.8885,-0.8885,-0.8885,-0.8881,-0.8881,-0.8885,-0.8952,-0.915,-0.9154,-0.9232,-0.9384,-0.9475,-0.9552,-0.9556,-0.9694,-0.9204,1.134,1.1194,1.1194,1.1194,1.1194,1.1194,1.1194,1.1194,1.1194,1.1194,1.1194,1.1217,1.1283,1.142,1.13,1.0667,1.0445,0.9996,0.9068,0.8647,0.0,0.7654,0.7598,0.7487,0.721,0.721,0.721,0.721,0.721,0.721,0.721,0.721,0.721,0.721,0.721,0.721,0.721,0.721,0.721,0.721,0.721,0.6541,0.5427,0.5427,0.4729,0.3525,0.3504,0.3474,0.338,0.311,0.2616,0.2037,0.1186,0.0358,-0.0458,-0.1019,-0.1371,-0.1617,-0.1617,-0.1617,-0.1617,-0.1617,-0.1617,-0.1617,-0.1617,-0.1644,-0.168,-0.1699,-0.1711,-0.1718,-0.1718,-0.1726,-0.1895,-0.2652,-0.3164,-0.3957,-0.5547,-0.6538,-0.7321,-0.8156,-0.866,-0.8885,-0.8885,-0.8885,-0.8885,-0.8885,-0.8885,-0.8885,-0.8885,-0.8885,-0.8885,-0.8885,-0.8885,-0.8885,-0.8885,-0.8885,-0.8885,-0.8885,-0.8885,-0.8885,-0.8885,-0.8885,-0.8905,-0.9005,-0.9103,-0.9234,-0.9282,-0.9381,-0.9507,-0.9612,-0.9656,-0.9663,1.1194,1.1194,1.1194,1.1194,1.1194,0.0,1.1194,1.1194,1.1175,1.1099,1.1085,1.1085,1.1085,1.1194,1.1097,1.0569,1.014,0.9548,0.8624,0.7996,0.0,0.7144,0.7185,0.721,0.721,0.721,0.721,0.721,0.721,0.721,0.721,0.721,0.721,0.721,0.721,0.721,0.721,0.721,0.721,0.721,0.6988,0.6352,0.5376,0.5099,0.445,0.3463,0.344,0.341,0.0,0.2949,0.231,0.1538,0.1013,0.0101,-0.0859,-0.1061,-0.1364,-0.1617,-0.1617,-0.1617,-0.1617,-0.1617,-0.1617,-0.1617,-0.1617,-0.163,-0.1649,-0.1667,-0.168,-0.1688,-0.1688,-0.2014,-0.2448,-0.3139,-0.4019,-0.5124,-0.6524,-0.7231,-0.7835,-0.8601,-0.8811,-0.8797,-0.8797,-0.8844,-0.8885,-0.8885,-0.8885,-0.8885,-0.8885,-0.8885,-0.8885,-0.8885,-0.8885,-0.8885,-0.8885,-0.8885,-0.8885,-0.8885,-0.8885,-0.8885,-0.8885,-0.8885,-0.8885,-0.8885,-0.9025,-0.9072,-0.9072,-0.9222,-0.9374,-0.9523,-0.9638,-0.9954,0.0,1.1023,1.1047,1.1047,1.1047,1.1096,1.1077,1.1126,0.0,1.0915,1.0872,1.0877,1.0891,1.0896,1.0807,1.0531,1.0521,1.0014,0.8666,0.8304,0.0,0.7091,0.7133,0.7202,0.721,0.7202,0.7196,0.7196,0.7191,0.7185,0.7185,0.7185,0.7185,0.7185,0.7185,0.7193,0.721,0.721,0.7204,0.7199,0.6586,0.592,0.5281,0.4684,0.4051,0.3402,0.3346,0.3319,0.3206,0.2439,0.1613,0.0857,0.0806,-0.0151,-0.1415,-0.0758,-0.096,-0.1617,-0.1617,-0.1617,-0.1617,-0.1617,-0.1617,-0.1617,-0.1617,-0.1617,-0.1617,-0.1667,-0.1739,-0.1814,-0.1917,-0.2673,-0.3444,-0.3497,-0.5136,-0.6721,-0.6774,-0.7682,-0.8482,-0.8482,-0.8598,-0.8696,-0.8696,-0.8821,-0.8868,-0.8868,-0.8875,-0.8885,-0.8885,-0.8885,-0.8885,-0.8885,-0.8885,-0.8885,-0.8885,-0.8885,-0.8885,-0.8885,-0.8885,-0.8885,-0.8885,-0.8885,-0.8885,-0.8885,-0.8885,-0.8885,-0.8885,-0.9072,-0.9272,-0.9364,-0.965,-1.0084,0.9165,0.0,0.9365,0.9365,0.9817,1.0222,0.0,1.0525,1.0905,1.0693,1.065,1.0702,1.0868,1.0896,1.0807,1.0531,1.0521,1.0014,0.8666,0.7819,0.0,0.7037,0.701,0.7114,0.7202,0.713,0.7024,0.7024,0.6937,0.6885,0.6885,0.6885,0.6885,0.6885,0.6885,0.6972,0.721,0.721,0.7166,0.7024,0.6478,0.5823,0.5137,0.4552,0.3981,0.3342,0.3327,0.3294,0.32,0.2983,0.2422,0.1664,0.1058,0.0202,-0.0758,-0.1162,-0.1415,-0.1617,-0.1617,-0.1617,-0.1617,-0.1617,-0.1617,-0.1617,-0.1617,-0.1617,-0.1768,-0.2572,-0.2831,-0.3043,-0.3849,-0.4266,-0.4636,-0.5452,-0.6174,-0.691,-0.7746,-0.8248,-0.8482,-0.8482,-0.8513,-0.8537,-0.8537,-0.8662,-0.8764,-0.8764,-0.8807,-0.8885,-0.8885,-0.8885,-0.8885,-0.8885,-0.8885,-0.8885,-0.8885,-0.8885,-0.8885,-0.8885,-0.8885,-0.8885,-0.8885,-0.8885,-0.8885,-0.8885,-0.8885,-0.8885,-0.8885,-0.8974,-0.9062,-0.9262,-0.9546,-0.9914,0.8261,0.84,0.8728,0.8806,0.906,0.932,0.9224,0.9521,0.9742,0.9552,0.0,0.9523,0.9669,0.9703,0.9772,0.9947,0.963,0.9142,0.8519,0.7667,0.7185,0.7496,0.7217,0.6986,0.6991,0.6937,0.6902,0.6902,0.6839,0.6801,0.6801,0.6801,0.6801,0.6801,0.6801,0.6864,0.6991,0.6991,0.6961,0.6902,0.6095,0.5454,0.5047,0.4208,0.3649,0.3279,0.3279,0.3211,0.318,0.2826,0.2169,0.1361,0.0555,-0.0252,-0.101,-0.1415,-0.1617,-0.1617,-0.1617,-0.1617,-0.1617,-0.1617,-0.1617,-0.1617,-0.1617,-0.1969,-0.2471,-0.3022,-0.3224,-0.3423,-0.4524,-0.5177,-0.5679,-0.6284,-0.6838,-0.7446,-0.8062,-0.8225,-0.8279,-0.8279,-0.8336,-0.8384,-0.8384,-0.8509,-0.8604,-0.8604,-0.8786,-0.8865,-0.8825,-0.8941,-0.8968,-0.893,-0.8885,-0.8885,-0.8885,-0.8885,-0.8885,-0.8885,-0.8885,-0.8885,-0.8885,-0.8885,-0.8995,-0.9103,-0.9103,-0.9103,-0.9103,-0.9103,-0.92,-0.9276,-0.9552,-0.992,0.7632,0.7818,0.8328,0.8466,0.843,0.8387,0.8361,0.0,0.0,0.0,0.0,0.8147,0.827,0.8275,0.8494,0.9171,0.8587,0.8067,0.8248,0.7605,0.732,0.7787,0.734,0.6896,0.6812,0.6785,0.6774,0.6774,0.6757,0.6747,0.6747,0.6747,0.6747,0.6747,0.6747,0.6747,0.6747,0.6785,0.6793,0.6774,0.5615,0.5041,0.4951,0.3822,0.3279,0.318,0.318,0.313,0.2977,0.2269,0.1462,0.0555,-0.0151,-0.0909,-0.1617,-0.1617,-0.1617,-0.1617,-0.1617,-0.1617,-0.1617,-0.1617,-0.1617,-0.1617,-0.1617,-0.2371,-0.3224,-0.3374,-0.3574,-0.3925,-0.5027,-0.5979,-0.6637,-0.6637,-0.7338,-0.7988,-0.7988,-0.7988,-0.7988,-0.7988,-0.8147,-0.8235,-0.8235,-0.8353,-0.8452,-0.8452,-0.8738,-0.8857,-0.8769,-0.894,-0.9047,-0.891,-0.8944,-0.8903,-0.8848,-0.8868,-0.8885,-0.8885,-0.8885,-0.8885,-0.8885,-0.8937,-0.9103,-0.9379,-0.9434,-0.9489,-0.9489,-0.9489,-0.9489,-0.9489,-0.9761,-1.0113,0.6809,0.6645,0.6854,0.707,0.7309,0.7446,0.7273,0.7777,0.0,0.0,0.0,0.0,0.0,0.8244,0.8504,0.9066,0.8653,0.8159,0.7998,0.7208,0.6739,0.6804,0.6714,0.6709,0.6793,0.6709,0.6646,0.6646,0.65,0.6441,0.6441,0.6441,0.6441,0.6441,0.6441,0.6441,0.6441,0.6698,0.6749,0.6594,0.5509,0.4945,0.4804,0.3698,0.3189,0.318,0.318,0.2826,0.2169,0.2068,0.111,-0.0252,-0.0354,-0.0909,-0.1617,-0.1617,-0.1617,-0.1617,-0.1617,-0.1617,-0.1617,-0.1617,-0.1617,-0.1617,-0.1617,-0.2371,-0.3374,-0.4323,-0.5229,-0.6134,-0.7235,-0.7637,-0.7739,-0.7739,-0.7889,-0.7988,-0.7988,-0.7988,-0.7988,-0.7988,-0.8008,-0.8025,-0.8025,-0.8201,-0.8354,-0.8354,-0.8671,-0.8871,-0.8892,-0.9102,-0.9166,-0.8931,-0.899,-0.896,-0.8743,-0.8811,-0.8885,-0.8885,-0.8885,-0.8885,-0.8885,-0.9158,-0.9323,-0.9379,-0.9596,-0.9761,-0.9761,-0.9761,-0.9761,-0.9761,-1.0091,-1.0268,0.6748,0.6441,0.6312,0.647,0.6465,0.6444,0.6402,0.6623,0.6825,0.0,0.0,0.0,0.0,0.0,0.7254,0.7671,0.7602,0.7634,0.7975,0.7235,0.6848,0.7244,0.6876,0.6616,0.6605,0.6554,0.647,0.647,0.6419,0.6387,0.6387,0.6387,0.6387,0.6387,0.6387,0.6387,0.6387,0.6548,0.6575,0.647,0.5403,0.4875,0.4784,0.3682,0.318,0.318,0.2725,0.232,0.1917,0.1059,0.0252,-0.0455,-0.0859,-0.1263,-0.1615,-0.1598,-0.1582,-0.1568,-0.1568,-0.1568,-0.1568,-0.1568,-0.1568,-0.1666,-0.2203,-0.315,-0.4259,-0.5295,-0.5983,-0.6637,-0.7736,-0.7988,-0.7988,-0.7988,-0.7988,-0.7988,-0.7988,-0.7988,-0.7988,-0.7988,-0.8137,-0.8187,-0.8038,-0.8196,-0.8294,-0.8147,-0.8404,-0.8685,-0.8774,-0.9039,-0.9176,-0.9111,-0.9184,-0.9122,-0.8807,-0.8873,-0.8876,-0.8875,-0.8885,-0.8992,-0.9158,-0.9323,-0.9544,-0.9871,-1.0036,-1.0091,-1.0091,-1.0091,-1.0091,-1.0091,-1.0257,-1.0366,0.671,0.6371,0.6067,0.6071,0.5869,0.5677,0.5836,0.5795,0.5688,0.0,0.0,0.0,0.0,0.6007,0.6227,0.6526,0.6679,0.6956,0.7596,0.7128,0.6941,0.7505,0.6983,0.6489,0.6395,0.6387,0.6387,0.6387,0.6387,0.6387,0.6387,0.6387,0.6387,0.6387,0.6387,0.6387,0.6387,0.6387,0.6337,0.6184,0.5233,0.4734,0.4583,0.3632,0.3079,0.2876,0.2269,0.1811,0.1353,0.01,-0.05,-0.0698,-0.1346,-0.1596,-0.1593,-0.1569,-0.1546,-0.1478,-0.1478,-0.1478,-0.1478,-0.1478,-0.1669,-0.2002,-0.2764,-0.3986,-0.5239,-0.5967,-0.6425,-0.686,-0.777,-0.7988,-0.7988,-0.7988,-0.7988,-0.7988,-0.7988,-0.7988,-0.7988,-0.7988,-0.8237,-0.8333,-0.8137,-0.8333,-0.8382,-0.8137,-0.8333,-0.8525,-0.8603,-0.8921,-0.9122,-0.9198,-0.9298,-0.9235,-0.9014,-0.8912,-0.891,-0.8876,-0.8832,-0.8941,-0.9159,-0.9323,-0.9595,-1.0081,-1.019,-1.0299,-1.0299,-1.0299,-1.0268,-1.0307,-1.0307,-1.0437,0.6131,0.5948,0.5825,0.5559,0.5509,0.5551,0.5675,0.5694,0.0,0.5688,0.0,0.0,0.0,0.6026,0.6298,0.6379,0.6551,0.6592,0.6528,0.6461,0.6458,0.65,0.645,0.6395,0.6387,0.6387,0.6387,0.6387,0.6387,0.6387,0.6387,0.6387,0.6387,0.6387,0.6387,0.6387,0.6387,0.6387,0.6137,0.5634,0.5085,0.4533,0.4033,0.3482,0.2775,0.2068,0.2017,0.1149,-0.0246,-0.0344,-0.0828,-0.1437,-0.1484,-0.1484,-0.1484,-0.153,-0.1528,-0.1478,-0.1478,-0.1478,-0.1478,-0.1478,-0.2145,-0.2906,-0.3002,-0.4375,-0.5942,-0.5989,-0.6759,-0.7597,-0.7917,-0.7988,-0.7988,-0.7988,-0.7988,-0.7988,-0.7988,-0.7988,-0.7988,-0.7988,-0.8237,-0.8382,-0.8382,-0.8577,-0.8676,-0.8432,-0.8577,-0.868,-0.8446,-0.8851,-0.9107,-0.8858,-0.9202,-0.9413,-0.9265,-0.9017,-0.8923,-0.8895,-0.8678,-0.8513,-0.8569,-0.9046,-0.9313,-0.9365,-0.9939,-1.0201,-1.0201,-1.0201,-1.0286,-1.0399,-1.0399,-1.0484,0.5401,0.5323,0.5345,0.5391,0.5404,0.0,0.0,0.5688,0.5688,0.5688,0.5688,0.0,0.0,0.6064,0.6217,0.6354,0.6425,0.6438,0.6392,0.6387,0.6387,0.6387,0.6387,0.6387,0.6387,0.6387,0.6387,0.6387,0.6387,0.6387,0.6387,0.6387,0.6387,0.6387,0.6369,0.6331,0.6331,0.6257,0.5785,0.4964,0.4881,0.4535,0.3981,0.339,0.2726,0.203,0.1469,0.0631,-0.0386,-0.0868,-0.1248,-0.1478,-0.1478,-0.1515,-0.1498,-0.1498,-0.1486,-0.1424,-0.1424,-0.1424,-0.1424,-0.1424,-0.2111,-0.3028,-0.3618,-0.4798,-0.6051,-0.6707,-0.724,-0.7628,-0.7736,-0.7831,-0.7896,-0.7896,-0.7921,-0.7988,-0.7988,-0.7988,-0.7988,-0.7988,-0.8333,-0.8577,-0.8432,-0.8779,-0.8981,-0.8676,-0.8726,-0.8825,-0.8882,-0.9084,-0.9232,-0.9278,-0.9287,-0.9307,-0.9221,-0.8968,-0.8813,-0.8813,-0.864,-0.8587,-0.8741,-0.8951,-0.9167,-0.9384,-0.9746,-0.9955,-0.9955,-1.0112,-1.0249,-1.0266,-1.0266,-1.0298,0.5018,0.5018,0.5072,0.5353,0.0,0.0,0.5634,0.5688,0.5688,0.5688,0.5688,0.575,0.5991,0.0,0.6151,0.635,0.6363,0.6387,0.6387,0.6387,0.6387,0.6387,0.6387,0.6387,0.6387,0.6387,0.6387,0.6387,0.6387,0.6371,0.6385,0.6382,0.6366,0.6328,0.6252,0.6163,0.6018,0.5937,0.5377,0.4381,0.4448,0.4257,0.3714,0.3031,0.2381,0.165,0.0815,0.0,-0.0708,-0.1275,-0.1506,-0.1451,-0.1451,-0.1485,-0.1466,-0.1466,-0.1453,-0.1391,-0.1391,-0.1391,-0.1436,-0.1749,-0.2553,-0.3535,-0.4467,-0.5455,-0.6427,-0.7115,-0.7373,-0.7455,-0.7455,-0.76,-0.7743,-0.7743,-0.7824,-0.785,-0.785,-0.785,-0.7899,-0.7948,-0.8335,-0.8623,-0.8526,-0.8916,-0.9151,-0.8898,-0.8894,-0.8977,-0.908,-0.9133,-0.9282,-0.9579,-0.943,-0.9335,-0.9335,-0.908,-0.8928,-0.8928,-0.8733,-0.8701,-0.8852,-0.8958,-0.9116,-0.933,-0.9535,-0.9638,-0.9741,-0.984,-0.9971,-1.0126,-1.0126,-1.0159,0.5018,0.5018,0.5072,0.5353,0.0,0.0,0.5634,0.5688,0.5688,0.5688,0.5688,0.5723,0.5882,0.6002,0.6124,0.6295,0.6361,0.6384,0.6384,0.6384,0.6384,0.6387,0.6387,0.6387,0.6387,0.6384,0.6384,0.6384,0.6384,0.6385,0.6322,0.6317,0.6259,0.6089,0.6083,0.5894,0.5424,0.5374,0.4899,0.3899,0.3899,0.3616,0.3097,0.2332,0.1571,0.0763,0.0,-0.0754,-0.148,-0.148,-0.1463,-0.1391,-0.1391,-0.1391,-0.1391,-0.1391,-0.1391,-0.1391,-0.1391,-0.1391,-0.1569,-0.2553,-0.3534,-0.4467,-0.5406,-0.6343,-0.7095,-0.7095,-0.7095,-0.7095,-0.7095,-0.7366,-0.7597,-0.7597,-0.7597,-0.76,-0.76,-0.76,-0.7644,-0.7875,-0.8106,-0.8383,-0.866,-0.9088,-0.9304,-0.902,-0.912,-0.913,-0.8825,-0.9031,-0.9282,-0.9579,-0.9579,-0.9579,-0.9579,-0.9331,-0.9187,-0.9187,-0.8977,-0.8825,-0.8825,-0.9031,-0.9187,-0.9187,-0.9187,-0.9335,-0.9579,-0.9335,-0.9468,-0.9884,-0.9884,-0.9981,0.5018,0.5018,0.0,0.5353,0.0,0.0,0.0,0.5688,0.0,0.0,0.5688,0.5723,0.5882,0.5931,0.5996,0.6119,0.6168,0.6219,0.6306,0.632,0.6347,0.6376,0.6387,0.6387,0.6387,0.6366,0.632,0.632,0.6238,0.6176,0.6143,0.614,0.6124,0.6086,0.6002,0.5727,0.5264,0.5189,0.4652,0.3697,0.3697,0.3476,0.3095,0.2301,0.1493,0.0746,-0.0046,-0.0774,-0.1449,-0.1449,-0.1398,-0.1391,-0.1391,-0.1391,-0.1391,-0.1391,-0.1391,-0.1391,-0.1391,-0.1883,-0.251,-0.2823,-0.3981,-0.5317,-0.563,-0.6343,-0.7095,-0.7095,-0.7095,-0.7095,-0.7095,-0.73,-0.7535,-0.764,-0.7887,-0.8059,-0.7875,-0.7966,-0.8059,-0.7919,-0.829,-0.8613,-0.8707,-0.8992,-0.9173,-0.9079,-0.9228,-0.9336,-0.9361,-0.943,-0.9529,-0.9579,-0.9579,-0.9579,-0.9579,-0.9529,-0.948,-0.948,-0.9426,-0.9175,-0.8825,-0.8874,-0.8928,-0.8928,-0.9084,-0.9236,-0.9331,-0.943,-0.9553,-0.9705,-0.9705,-0.9734,0.5018,0.5018,0.0,0.5249,0.5375,0.542,0.5572,0.0,0.0,0.0,0.5688,0.571,0.5822,0.5871,0.5926,0.6002,0.6053,0.6111,0.6187,0.6243,0.6219,0.629,0.6298,0.6298,0.6298,0.6236,0.6243,0.6243,0.6127,0.6064,0.6015,0.6013,0.5994,0.5947,0.5689,0.5332,0.4833,0.4595,0.4076,0.332,0.332,0.3045,0.2559,0.1792,0.1005,0.0274,-0.0451,-0.1031,-0.1391,-0.1391,-0.1391,-0.1391,-0.1391,-0.1391,-0.1391,-0.1391,-0.1391,-0.1391,-0.1391,-0.2062,-0.2956,-0.3357,-0.4469,-0.5764,-0.6163,-0.665,-0.7095,-0.7095,-0.7187,-0.7279,-0.7279,-0.7499,-0.7746,-0.7662,-0.7891,-0.8101,-0.7918,-0.8009,-0.8101,-0.8051,-0.828,-0.8554,-0.8649,-0.8846,-0.8986,-0.8986,-0.9245,-0.9441,-0.9506,-0.9583,-0.9579,-0.9579,-0.9579,-0.9579,-0.9579,-0.9579,-0.9772,-1.0207,-0.9821,-0.962,-0.9756,-0.9369,-0.9126,-0.9126,-0.9183,-0.9236,-0.9381,-0.943,-0.948,-0.9579,-0.9579,-0.9579,0.5018,0.5018,0.5045,0.5159,0.532,0.0,0.5467,0.5575,0.5659,0.5672,0.0,0.5688,0.5688,0.5817,0.5888,0.5888,0.5983,0.6056,0.6067,0.607,0.6072,0.6083,0.6086,0.6086,0.6086,0.6075,0.607,0.607,0.6059,0.6005,0.5893,0.5888,0.5796,0.5646,0.5235,0.4743,0.4255,0.381,0.3365,0.292,0.2829,0.2424,0.166,0.0987,0.0269,-0.0538,-0.1121,-0.1391,-0.1391,-0.1391,-0.1391,-0.1391,-0.1391,-0.1391,-0.1391,-0.1391,-0.148,-0.1524,-0.1524,-0.224,-0.3312,-0.4156,-0.5048,-0.5985,-0.683,-0.7095,-0.7095,-0.7095,-0.7279,-0.7507,-0.7507,-0.7852,-0.8113,-0.768,-0.7768,-0.7944,-0.794,-0.7944,-0.8028,-0.8157,-0.8201,-0.8336,-0.8564,-0.8694,-0.8804,-0.882,-0.9096,-0.9359,-0.9375,-0.9478,-0.953,-0.953,-0.953,-0.953,-0.953,-0.9629,-1.0111,-1.1069,-1.0302,-1.0262,-1.1239,-1.0199,-0.9579,-0.9579,-0.9381,-0.9331,-0.9579,-0.9331,-0.9381,-0.9579,-0.9579,-0.9579,0.5018,0.5018,0.0,0.5159,0.532,0.5418,0.5404,0.5428,0.5474,0.5526,0.5621,0.5688,0.5688,0.571,0.5726,0.5726,0.5748,0.5841,0.5928,0.5942,0.5977,0.6075,0.6086,0.6086,0.6086,0.5999,0.5942,0.5942,0.5858,0.5753,0.5726,0.5726,0.5576,0.5146,0.5055,0.461,0.3765,0.3631,0.3365,0.2875,0.2334,0.166,0.0942,0.0762,0.0,-0.1211,-0.1345,-0.1391,-0.1391,-0.1391,-0.1391,-0.1391,-0.1391,-0.1391,-0.1391,-0.1391,-0.1883,-0.2598,-0.2598,-0.3669,-0.5139,-0.5317,-0.603,-0.683,-0.7051,-0.7095,-0.7095,-0.7095,-0.7279,-0.7507,-0.7507,-0.7852,-0.8157,-0.8069,-0.8252,-0.8388,-0.8201,-0.8296,-0.8388,-0.8245,-0.838,-0.852,-0.8612,-0.8641,-0.8666,-0.88,-0.8885,-0.8986,-0.9133,-0.9185,-0.9214,-0.9214,-0.9214,-0.9214,-0.9214,-0.9862,-1.0421,-1.0651,-1.1118,-1.1609,-1.2067,-1.0467,-0.9579,-0.9579,-0.9529,-0.9529,-0.9579,-0.9529,-0.9529,-0.9579,-0.9579,-0.9579,0.5018,0.0,0.0,0.5159,0.0,0.5214,0.5312,0.5322,0.5301,0.5363,0.5478,0.5621,0.5677,0.5688,0.5688,0.5688,0.5688,0.571,0.5814,0.5822,0.5844,0.5909,0.5918,0.5918,0.5918,0.5858,0.5822,0.5822,0.5723,0.5688,0.5688,0.5688,0.5508,0.501,0.4788,0.4344,0.3587,0.3365,0.2962,0.2379,0.1974,0.1249,0.0221,-0.0134,-0.0713,-0.1414,-0.1414,-0.1362,-0.135,-0.135,-0.135,-0.135,-0.135,-0.135,-0.135,-0.135,-0.197,-0.2868,-0.2868,-0.4168,-0.5849,-0.5764,-0.6432,-0.7279,-0.7143,-0.7095,-0.7139,-0.7234,-0.7503,-0.7724,-0.7808,-0.8116,-0.8384,-0.8384,-0.852,-0.8564,-0.8428,-0.852,-0.8564,-0.8428,-0.852,-0.8612,-0.8612,-0.8612,-0.8641,-0.8686,-0.8767,-0.8852,-0.8954,-0.9043,-0.9096,-0.9096,-0.9512,-0.9786,-0.9786,-1.0611,-1.139,-1.1844,-1.1895,-1.2178,-1.2807,-1.1482,-1.0837,-1.1077,-1.1082,-1.1082,-1.1082,-1.1082,-1.1082,-1.1082,-1.0935,-1.089,0.5018,0.0,0.504,0.5135,0.5086,0.0,0.5135,0.5156,0.5162,0.5181,0.5363,0.5508,0.5607,0.5642,0.5659,0.5659,0.5675,0.5688,0.5688,0.5688,0.5688,0.5688,0.5688,0.5688,0.5688,0.5688,0.5688,0.5688,0.5688,0.5644,0.5597,0.5597,0.5327,0.4788,0.4389,0.3942,0.3499,0.2952,0.2411,0.1785,0.1555,0.0747,-0.0476,-0.11,-0.1362,-0.1382,-0.1382,-0.1369,-0.1305,-0.1305,-0.1305,-0.1305,-0.1305,-0.139,-0.1515,-0.1515,-0.2254,-0.3232,-0.3275,-0.4571,-0.6227,-0.6078,-0.6706,-0.7467,-0.7312,-0.7228,-0.7275,-0.7503,-0.7768,-0.7984,-0.8157,-0.8384,-0.8612,-0.8612,-0.8612,-0.8612,-0.8612,-0.8612,-0.8612,-0.8612,-0.8612,-0.8612,-0.8612,-0.8612,-0.8612,-0.8612,-0.8686,-0.8775,-0.8775,-0.8909,-0.9053,-0.9234,-0.9916,-1.0461,-1.0639,-1.15,-1.2406,-1.321,-1.2631,-1.2648,-1.3546,-1.2785,-1.2588,-1.3082,-1.279,-1.2641,-1.2678,-1.2678,-1.2678,-1.2678,-1.2484,-1.2387,0.5018,0.0,0.5021,0.0,0.5029,0.5021,0.0,0.0,0.5067,0.5167,0.5298,0.5398,0.5457,0.5504,0.5532,0.5532,0.5621,0.5688,0.5688,0.5688,0.5688,0.5688,0.5688,0.5688,0.5688,0.5688,0.5688,0.5688,0.5688,0.5508,0.5099,0.5099,0.4699,0.381,0.3721,0.3454,0.3008,0.2291,0.1876,0.1788,0.0556,-0.0424,-0.1184,-0.1273,-0.1315,-0.1311,-0.1311,-0.1309,-0.1305,-0.1305,-0.1305,-0.1305,-0.1305,-0.1767,-0.2435,-0.2435,-0.3484,-0.5001,-0.5171,-0.5937,-0.694,-0.7243,-0.7461,-0.7619,-0.7764,-0.7808,-0.7808,-0.7856,-0.7984,-0.8157,-0.8201,-0.8384,-0.8612,-0.8612,-0.8612,-0.8612,-0.8612,-0.8612,-0.8612,-0.8612,-0.8612,-0.8612,-0.8612,-0.8612,-0.8612,-0.8612,-0.8629,-0.8645,-0.8645,-0.8665,-0.8943,-0.9724,-0.99,-1.0289,-1.1114,-1.2068,-1.2635,-1.2764,-1.3414,-1.3965,-1.4344,-1.4219,-1.4332,-1.4702,-1.317,-1.248,-1.2678,-1.2678,-1.2678,-1.2678,-1.2678,-1.263,0.5018,0.5018,0.5018,0.0,0.5018,0.5018,0.5018,0.5018,0.5031,0.508,0.5135,0.5214,0.5385,0.5412,0.5447,0.5447,0.5494,0.5529,0.5529,0.5529,0.5529,0.5529,0.5529,0.5529,0.5529,0.5529,0.5529,0.5529,0.5271,0.5056,0.4837,0.4619,0.4189,0.3502,0.3502,0.3072,0.2251,0.1885,0.1365,0.0597,-0.038,-0.1004,-0.1281,-0.1281,-0.1281,-0.1281,-0.1281,-0.1313,-0.1297,-0.1297,-0.1297,-0.1297,-0.1297,-0.1822,-0.2547,-0.2547,-0.3741,-0.5417,-0.5502,-0.6371,-0.7413,-0.7401,-0.7552,-0.7647,-0.76,-0.758,-0.758,-0.7746,-0.7831,-0.7955,-0.8078,-0.8247,-0.841,-0.841,-0.8535,-0.8612,-0.8612,-0.8612,-0.874,-0.9213,-0.8911,-0.874,-0.9257,-0.8911,-0.8612,-0.8612,-0.8612,-0.8612,-0.8612,-0.9043,-0.9471,-0.9859,-1.0852,-1.1623,-1.2057,-1.2918,-1.3483,-1.3483,-1.387,-1.4142,-1.4269,-1.4282,-1.4416,-1.471,-1.4127,-1.3863,-1.3979,-1.3979,-1.3979,-1.3979,-1.3839,-1.3746,0.0,0.0,0.5018,0.5018,0.5018,0.5018,0.0,0.0,0.5018,0.5018,0.5018,0.5069,0.5246,0.5344,0.5364,0.5364,0.5391,0.541,0.541,0.541,0.541,0.541,0.541,0.541,0.541,0.541,0.5368,0.5243,0.491,0.462,0.4367,0.4072,0.361,0.2982,0.2982,0.2478,0.1471,0.1296,0.0623,-0.0578,-0.1076,-0.1313,-0.1291,-0.1291,-0.1291,-0.1291,-0.1291,-0.1318,-0.1296,-0.1296,-0.1296,-0.1335,-0.1532,-0.2118,-0.286,-0.3132,-0.4309,-0.5811,-0.5891,-0.6645,-0.757,-0.7453,-0.7546,-0.7677,-0.7514,-0.7484,-0.7525,-0.7732,-0.7769,-0.781,-0.7971,-0.8113,-0.8219,-0.8219,-0.8325,-0.8537,-0.8851,-0.8911,-0.917,-1.0077,-0.9733,-0.9471,-1.0159,-0.9733,-0.9301,-0.9301,-0.9301,-0.9301,-0.9301,-0.9859,-1.0332,-1.0593,-1.1843,-1.279,-1.3045,-1.3695,-1.4088,-1.4088,-1.4088,-1.4088,-1.4088,-1.4088,-1.4188,-1.4402,-1.4629,-1.4861,-1.5008,-1.5008,-1.5008,-1.5008,-1.4777,-1.4681,0.0,0.5018,0.0,0.5018,0.5018,0.5018,0.0,0.5018,0.5018,0.5018,0.5018,0.5021,0.5031,0.5124,0.5197,0.5197,0.5333,0.541,0.541,0.541,0.541,0.541,0.541,0.541,0.541,0.541,0.5204,0.4787,0.4703,0.4325,0.3528,0.3442,0.294,0.1807,0.1807,0.1471,0.084,0.0206,-0.0484,-0.1262,-0.1301,-0.13,-0.1299,-0.1299,-0.1299,-0.1299,-0.1299,-0.1298,-0.1296,-0.1296,-0.1296,-0.1375,-0.2158,-0.2978,-0.383,-0.4802,-0.5741,-0.6613,-0.6961,-0.7161,-0.7278,-0.7636,-0.7772,-0.7805,-0.7922,-0.7971,-0.7971,-0.7975,-0.7975,-0.7971,-0.8012,-0.802,-0.8028,-0.8028,-0.8032,-0.8342,-0.9559,-0.9816,-1.0115,-1.1063,-1.1192,-1.1154,-1.1235,-1.1192,-1.1154,-1.1154,-1.1154,-1.1154,-1.1154,-1.1198,-1.158,-1.2448,-1.2619,-1.3052,-1.3955,-1.4088,-1.4088,-1.4088,-1.4088,-1.4088,-1.4088,-1.4088,-1.4095,-1.4108,-1.4122,-1.4409,-1.5008,-1.5008,-1.5008,-1.5008,-1.5008,-1.4963,0.0,0.0,0.0,0.4863,0.4841,0.4821,0.4821,0.4821,0.4806,0.4847,0.4863,0.4884,0.5002,0.505,0.5078,0.5078,0.5113,0.5143,0.5143,0.5143,0.5143,0.5143,0.5143,0.5143,0.5143,0.5143,0.4983,0.4539,0.4259,0.3859,0.3259,0.2614,0.205,0.1649,0.1207,0.0684,0.008,-0.0559,-0.103,-0.1296,-0.1296,-0.1296,-0.1296,-0.1296,-0.1296,-0.1296,-0.1296,-0.1296,-0.1296,-0.1296,-0.1609,-0.208,-0.2393,-0.3444,-0.4802,-0.5151,-0.6009,-0.6988,-0.7146,-0.7296,-0.7419,-0.7561,-0.762,-0.7633,-0.7655,-0.7675,-0.7675,-0.7675,-0.7675,-0.7675,-0.7675,-0.8149,-0.8787,-0.9392,-0.9145,-0.9073,-1.0124,-1.0065,-1.0251,-1.1895,-1.1714,-1.1499,-1.21,-1.1714,-1.1284,-1.1284,-1.1284,-1.1284,-1.1284,-1.1843,-1.2314,-1.2662,-1.3222,-1.3737,-1.4088,-1.4088,-1.4088,-1.4088,-1.4088,-1.4088,-1.4088,-1.4088,-1.4088,-1.4088,-1.4088,-1.4188,-1.4402,-1.4402,-1.4402,-1.4402,-1.4402,-1.4402,0.4647,0.0,0.0,0.0,0.475,0.469,0.469,0.469,0.4712,0.4757,0.4773,0.4798,0.4879,0.4896,0.4923,0.5004,0.5018,0.5018,0.5018,0.5018,0.5018,0.5018,0.5018,0.5018,0.5018,0.5018,0.4781,0.4229,0.3759,0.3214,0.2628,0.1764,0.1176,0.098,0.0314,-0.0236,-0.0628,-0.1061,-0.1296,-0.1296,-0.1296,-0.1296,-0.1296,-0.1296,-0.1296,-0.1296,-0.1296,-0.1296,-0.1335,-0.161,-0.2002,-0.2549,-0.321,-0.4219,-0.5345,-0.5774,-0.6479,-0.7223,-0.7296,-0.7373,-0.7484,-0.7484,-0.7484,-0.7484,-0.7484,-0.7484,-0.7484,-0.7484,-0.7484,-0.7557,-0.7825,-0.8605,-0.9471,-1.009,-0.981,-0.9717,-1.067,-1.0437,-1.0502,-1.2259,-1.2312,-1.23,-1.3033,-1.2662,-1.2229,-1.2229,-1.2229,-1.2229,-1.2229,-1.279,-1.3179,-1.3179,-1.3743,-1.4088,-1.4088,-1.4088,-1.4088,-1.4088,-1.4088,-1.4088,-1.4088,-1.4088,-1.4088,-1.4088,-1.4088,-1.4088,-1.4088,-1.4088,-1.4088,-1.4088,-1.4088,-1.4039,0.0,0.0,0.0,0.4576,0.4681,0.4679,0.4679,0.4679,0.4643,0.4645,0.4648,0.4648,0.4651,0.4651,0.4693,0.4928,0.4971,0.5012,0.5012,0.5015,0.5018,0.5018,0.5018,0.5018,0.5018,0.4979,0.4626,0.3841,0.3132,0.2427,0.1607,0.0942,0.0314,-0.0314,-0.0943,-0.1296,-0.1296,-0.1296,-0.1296,-0.1296,-0.1296,-0.1296,-0.1296,-0.1296,-0.1296,-0.1296,-0.1335,-0.1335,-0.1414,-0.2198,-0.255,-0.2782,-0.4569,-0.5306,-0.55,-0.6753,-0.7223,-0.7219,-0.7446,-0.7484,-0.7484,-0.7484,-0.7484,-0.7484,-0.7484,-0.7484,-0.7484,-0.7484,-0.7522,-0.771,-0.8546,-0.9339,-0.9933,-0.997,-0.997,-1.0224,-1.1278,-1.1022,-1.0983,-1.2187,-1.3041,-1.3686,-1.4021,-1.4075,-1.4075,-1.4088,-1.4088,-1.4088,-1.4088,-1.4088,-1.4088,-1.4088,-1.4088,-1.4088,-1.4088,-1.4088,-1.4088,-1.4088,-1.4088,-1.4088,-1.4088,-1.4088,-1.4088,-1.4088,-1.4088,-1.4088,-1.4088,-1.4088,-1.4088,-1.4088,-1.4088,-1.3955,0.3659,0.0,0.0,0.0,0.0,0.0,0.4361,0.4015,0.3655,0.3729,0.3321,0.3164,0.3804,0.3455,0.3289,0.3891,0.4488,0.4847,0.4847,0.4922,0.5018,0.5018,0.5018,0.5018,0.5018,0.4462,0.3834,0.313,0.2349,0.1607,0.0903,0.0275,-0.0353,-0.1021,-0.1218,-0.1296,-0.1296,-0.1296,-0.1296,-0.1296,-0.1296,-0.1296,-0.1296,-0.1296,-0.1296,-0.1335,-0.1923,-0.2158,-0.2198,-0.2393,-0.3288,-0.4569,-0.5112,-0.5851,-0.671,-0.7065,-0.7296,-0.7407,-0.7484,-0.7484,-0.7484,-0.7484,-0.7484,-0.7484,-0.7484,-0.7484,-0.7484,-0.7484,-0.7902,-0.8699,-1.0094,-1.0582,-1.0913,-1.1515,-1.1174,-1.0862,-1.1164,-1.1085,-1.1352,-1.2703,-1.3167,-1.3387,-1.3673,-1.3726,-1.3841,-1.4055,-1.4088,-1.4088,-1.4088,-1.4088,-1.4088,-1.4088,-1.4088,-1.4088,-1.4088,-1.4088,-1.4088,-1.4088,-1.4088,-1.4088,-1.4088,-1.4088,-1.4088,-1.4088,-1.4088,-1.4088,-1.4088,-1.4088,-1.4088,-1.4088,-1.4088,-1.4046,0.2478,0.2702,0.2787,0.292,0.0,0.0,0.3322,0.3017,0.2762,0.2841,0.2508,0.2382,0.2877,0.264,0.2463,0.2919,0.3416,0.3784,0.3823,0.3918,0.3967,0.3968,0.3975,0.3951,0.3951,0.3521,0.2973,0.2349,0.1606,0.0784,-0.0157,-0.051,-0.0904,-0.1296,-0.1296,-0.1296,-0.1296,-0.1296,-0.129,-0.1277,-0.1277,-0.127,-0.1258,-0.1258,-0.1409,-0.1713,-0.2169,-0.2737,-0.3383,-0.3417,-0.4182,-0.5345,-0.5812,-0.6475,-0.7223,-0.7296,-0.7407,-0.7484,-0.7484,-0.7484,-0.7484,-0.7484,-0.7484,-0.7484,-0.7484,-0.7748,-0.8016,-0.8016,-0.8813,-0.9906,-1.085,-1.1335,-1.1706,-1.2194,-1.1929,-1.1595,-1.1595,-1.1595,-1.1765,-1.2369,-1.2778,-1.3113,-1.3373,-1.342,-1.352,-1.3861,-1.3901,-1.3948,-1.4075,-1.4088,-1.4088,-1.4088,-1.4088,-1.4088,-1.4088,-1.4088,-1.4088,-1.4088,-1.4088,-1.4088,-1.4088,-1.4088,-1.4088,-1.4088,-1.4088,-1.4088,-1.4088,-1.4088,-1.4088,-1.4088,-1.4088,-1.4088,0.1114,0.1503,0.1811,0.1743,0.2214,0.0,0.2213,0.2146,0.2181,0.2213,0.2114,0.2013,0.2079,0.2047,0.198,0.198,0.209,0.2249,0.2455,0.2507,0.2495,0.251,0.2483,0.2505,0.2518,0.2406,0.2138,0.1522,0.0821,-0.0118,-0.1257,-0.1296,-0.1295,-0.1291,-0.1291,-0.129,-0.1286,-0.1286,-0.1272,-0.1207,-0.1207,-0.123,-0.1312,-0.1312,-0.1675,-0.2328,-0.2436,-0.3272,-0.4648,-0.4862,-0.5135,-0.5535,-0.6517,-0.7034,-0.7234,-0.7437,-0.7484,-0.7484,-0.7484,-0.7484,-0.7484,-0.7484,-0.7484,-0.7484,-0.7484,-0.8055,-0.8742,-0.8927,-0.9981,-1.1111,-1.1223,-1.1744,-1.2305,-1.2305,-1.2305,-1.2305,-1.2305,-1.2305,-1.2155,-1.1719,-1.2235,-1.2869,-1.3146,-1.3199,-1.3253,-1.3507,-1.3553,-1.366,-1.4001,-1.4041,-1.4048,-1.4082,-1.4088,-1.4088,-1.4088,-1.4088,-1.4088,-1.4088,-1.4088,-1.4075,-1.4041,-1.4041,-1.4021,-1.3995,-1.4021,-1.4041,-1.4041,-1.4075,-1.4088,-1.4088,-1.4088,-1.4088,0.1159,0.1349,0.1579,0.2316,0.2584,0.0,0.332,0.2986,0.2651,0.2915,0.208,0.1444,0.2013,0.1644,0.131,0.131,0.1317,0.1573,0.2248,0.2442,0.2516,0.2491,0.2494,0.2498,0.251,0.1921,0.1341,0.0835,-0.0271,-0.1021,-0.1296,-0.1296,-0.1285,-0.1221,-0.1221,-0.1209,-0.1221,-0.1221,-0.1218,-0.1212,-0.1212,-0.1501,-0.2001,-0.2001,-0.24,-0.3125,-0.3815,-0.4357,-0.4823,-0.5551,-0.5981,-0.6226,-0.6726,-0.7007,-0.7218,-0.7431,-0.7484,-0.7484,-0.7484,-0.7484,-0.7484,-0.7484,-0.7484,-0.7484,-0.7484,-0.8055,-0.8965,-1.0282,-1.085,-1.126,-1.1892,-1.2187,-1.2305,-1.2305,-1.2305,-1.2305,-1.2305,-1.2305,-1.2318,-1.2371,-1.254,-1.2709,-1.3008,-1.3018,-1.3088,-1.3247,-1.3293,-1.34,-1.3653,-1.3686,-1.378,-1.4062,-1.4088,-1.4088,-1.4088,-1.4088,-1.4088,-1.4088,-1.4088,-1.3981,-1.37,-1.3686,-1.358,-1.3387,-1.3607,-1.3686,-1.3693,-1.3968,-1.4088,-1.4088,-1.4088,-1.4088,0.0,0.0302,0.0538,0.0738,0.1074,0.0,0.0,0.131,0.1143,0.1309,0.0806,0.0437,0.084,0.0639,0.0438,0.0539,0.0539,0.0676,0.1096,0.1216,0.1268,0.1249,0.1251,0.1257,0.1236,0.0874,0.0476,0.0037,-0.0789,-0.125,-0.125,-0.125,-0.1243,-0.1189,-0.1189,-0.1182,-0.1203,-0.1203,-0.1195,-0.1144,-0.1536,-0.1844,-0.2167,-0.2516,-0.3109,-0.3839,-0.4365,-0.4815,-0.5262,-0.5889,-0.6199,-0.6329,-0.6618,-0.6904,-0.7098,-0.7224,-0.7253,-0.729,-0.7619,-0.7762,-0.7803,-0.813,-0.8235,-0.8235,-0.8235,-0.8933,-0.9955,-1.1168,-1.1678,-1.1929,-1.2231,-1.2378,-1.2415,-1.2335,-1.2378,-1.2452,-1.2452,-1.2526,-1.2673,-1.2856,-1.29,-1.2912,-1.2947,-1.2862,-1.2852,-1.3081,-1.3206,-1.3282,-1.3394,-1.3501,-1.3595,-1.3634,-1.3647,-1.3647,-1.3647,-1.3647,-1.3647,-1.3647,-1.3647,-1.3581,-1.3393,-1.3387,-1.336,-1.3213,-1.3313,-1.3387,-1.3387,-1.3581,-1.3801,-1.4088,-1.4088,-1.4088,-0.1143,-0.0672,-0.037,-0.0706,-0.0336,0.0,0.0,0.0,0.0,-0.0101,-0.0202,-0.0269,-0.0168,-0.0135,-0.0135,-0.0101,0.0,0.0067,-0.0034,-0.0067,-0.0068,0.0,0.0,0.0,0.0,-0.0072,-0.0253,-0.0579,-0.0981,-0.1203,-0.1203,-0.1203,-0.12,-0.1194,-0.1194,-0.1191,-0.1185,-0.1185,-0.1137,-0.1112,-0.184,-0.2228,-0.2347,-0.3082,-0.3818,-0.4553,-0.4722,-0.5153,-0.5749,-0.6079,-0.6313,-0.6473,-0.6704,-0.6868,-0.6978,-0.7291,-0.7304,-0.7304,-0.7969,-0.8176,-0.8282,-0.884,-0.9015,-0.9015,-0.919,-0.9896,-1.0819,-1.1642,-1.213,-1.2428,-1.2283,-1.2396,-1.251,-1.2364,-1.2485,-1.2673,-1.2673,-1.279,-1.2973,-1.3156,-1.3156,-1.3083,-1.2973,-1.2826,-1.2792,-1.2958,-1.3113,-1.3231,-1.3236,-1.3342,-1.3395,-1.3318,-1.3286,-1.3286,-1.3325,-1.3325,-1.3325,-1.3325,-1.3325,-1.3259,-1.3166,-1.3066,-1.3039,-1.3039,-1.3093,-1.312,-1.312,-1.318,-1.3487,-1.4001,-1.4001,-1.4035,-0.0975,-0.0571,-0.0202,0.0202,0.037,0.0504,0.0807,0.0,0.1008,0.1308,0.0,0.0403,0.0403,0.0,0.0,-0.0337,0.0067,0.0269,-0.0202,-0.0371,-0.0337,-0.0034,0.0,0.0,0.0,-0.0313,-0.0563,-0.0598,-0.0971,-0.1203,-0.1203,-0.1203,-0.119,-0.1127,-0.1126,-0.1113,-0.112,-0.112,-0.1118,-0.1115,-0.1788,-0.2455,-0.3115,-0.3851,-0.4652,-0.5448,-0.5481,-0.5749,-0.6145,-0.6178,-0.6671,-0.7382,-0.7513,-0.7233,-0.6914,-0.8284,-0.8388,-0.7969,-0.8664,-0.8875,-0.891,-0.898,-0.9015,-0.912,-0.9863,-1.0269,-1.0676,-1.1511,-1.1847,-1.1971,-1.193,-1.2172,-1.2416,-1.238,-1.2625,-1.2863,-1.2863,-1.2863,-1.2973,-1.3156,-1.3046,-1.2973,-1.3119,-1.3163,-1.3097,-1.2942,-1.2912,-1.3024,-1.3255,-1.3137,-1.324,-1.3671,-1.3581,-1.3541,-1.3699,-1.3738,-1.3738,-1.3738,-1.3738,-1.3535,-1.3036,-1.262,-1.2405,-1.2405,-1.2703,-1.2837,-1.2837,-1.3073,-1.338,-1.3653,-1.3653,-1.3834,-0.1143,-0.1142,-0.1208,-0.0571,-0.0705,-0.0872,-0.0302,-0.0168,-0.0134,0.0,0.0,0.0,0.0,0.0,0.0,0.0,-0.0269,-0.0168,-0.0371,-0.0472,-0.0371,-0.0034,-0.0169,-0.0303,-0.0303,-0.0443,-0.0582,-0.0719,-0.0969,-0.1149,-0.1149,-0.1149,-0.1142,-0.1095,-0.1095,-0.1089,-0.1109,-0.1478,-0.1678,-0.1678,-0.2848,-0.3551,-0.3851,-0.4683,-0.5249,-0.5617,-0.5848,-0.6046,-0.6243,-0.6736,-0.7162,-0.7596,-0.8406,-0.8344,-0.783,-0.8482,-0.8546,-0.8384,-0.9047,-0.928,-0.9353,-0.9784,-0.9922,-1.0021,-1.0417,-1.0731,-1.1002,-1.1477,-1.1836,-1.2037,-1.1935,-1.2101,-1.2234,-1.213,-1.2473,-1.2777,-1.2777,-1.3028,-1.3273,-1.3346,-1.3309,-1.3273,-1.3346,-1.3273,-1.3156,-1.3083,-1.3156,-1.3206,-1.3075,-1.3089,-1.3175,-1.3271,-1.3202,-1.3209,-1.3285,-1.3285,-1.3285,-1.3285,-1.3285,-1.3184,-1.294,-1.2742,-1.2636,-1.2636,-1.2803,-1.2865,-1.2865,-1.3402,-1.3744,-1.3935,-1.3539,-1.346,-0.1813,-0.1879,-0.2013,-0.1412,-0.1545,-0.1712,-0.1311,-0.1176,-0.1109,-0.1109,-0.1109,0.0,0.0,0.0,-0.0842,-0.0674,0.0,-0.064,-0.0607,-0.064,-0.0539,-0.0169,-0.0337,-0.0506,-0.0506,-0.0539,-0.064,-0.0776,-0.0976,-0.1109,-0.1109,-0.1109,-0.1109,-0.1109,-0.1276,-0.1377,-0.1377,-0.2047,-0.2414,-0.2414,-0.3751,-0.4389,-0.4422,-0.5286,-0.5716,-0.5782,-0.6272,-0.6507,-0.6605,-0.7423,-0.7879,-0.8134,-0.9134,-0.9326,-0.9069,-0.9069,-0.8941,-0.8877,-0.9556,-0.9811,-0.9875,-1.0428,-1.0624,-1.0681,-1.0776,-1.0983,-1.1258,-1.1388,-1.1713,-1.199,-1.185,-1.1981,-1.2119,-1.1977,-1.2287,-1.2661,-1.2661,-1.3019,-1.336,-1.336,-1.3433,-1.3492,-1.3492,-1.3382,-1.3273,-1.3273,-1.3419,-1.3382,-1.3083,-1.3302,-1.3477,-1.3361,-1.3499,-1.3644,-1.3644,-1.368,-1.368,-1.368,-1.3433,-1.3368,-1.3615,-1.3361,-1.3324,-1.3535,-1.3324,-1.3324,-1.3535,-1.407,-1.4374,-1.4475,-1.4028,-1.3896,-0.308,-0.2614,-0.2249,-0.1714,-0.1344,-0.121,-0.1513,-0.1344,-0.1109,-0.1109,-0.1109,-0.1109,-0.1076,-0.1076,-0.1076,-0.1076,-0.1076,0.0,0.0,-0.0942,-0.0942,-0.0539,-0.0506,-0.0506,-0.0506,-0.0674,-0.0809,-0.0809,-0.0976,-0.1109,-0.1109,-0.1109,-0.1109,-0.1109,-0.1745,-0.2079,-0.2079,-0.2781,-0.3149,-0.3182,-0.412,-0.4592,-0.4625,-0.5491,-0.5984,-0.621,-0.6892,-0.7284,-0.7521,-0.8199,-0.8839,-0.9454,-0.9486,-0.9907,-1.053,-1.053,-1.0072,-0.9582,-1.0301,-1.0561,-1.0561,-1.0593,-1.0688,-1.08,-1.0807,-1.1028,-1.1286,-1.1286,-1.1457,-1.1621,-1.1621,-1.1823,-1.2018,-1.2018,-1.2266,-1.2499,-1.2499,-1.2755,-1.3023,-1.3023,-1.3279,-1.3492,-1.3492,-1.3492,-1.3492,-1.3492,-1.3492,-1.3492,-1.3499,-1.3956,-1.4338,-1.4537,-1.5065,-1.5463,-1.5604,-1.5604,-1.5604,-1.5604,-1.476,-1.4617,-1.5392,-1.4466,-1.4322,-1.5128,-1.4358,-1.4358,-1.5128,-1.5163,-1.5171,-1.5152,-1.5397,-1.5578,-0.358,-0.3713,-0.3816,-0.3147,-0.3013,-0.3013,-0.298,-0.2181,-0.168,-0.2517,-0.1847,-0.1377,-0.2313,-0.2079,-0.1913,-0.2414,-0.248,-0.2482,0.0,-0.2449,-0.2449,-0.2315,-0.1644,-0.131,-0.1545,-0.1545,-0.1578,-0.1647,-0.1311,-0.1109,-0.1109,-0.1511,-0.1779,-0.1779,-0.2447,-0.2815,-0.2815,-0.3551,-0.3918,-0.3951,-0.4818,-0.5253,-0.5286,-0.6305,-0.6793,-0.6924,-0.7707,-0.8096,-0.8199,-0.8871,-0.9294,-0.955,-1.004,-1.0396,-1.0593,-1.0593,-1.0428,-1.0263,-1.0523,-1.0593,-1.0624,-1.0713,-1.0776,-1.0832,-1.1052,-1.1209,-1.1334,-1.1466,-1.156,-1.1591,-1.1591,-1.1672,-1.1753,-1.1753,-1.197,-1.2171,-1.2171,-1.2419,-1.2711,-1.2965,-1.3497,-1.3818,-1.3564,-1.3912,-1.4049,-1.3564,-1.3492,-1.3666,-1.4158,-1.4394,-1.4716,-1.5286,-1.5498,-1.564,-1.571,-1.571,-1.571,-1.571,-1.5392,-1.5357,-1.5604,-1.5321,-1.5251,-1.5525,-1.5242,-1.5242,-1.5525,-1.6053,-1.6271,-1.614,-1.6869,-1.6564,-0.4348,-0.4547,-0.4749,-0.4079,-0.3913,-0.3913,-0.3913,-0.3115,-0.2582,-0.3416,-0.2714,-0.2248,-0.3213,-0.2882,-0.2681,-0.3218,-0.3251,-0.3215,0.0,-0.3215,-0.3215,-0.3215,-0.2579,-0.2245,-0.248,-0.2414,-0.2414,-0.248,-0.2079,-0.1846,-0.1846,-0.2248,-0.248,-0.248,-0.3215,-0.3582,-0.3582,-0.432,-0.4688,-0.4688,-0.5613,-0.6075,-0.6104,-0.7181,-0.767,-0.7702,-0.8517,-0.8844,-0.8909,-0.962,-0.9907,-0.9939,-1.0396,-1.0593,-1.0593,-1.0593,-1.0593,-1.0593,-1.0593,-1.0618,-1.0688,-1.0776,-1.087,-1.1021,-1.124,-1.1334,-1.1435,-1.156,-1.1591,-1.1591,-1.1591,-1.1591,-1.1591,-1.1591,-1.1721,-1.1867,-1.1867,-1.2091,-1.2375,-1.2587,-1.3439,-1.4017,-1.3765,-1.4423,-1.4645,-1.3637,-1.3702,-1.4049,-1.453,-1.51,-1.5596,-1.6097,-1.6341,-1.6524,-1.6524,-1.6271,-1.6237,-1.649,-1.6271,-1.6237,-1.6524,-1.6271,-1.6237,-1.6524,-1.6271,-1.6271,-1.6524,-1.7044,-1.7226,-1.7097,-1.7725,-1.7364]},{"header":{"parameterUnit":"m.s-1","parameterCategory":1,"la1":30.6,"la2":29.2853,"lo1":-89.7004,"lo2":-87.6739,"dy":0.0162,"dx":0.0183,"nx":112,"ny":82,"refTime":"2023-08-29T06:00:00:Z","depth":0,"parameterNumber":3,"parameterNumberName":"V-component_of_WINDS"},"data":[0.0,0.0,0.0,0.0,0.0,0.0,0.0,0.0,0.0,0.0,0.0,0.0,0.0,0.0,0.0,0.0,0.0,0.0,0.0,0.0,0.0,0.0,0.0,0.0,0.0,0.0,0.0,0.0,0.0,0.0,0.0,0.0,0.0,0.0,0.0,0.0,0.0,0.0,0.0,0.0,0.0,0.0,0.0,0.0,0.0,0.0,0.0,0.0,0.0,0.0,0.0,0.0,0.0,0.0,0.0,0.0,0.0,0.0,0.0,0.0,0.0,0.0,0.0,0.0,0.0,0.0,0.0,0.0,0.0,0.0,0.0,0.0,0.0,0.0,0.0,0.0,0.0,0.0,0.0,0.0,0.0,0.0,0.0,0.0,0.0,0.0,0.0,0.0,0.0,0.0,4.1334,4.1281,4.1825,4.2492,4.3234,4.3349,4.3425,4.3492,0.0,0.0,0.0,0.0,0.0,0.0,0.0,0.0,0.0,0.0,0.0,0.0,0.0,0.0,0.0,0.0,0.0,0.0,0.0,0.0,0.0,0.0,0.0,0.0,0.0,0.0,0.0,0.0,0.0,0.0,0.0,0.0,0.0,0.0,0.0,0.0,0.0,0.0,0.0,0.0,0.0,0.0,0.0,0.0,0.0,0.0,0.0,0.0,0.0,0.0,0.0,0.0,0.0,0.0,0.0,0.0,0.0,0.0,0.0,0.0,0.0,0.0,0.0,0.0,0.0,0.0,0.0,0.0,0.0,0.0,0.0,0.0,0.0,0.0,0.0,0.0,0.0,0.0,0.0,0.0,0.0,0.0,0.0,0.0,0.0,0.0,0.0,0.0,0.0,0.0,0.0,0.0,0.0,0.0,0.0,0.0,0.0,0.0,0.0,0.0,0.0,0.0,0.0,0.0,4.301,4.2943,4.3047,4.3163,4.3286,4.3318,4.3634,4.4363,0.0,0.0,0.0,0.0,0.0,0.0,0.0,0.0,0.0,0.0,0.0,0.0,0.0,0.0,0.0,0.0,0.0,0.0,0.0,0.0,0.0,0.0,0.0,0.0,0.0,0.0,0.0,0.0,0.0,0.0,0.0,0.0,0.0,0.0,0.0,0.0,0.0,0.0,0.0,0.0,0.0,0.0,0.0,0.0,0.0,0.0,0.0,0.0,0.0,0.0,0.0,0.0,0.0,0.0,0.0,0.0,0.0,0.0,0.0,0.0,0.0,0.0,0.0,0.0,0.0,0.0,0.0,0.0,0.0,0.0,0.0,0.0,0.0,0.0,0.0,0.0,0.0,0.0,0.0,0.0,0.0,0.0,0.0,0.0,0.0,0.0,0.0,0.0,0.0,0.0,0.0,0.0,0.0,0.0,0.0,0.0,0.0,0.0,0.0,0.0,0.0,0.0,0.0,4.2928,4.3566,4.3956,4.4001,4.4182,4.4628,4.4679,4.486,4.5228,4.4975,0.0,0.0,0.0,0.0,0.0,0.0,0.0,0.0,0.0,0.0,0.0,0.0,0.0,0.0,0.0,0.0,0.0,0.0,0.0,0.0,0.0,0.0,0.0,0.0,0.0,0.0,0.0,0.0,0.0,0.0,0.0,0.0,0.0,0.0,0.0,0.0,0.0,0.0,0.0,0.0,0.0,0.0,0.0,0.0,0.0,0.0,0.0,0.0,0.0,0.0,0.0,0.0,0.0,0.0,0.0,0.0,0.0,0.0,0.0,0.0,0.0,0.0,0.0,0.0,0.0,0.0,0.0,0.0,0.0,0.0,0.0,0.0,0.0,0.0,0.0,0.0,0.0,0.0,0.0,0.0,0.0,0.0,0.0,0.0,0.0,0.0,0.0,0.0,0.0,0.0,0.0,0.0,0.0,0.0,0.0,0.0,0.0,0.0,0.0,0.0,0.0,0.0,4.383,4.3978,4.4801,4.4891,4.5142,4.5775,4.5867,4.5874,4.5821,4.5918,0.0,0.0,0.0,0.0,0.0,0.0,0.0,0.0,0.0,0.0,0.0,0.0,0.0,0.0,0.0,0.0,0.0,0.0,0.0,0.0,0.0,0.0,0.0,0.0,0.0,0.0,0.0,0.0,0.0,0.0,0.0,0.0,0.0,0.0,0.0,0.0,0.0,0.0,0.0,0.0,0.0,0.0,0.0,0.0,0.0,0.0,0.0,0.0,0.0,0.0,0.0,0.0,0.0,0.0,0.0,0.0,0.0,0.0,0.0,0.0,0.0,0.0,0.0,0.0,0.0,0.0,0.0,0.0,0.0,0.0,0.0,0.0,0.0,0.0,0.0,0.0,0.0,0.0,0.0,0.0,0.0,0.0,0.0,0.0,0.0,0.0,0.0,0.0,0.0,0.0,0.0,0.0,0.0,0.0,0.0,0.0,0.0,0.0,0.0,0.0,0.0,0.0,4.5096,4.482,4.5633,4.5729,4.5763,4.5874,4.59,4.59,4.5893,4.5893,0.0,0.0,0.0,0.0,0.0,0.0,0.0,0.0,0.0,0.0,0.0,0.0,0.0,0.0,0.0,0.0,0.0,0.0,0.0,0.0,0.0,0.0,0.0,0.0,0.0,0.0,0.0,0.0,0.0,0.0,0.0,0.0,0.0,0.0,0.0,0.0,0.0,0.0,0.0,0.0,0.0,0.0,0.0,0.0,0.0,0.0,0.0,0.0,0.0,0.0,0.0,0.0,0.0,0.0,0.0,0.0,0.0,0.0,0.0,0.0,0.0,0.0,0.0,0.0,0.0,0.0,0.0,0.0,0.0,0.0,0.0,0.0,0.0,0.0,0.0,0.0,0.0,0.0,0.0,0.0,0.0,0.0,0.0,0.0,0.0,0.0,0.0,0.0,0.0,0.0,0.0,0.0,0.0,0.0,0.0,0.0,0.0,0.0,0.0,0.0,0.0,0.0,4.571,4.5561,4.5828,4.586,4.5874,4.5906,4.595,4.5931,4.5893,0.0,0.0,0.0,0.0,0.0,0.0,0.0,0.0,0.0,0.0,0.0,0.0,0.0,0.0,0.0,0.0,0.0,0.0,0.0,0.0,0.0,0.0,0.0,0.0,0.0,0.0,0.0,0.0,0.0,0.0,0.0,0.0,0.0,0.0,0.0,0.0,0.0,0.0,0.0,0.0,0.0,0.0,0.0,0.0,0.0,0.0,0.0,0.0,0.0,0.0,0.0,0.0,0.0,0.0,0.0,0.0,0.0,0.0,0.0,0.0,0.0,0.0,0.0,0.0,0.0,0.0,0.0,0.0,0.0,0.0,0.0,0.0,0.0,0.0,0.0,0.0,0.0,0.0,0.0,0.0,0.0,0.0,0.0,0.0,0.0,0.0,0.0,0.0,0.0,0.0,0.0,0.0,0.0,0.0,0.0,0.0,0.0,0.0,0.0,0.0,0.0,0.0,4.6027,4.5993,4.595,4.5906,4.5893,4.5912,4.5923,4.5966,4.5986,4.5929,0.0,0.0,0.0,0.0,0.0,0.0,0.0,0.0,0.0,0.0,0.0,0.0,0.0,0.0,0.0,0.0,0.0,0.0,0.0,0.0,0.0,0.0,0.0,0.0,0.0,0.0,0.0,0.0,0.0,0.0,0.0,0.0,0.0,0.0,0.0,0.0,0.0,0.0,0.0,0.0,0.0,0.0,0.0,0.0,0.0,0.0,0.0,0.0,0.0,0.0,0.0,0.0,0.0,0.0,0.0,0.0,0.0,0.0,0.0,0.0,0.0,0.0,0.0,0.0,0.0,0.0,0.0,0.0,0.0,0.0,0.0,0.0,0.0,0.0,0.0,0.0,0.0,0.0,0.0,0.0,0.0,0.0,0.0,0.0,0.0,0.0,0.0,0.0,0.0,0.0,0.0,0.0,0.0,0.0,0.0,0.0,0.0,0.0,0.0,0.0,0.0,0.0,4.6098,4.5986,4.5892,4.5892,4.5892,4.5923,4.5991,4.5997,4.5997,0.0,0.0,0.0,0.0,0.0,0.0,0.0,0.0,0.0,0.0,0.0,0.0,0.0,0.0,0.0,0.0,0.0,0.0,0.0,0.0,0.0,0.0,0.0,0.0,0.0,0.0,0.0,0.0,0.0,0.0,0.0,0.0,0.0,0.0,0.0,0.0,0.0,0.0,0.0,0.0,0.0,0.0,0.0,0.0,0.0,0.0,0.0,0.0,0.0,0.0,0.0,0.0,0.0,0.0,0.0,0.0,0.0,0.0,0.0,0.0,0.0,0.0,0.0,0.0,0.0,0.0,0.0,0.0,0.0,0.0,0.0,0.0,0.0,0.0,0.0,0.0,0.0,0.0,0.0,0.0,0.0,0.0,0.0,0.0,0.0,0.0,0.0,0.0,0.0,0.0,0.0,0.0,0.0,0.0,0.0,0.0,0.0,0.0,0.0,0.0,0.0,0.0,0.0,4.6089,4.6021,4.596,4.596,4.596,4.5978,4.6005,4.6005,4.6005,4.6005,0.0,0.0,0.0,0.0,0.0,0.0,0.0,0.0,0.0,0.0,0.0,0.0,0.0,0.0,0.0,0.0,0.0,0.0,0.0,0.0,0.0,0.0,0.0,0.0,0.0,0.0,0.0,0.0,0.0,0.0,0.0,0.0,0.0,0.0,0.0,0.0,0.0,0.0,0.0,0.0,0.0,0.0,0.0,0.0,0.0,0.0,0.0,0.0,0.0,0.0,0.0,0.0,0.0,0.0,0.0,0.0,0.0,0.0,0.0,0.0,0.0,0.0,0.0,0.0,0.0,0.0,0.0,0.0,0.0,0.0,0.0,0.0,0.0,0.0,0.0,0.0,0.0,0.0,0.0,0.0,0.0,0.0,0.0,0.0,0.0,0.0,0.0,0.0,0.0,0.0,0.0,0.0,0.0,0.0,0.0,0.0,0.0,0.0,0.0,0.0,0.0,0.0,4.6042,4.6026,4.5994,4.5994,4.5994,4.6,4.5997,4.6002,4.6002,4.6002,0.0,0.0,0.0,0.0,0.0,0.0,0.0,0.0,0.0,0.0,0.0,0.0,0.0,0.0,0.0,0.0,0.0,0.0,0.0,0.0,0.0,0.0,0.0,0.0,0.0,0.0,0.0,0.0,0.0,0.0,0.0,0.0,0.0,0.0,0.0,0.0,0.0,0.0,0.0,0.0,0.0,0.0,0.0,0.0,0.0,0.0,0.0,0.0,0.0,0.0,0.0,0.0,0.0,0.0,0.0,0.0,0.0,0.0,0.0,0.0,0.0,0.0,0.0,0.0,0.0,0.0,0.0,0.0,0.0,0.0,0.0,0.0,0.0,0.0,0.0,0.0,0.0,0.0,0.0,0.0,0.0,0.0,0.0,0.0,0.0,0.0,0.0,0.0,0.0,0.0,0.0,0.0,0.0,0.0,0.0,0.0,0.0,0.0,0.0,0.0,0.0,0.0,4.6002,4.6002,4.6002,4.6002,4.6002,4.6002,4.6002,4.6002,4.6002,4.6002,0.0,0.0,0.0,0.0,0.0,0.0,0.0,0.0,0.0,0.0,0.0,0.0,0.0,0.0,0.0,0.0,0.0,0.0,0.0,0.0,0.0,0.0,0.0,0.0,0.0,0.0,0.0,0.0,0.0,0.0,0.0,0.0,0.0,0.0,0.0,0.0,0.0,0.0,0.0,0.0,0.0,0.0,0.0,0.0,0.0,0.0,0.0,0.0,0.0,0.0,0.0,0.0,0.0,0.0,0.0,0.0,0.0,0.0,0.0,0.0,4.0924,4.0945,0.0,0.0,0.0,0.0,0.0,0.0,0.0,0.0,0.0,0.0,0.0,0.0,0.0,0.0,0.0,0.0,0.0,0.0,0.0,0.0,0.0,0.0,0.0,0.0,0.0,0.0,0.0,0.0,0.0,0.0,0.0,0.0,0.0,0.0,0.0,0.0,0.0,0.0,0.0,0.0,4.6002,4.6002,4.6002,4.6002,4.6002,4.6002,4.6002,4.6002,4.6002,4.6002,4.6002,0.0,0.0,0.0,0.0,0.0,0.0,0.0,0.0,0.0,0.0,0.0,0.0,0.0,0.0,0.0,0.0,0.0,0.0,0.0,0.0,0.0,0.0,0.0,0.0,0.0,0.0,0.0,0.0,0.0,0.0,0.0,0.0,0.0,0.0,0.0,0.0,0.0,0.0,0.0,0.0,0.0,0.0,0.0,0.0,0.0,0.0,0.0,0.0,0.0,0.0,0.0,0.0,0.0,0.0,0.0,0.0,0.0,0.0,0.0,4.0932,4.0961,0.0,0.0,0.0,0.0,0.0,0.0,0.0,0.0,0.0,0.0,0.0,0.0,0.0,0.0,0.0,0.0,0.0,0.0,0.0,0.0,0.0,0.0,0.0,0.0,0.0,0.0,0.0,0.0,0.0,0.0,0.0,0.0,0.0,0.0,0.0,0.0,0.0,0.0,0.0,0.0,4.6002,4.6002,4.6002,4.6002,4.6002,4.6002,4.6002,4.6002,4.6002,4.6002,4.6002,0.0,0.0,0.0,0.0,0.0,0.0,0.0,0.0,0.0,0.0,0.0,0.0,0.0,0.0,0.0,0.0,0.0,0.0,0.0,0.0,0.0,0.0,0.0,0.0,0.0,0.0,0.0,0.0,0.0,0.0,0.0,0.0,0.0,0.0,0.0,0.0,0.0,0.0,0.0,0.0,0.0,0.0,0.0,0.0,0.0,0.0,0.0,0.0,0.0,0.0,0.0,0.0,0.0,4.1322,4.1338,4.1467,4.1365,4.1373,4.1467,4.1467,4.1423,4.1324,4.1324,0.0,0.0,0.0,0.0,0.0,0.0,0.0,0.0,0.0,0.0,0.0,0.0,0.0,0.0,0.0,0.0,0.0,0.0,0.0,0.0,0.0,0.0,4.1623,4.2337,4.2462,4.2427,4.2427,0.0,0.0,0.0,0.0,0.0,0.0,0.0,0.0,0.0,0.0,0.0,4.621,4.623,4.6268,4.6449,4.6449,4.6449,4.6449,4.6449,4.6449,4.6449,4.6449,4.639,0.0,0.0,0.0,0.0,0.0,0.0,0.0,0.0,0.0,0.0,0.0,0.0,0.0,0.0,0.0,0.0,0.0,0.0,0.0,0.0,0.0,0.0,0.0,0.0,0.0,0.0,0.0,0.0,0.0,0.0,0.0,0.0,3.9538,4.0507,0.0,0.0,0.0,0.0,0.0,0.0,0.0,0.0,0.0,0.0,0.0,0.0,0.0,4.1989,4.1865,4.2607,4.3006,4.3003,4.3029,4.3167,4.3334,4.3326,4.3326,4.3334,4.3334,0.0,4.224,4.224,0.0,0.0,0.0,0.0,0.0,0.0,0.0,0.0,0.0,0.0,0.0,0.0,0.0,0.0,0.0,0.0,0.0,0.0,0.0,0.0,0.0,0.0,4.3194,4.3306,4.334,4.3335,4.3335,4.4559,4.5919,4.6793,4.7065,4.7123,0.0,0.0,0.0,0.0,0.0,0.0,4.7026,4.7123,4.7414,4.8172,4.825,4.825,4.825,4.825,4.825,4.825,4.825,4.792,4.7162,4.7123,0.0,0.0,0.0,0.0,0.0,0.0,0.0,0.0,0.0,0.0,0.0,0.0,0.0,0.0,0.0,0.0,0.0,0.0,0.0,0.0,0.0,0.0,0.0,0.0,0.0,0.0,0.0,0.0,0.0,3.9495,4.0361,4.0914,4.096,4.1147,0.0,0.0,0.0,0.0,0.0,0.0,0.0,0.0,0.0,4.2454,4.2792,4.2969,4.2896,4.3279,4.3478,4.3458,4.3548,4.3604,4.3709,4.3709,4.3709,4.3709,4.3709,4.3734,4.3763,4.3314,4.3359,4.3755,0.0,0.0,0.0,0.0,4.5168,4.509,4.4602,4.4426,4.4346,4.3855,0.0,0.0,0.0,0.0,0.0,0.0,0.0,4.3582,4.3554,4.3532,4.361,4.4103,4.4229,4.4345,4.4812,4.5861,4.6696,4.6599,4.6968,4.7453,4.7958,4.7706,0.0,0.0,0.0,4.7589,4.7978,4.8036,4.8172,4.8561,4.8599,4.8599,4.8599,4.8599,4.8599,4.8599,4.8599,4.8425,4.8055,4.8036,4.7842,0.0,0.0,0.0,0.0,0.0,0.0,0.0,0.0,0.0,0.0,0.0,0.0,0.0,0.0,0.0,0.0,0.0,0.0,0.0,0.0,0.0,0.0,0.0,0.0,0.0,0.0,0.0,0.0,4.0621,4.1159,4.1292,4.1461,4.1828,0.0,0.0,0.0,0.0,0.0,0.0,4.3384,4.3473,4.3522,4.3521,4.3792,4.3919,4.3884,4.4093,4.4217,4.4217,4.4251,4.4306,4.4343,4.4343,4.4343,4.4343,4.4343,4.4674,4.5178,4.4348,4.4143,4.4406,4.505,4.5308,4.5395,4.6042,4.6294,4.6175,4.5553,4.5318,4.5197,4.4545,4.4354,4.4364,4.4333,0.0,0.0,0.0,0.0,4.4205,4.4228,4.4221,4.4351,4.5001,4.5167,4.5381,4.6178,4.6873,4.7135,4.6449,4.7045,4.7842,4.8483,4.8599,0.0,4.8599,4.8599,4.8677,4.8891,4.893,4.9027,4.924,4.9279,4.9279,4.9279,4.9279,4.9279,4.9279,4.9279,4.9163,4.893,4.893,4.8832,4.8599,0.0,0.0,0.0,0.0,0.0,0.0,0.0,0.0,0.0,0.0,0.0,0.0,0.0,0.0,0.0,0.0,0.0,0.0,0.0,0.0,0.0,0.0,0.0,0.0,0.0,0.0,0.0,0.0,0.0,4.1898,4.2804,0.0,0.0,0.0,0.0,4.3663,4.3685,4.3657,4.3581,4.3584,4.3598,4.3598,4.4403,4.4779,4.4647,4.5463,4.5876,4.5876,4.5876,4.5948,4.6063,4.6063,4.6063,4.6063,4.6063,4.6102,4.6066,4.5198,4.5328,4.6072,4.6111,4.6131,4.6153,4.6262,4.626,4.6211,4.6223,4.618,4.6131,4.6092,4.6115,4.6163,4.6086,4.6127,0.0,0.0,4.6027,4.6048,4.5998,4.6014,4.6079,4.6114,4.6134,4.6348,4.7166,4.7361,4.7353,4.7261,4.7939,4.8541,4.858,0.0,4.8599,4.8599,4.8599,4.8891,4.9732,4.9829,5.0153,5.0989,5.1066,5.1066,5.1066,5.1066,5.1066,5.1066,5.1066,5.0697,4.9868,4.9829,4.946,4.8619,4.8561,0.0,0.0,0.0,0.0,0.0,0.0,0.0,0.0,0.0,0.0,0.0,0.0,0.0,0.0,0.0,0.0,0.0,0.0,0.0,0.0,0.0,0.0,0.0,0.0,0.0,0.0,0.0,0.0,4.2796,4.3213,0.0,4.4181,4.4378,4.4616,4.4957,4.5184,4.5257,4.5155,4.5223,4.5267,4.526,4.5572,4.5717,4.5667,4.5978,4.6134,4.6134,4.6134,4.615,4.6199,4.6199,4.6199,4.6199,4.6199,4.6199,4.618,4.5859,4.593,4.6192,4.6192,4.6198,4.6209,4.6233,4.6211,4.6209,4.6233,4.6211,4.6192,4.6206,4.6214,4.6248,4.6268,4.6218,4.6188,4.6216,4.622,4.6192,4.6177,4.6593,4.7025,4.6982,4.7407,4.7894,4.8167,4.8245,4.8238,4.8206,4.8876,4.9619,5.0178,5.027,5.027,5.027,5.027,5.0386,5.0697,5.0736,5.0853,5.1163,5.1202,5.1202,5.1202,5.1202,5.1202,5.1202,5.1202,5.1066,5.0755,5.0736,5.0581,5.0289,4.9726,4.9707,0.0,0.0,0.0,0.0,0.0,0.0,0.0,0.0,0.0,0.0,0.0,0.0,0.0,0.0,0.0,0.0,0.0,0.0,0.0,0.0,0.0,0.0,0.0,0.0,0.0,4.2491,4.3111,4.3689,4.4103,4.4545,4.5089,4.5262,4.5492,4.5836,4.6078,4.6154,4.6075,4.615,4.6199,4.6199,4.6199,4.6199,4.6199,4.6199,4.6199,4.6199,4.6199,4.6199,4.6199,4.6199,4.6199,4.6199,4.6199,4.6199,4.6199,4.6199,4.6362,4.6606,4.6313,4.6203,4.6192,4.6198,4.6198,4.6192,4.6192,4.6192,4.6201,4.6202,4.6207,4.627,4.6639,4.668,4.6681,4.7032,4.7106,4.708,4.7081,4.7513,4.792,4.7872,4.832,4.8808,4.91,4.9178,4.9253,4.9552,4.9761,5.0077,5.0659,5.1,5.1202,5.1202,5.1202,5.1202,5.1202,5.1202,5.1202,5.1202,5.1202,5.1202,5.1202,5.1202,5.1202,5.1202,5.1202,5.1202,5.1202,5.1202,5.1202,5.1202,5.0623,5.0614,5.1192,0.0,0.0,0.0,0.0,0.0,0.0,0.0,0.0,0.0,0.0,0.0,0.0,0.0,0.0,0.0,0.0,0.0,0.0,0.0,0.0,0.0,0.0,0.0,4.199,4.3486,4.4647,4.4544,4.5502,4.6142,4.6012,4.6111,4.6219,4.6238,4.6238,4.6258,4.6277,4.6277,4.6277,4.6277,4.6277,4.6277,4.6277,4.6277,4.6277,4.6277,4.6277,4.6277,4.6277,4.6277,4.6277,4.6277,4.6277,4.6277,4.6277,4.6277,4.6784,4.7443,4.6589,4.6258,4.6277,4.6274,4.6271,4.6277,4.6277,4.6277,4.6277,4.627,4.6282,4.6443,4.7368,4.7645,4.7797,4.8577,4.8803,4.8803,4.8803,4.8825,4.883,4.8833,4.8857,4.9111,4.9967,5.0143,5.0391,5.1244,5.0618,4.9955,4.9936,5.0645,5.1202,5.1202,5.1202,0.0,5.1202,5.1202,5.1202,5.1202,5.1202,5.1202,5.1202,5.1202,5.1202,5.1202,5.1202,5.1202,5.1202,5.1202,5.1202,5.1208,5.1224,5.123,5.1249,0.0,0.0,0.0,0.0,0.0,0.0,0.0,0.0,0.0,0.0,0.0,0.0,0.0,0.0,0.0,0.0,0.0,0.0,0.0,0.0,0.0,4.4568,4.485,4.4694,4.4595,4.4757,4.5304,4.5641,4.5883,4.5997,4.6111,4.6452,4.7092,4.7131,4.7423,4.8047,4.8086,4.8086,4.8086,4.8086,4.8086,4.8086,4.8086,4.8086,4.8086,4.8086,4.8086,4.8086,4.8086,4.8086,4.8086,4.8086,4.8086,4.8086,4.8086,4.8222,4.8358,4.7482,4.7521,4.8089,4.8093,4.8093,4.8086,4.8086,4.8094,4.8091,4.809,4.8084,4.8124,4.8398,4.8476,4.8523,4.8749,4.8799,4.8808,4.8806,4.9278,4.9747,4.9733,5.0223,5.075,5.0984,5.1043,5.1119,5.1347,5.1183,5.0968,5.0918,5.1069,5.1205,5.1205,5.1211,5.1202,5.1202,5.1202,5.1202,5.1202,5.1202,5.1202,5.1202,5.1202,5.1202,5.1202,5.1202,5.1202,5.1202,5.1203,5.1225,5.1263,5.1884,5.2223,0.0,0.0,0.0,0.0,0.0,0.0,0.0,0.0,0.0,0.0,0.0,0.0,0.0,0.0,0.0,0.0,0.0,0.0,0.0,0.0,0.0,0.0,4.5778,4.623,4.6779,4.6051,4.5661,4.6172,4.6566,4.6846,4.6952,4.7072,4.7367,4.7873,4.8008,4.8261,4.8768,4.8806,4.8806,4.8806,4.8806,4.8806,4.8806,4.8806,4.8806,4.8806,4.8806,4.8806,4.8806,4.8806,4.8806,4.8806,4.8806,4.8806,4.8806,4.8806,4.9001,4.9216,0.0,0.0,0.0,0.0,4.8806,4.8791,4.8795,4.8803,4.879,4.8804,4.8808,4.8863,4.9235,4.9337,4.9425,4.979,4.9883,4.9896,4.9889,5.0262,5.0631,5.0631,5.1023,5.1394,5.1394,5.1394,5.1394,5.1394,5.1403,0.0,5.1349,5.1285,5.1239,5.1239,5.1235,5.1224,5.1203,5.1197,5.1197,5.1197,5.1197,5.1208,5.1234,5.1234,0.0,0.0,0.0,5.1234,5.1234,5.1244,0.0,0.0,0.0,5.2772,5.3143,5.4053,0.0,0.0,5.3988,5.4177,0.0,0.0,0.0,0.0,0.0,0.0,0.0,0.0,0.0,0.0,0.0,0.0,0.0,0.0,0.0,0.0,4.7018,4.7351,4.8145,4.7568,4.7082,4.7113,4.782,4.8303,4.8303,4.8444,4.8572,4.8669,4.884,4.8982,4.9079,4.9079,0.0,0.0,0.0,4.9079,4.9079,4.9079,4.9079,4.9079,4.9079,4.9079,4.9079,4.9079,4.9079,4.9079,4.9079,4.9079,4.9079,4.9079,4.9508,5.0073,4.9352,4.9079,4.9079,4.9079,4.9079,4.9087,4.9076,0.0,0.0,4.9082,4.9099,4.9232,5.0014,5.0241,5.0416,5.118,5.1394,5.1394,5.1394,5.1394,5.1394,5.1394,5.1394,5.1394,5.1394,5.1394,5.1394,5.1394,5.1394,5.1394,5.1394,5.1352,5.1308,5.1308,5.1304,5.1284,5.1225,5.1215,5.1215,5.1215,5.1215,0.0,5.1296,5.13,5.13,5.13,5.13,5.1339,5.1445,5.1445,5.1858,5.2742,5.2851,5.3295,5.4053,5.4997,5.5454,5.5454,5.5394,5.5363,0.0,0.0,0.0,0.0,0.0,0.0,0.0,0.0,0.0,0.0,0.0,0.0,0.0,0.0,0.0,4.7741,4.8365,4.8634,4.8142,4.8509,4.8576,4.7883,4.8105,4.8307,4.8307,4.8577,4.9017,4.9659,4.9753,5.0073,5.0774,5.0813,5.0813,5.0813,5.0813,5.0813,5.0813,5.0813,5.0813,5.0813,5.0813,0.0,5.0813,5.0813,5.0813,5.0813,5.0813,5.0813,5.0813,5.0813,5.0911,5.1028,5.0872,5.0813,5.0813,5.0813,5.0813,5.0813,5.0825,5.0845,5.0907,5.0893,5.0897,5.0933,5.1103,5.116,0.0,5.1355,5.1394,5.1394,5.1394,5.1394,5.1394,5.1394,5.1394,5.1394,5.1394,5.1394,5.1394,5.1394,5.1394,5.1394,5.1394,5.1389,5.1385,5.1385,5.1319,5.1296,5.1288,5.1288,5.1288,5.1288,5.1288,5.1292,5.13,5.13,5.13,5.13,5.13,5.1627,5.2321,5.2344,5.2785,5.3704,5.4411,5.4864,5.5038,5.5921,5.6352,5.6352,5.6348,5.6326,0.0,0.0,0.0,0.0,0.0,0.0,0.0,0.0,0.0,0.0,0.0,4.6355,4.8002,0.0,4.8499,4.8469,4.8813,4.896,4.8593,4.9314,4.9556,4.876,4.9178,4.9552,4.9552,4.9786,5.0116,5.0525,5.0572,5.08,5.1228,5.1225,5.1211,5.1211,5.1234,5.1248,5.1248,5.1288,5.13,5.13,5.13,5.13,5.13,5.13,5.13,5.13,5.13,5.13,5.13,5.13,5.13,5.13,5.13,5.13,5.13,5.13,5.13,5.1308,5.1341,5.1379,5.1401,5.1406,5.1395,5.1394,5.1394,5.1394,5.1394,5.1394,5.1394,5.1394,5.1394,5.1394,5.1394,5.1394,5.1394,5.1394,5.1394,5.1394,5.1394,5.1394,5.1394,5.1394,5.1394,5.1403,5.1396,5.1396,5.1364,5.1349,5.1353,5.1349,5.1349,5.1349,5.1349,5.1356,5.1352,5.1355,5.1355,5.1355,5.1355,5.1734,5.2608,5.2648,5.3277,5.4615,5.5083,5.5513,5.5942,5.6391,5.6606,5.6606,5.6606,5.6606,0.0,0.0,0.0,0.0,0.0,0.0,0.0,4.5616,4.5692,4.7743,4.7612,4.7672,4.9537,4.9461,4.908,4.8928,4.9023,4.9179,4.9338,4.9978,5.0227,4.9682,5.0323,5.0809,5.0809,5.0985,5.1099,5.1099,5.115,5.1171,5.1171,5.1128,5.1099,5.1099,5.115,5.1171,5.1171,5.1234,5.128,5.1288,5.1288,5.1292,5.13,5.13,5.13,5.13,5.13,5.13,5.13,5.13,5.13,5.13,5.13,5.13,5.13,5.13,5.13,5.1316,5.1357,5.1395,5.1402,5.1396,5.14,5.1394,5.1394,5.1394,5.1394,5.1394,5.1394,5.1394,5.1394,5.1394,5.1394,5.1394,5.1394,5.1394,5.1394,5.1394,5.1394,5.1394,5.1394,5.1394,5.1394,5.1394,5.1394,5.1394,5.1394,5.1408,5.1405,5.1403,5.1403,5.1403,5.1403,5.1394,5.1392,5.1394,5.1394,5.1394,5.1394,5.1863,5.2917,5.2958,5.3776,5.5513,5.5552,5.5903,5.6606,5.6606,5.6606,5.6606,5.6606,5.6606,4.7177,4.7615,4.7767,4.8452,4.8604,4.8788,0.0,4.948,4.948,4.9765,4.9746,4.9543,4.9118,4.9537,4.9714,4.9023,4.9499,5.0018,5.0218,5.044,5.0604,5.0703,5.0813,5.0879,5.0879,5.1024,5.1099,5.1099,5.1111,5.1111,5.1111,5.1105,5.1099,5.1099,5.1111,5.1111,5.1111,5.1122,5.115,5.1215,5.1215,5.1239,5.13,5.13,5.13,5.13,5.13,5.13,5.13,5.13,5.13,5.13,5.13,5.13,5.13,5.13,5.13,5.1289,5.1311,5.1343,5.1401,5.1406,5.1394,5.1394,5.1394,5.1394,5.1394,5.1394,5.1394,5.1394,5.1394,5.1394,5.1394,5.1394,5.1394,5.1394,5.1394,5.1394,5.1394,5.1394,5.1394,5.1394,5.1394,5.1394,5.1394,5.1394,5.1394,5.1392,5.139,5.139,5.139,5.139,5.139,5.1392,5.1394,5.1394,5.1394,5.1394,5.1394,5.2136,5.3795,5.3854,5.4674,5.6411,5.645,5.6508,5.6606,5.6606,5.6606,5.6606,5.6606,5.6606,4.8625,4.8947,4.9023,4.9384,4.9505,4.9626,4.9968,4.9683,4.9474,4.9949,4.9638,4.9327,4.946,4.9764,4.9878,4.9536,4.9764,5.005,5.0267,5.0413,5.0567,5.0754,5.0858,5.0937,5.101,5.1069,5.1099,5.1099,5.1069,5.1043,5.1043,5.1004,5.0983,5.0983,5.1024,5.1043,5.1043,5.1081,5.1117,5.1139,5.1176,5.1201,5.1243,5.1288,5.13,5.13,5.13,5.13,5.13,5.13,5.13,5.13,5.13,5.13,5.13,5.13,5.13,5.1312,5.133,5.1373,5.1402,5.1401,5.1405,5.1394,5.1394,5.1394,5.1394,5.1394,5.1394,5.1394,5.1394,5.1394,5.1394,5.1394,5.1394,5.1394,5.1394,5.1394,5.1394,5.1394,5.1394,5.1394,5.1394,5.1394,5.1394,5.1394,5.1394,5.1394,5.1394,5.1394,5.1394,5.1394,5.1394,5.1394,5.1394,5.1394,5.1394,5.1394,5.1394,5.1941,5.319,5.3249,5.4068,5.5806,5.5845,5.6098,5.6606,5.6098,5.5845,5.5845,5.5845,5.6118,4.9741,4.9912,4.9912,4.9912,4.9939,4.9978,4.9978,4.9523,4.9276,4.9846,4.9464,4.921,4.9798,4.9912,4.9912,4.9912,4.9912,4.9959,5.0163,5.0313,5.0467,5.0682,5.0825,5.0944,5.1037,5.105,5.105,5.105,5.0997,5.0969,5.0969,5.0929,5.0898,5.0898,5.0959,5.0969,5.0969,5.1024,5.1056,5.1075,5.1122,5.1161,5.1191,5.128,5.13,5.13,5.13,5.13,5.13,5.13,5.13,5.13,5.13,5.13,5.13,5.13,5.1292,5.132,5.1385,5.1401,5.1405,5.1409,5.1394,5.1394,5.1394,5.1394,5.1394,5.1394,5.1394,5.1394,5.1394,5.1394,5.1394,5.1394,5.1394,5.1394,5.1394,5.1394,5.1394,5.1394,5.1394,5.1394,5.1394,5.1394,5.1394,5.1394,5.1394,5.1394,5.1394,5.1394,5.1394,5.1394,5.1394,5.1394,5.1394,5.1394,5.1394,5.1394,5.1394,5.1785,5.2665,5.2704,5.3407,5.4908,5.5181,5.5493,5.5884,5.5493,5.5181,5.4947,5.5181,5.5884,4.9893,4.9912,4.9912,4.9912,4.9893,4.9893,4.9893,4.9874,4.9874,4.9893,4.9874,4.9874,4.9912,4.9912,4.9912,4.9912,4.9912,4.9959,5.0163,5.0313,5.0467,5.0682,5.0825,5.0898,5.0906,5.0906,5.0906,5.0906,5.0906,5.0906,5.0906,5.0898,5.0898,5.0898,5.0898,5.0906,5.0906,5.0906,5.0944,5.1004,5.1004,5.1075,5.1191,5.128,5.13,5.13,5.13,5.13,5.13,5.13,5.13,5.13,5.13,5.13,5.13,5.13,5.1297,5.1303,5.1372,5.1405,5.1404,5.1405,5.1394,5.1394,5.1394,5.1394,5.1394,5.1394,5.1394,5.1394,5.1394,5.1394,5.1394,5.1394,5.1394,5.1394,5.1394,5.1394,5.1394,5.1394,5.1394,5.1394,5.1394,5.1394,5.1394,5.1394,5.1394,5.1394,5.1394,5.1394,5.1394,5.1394,5.1394,5.1394,5.1394,5.1394,5.1394,5.1394,5.1394,5.1785,5.2665,5.2704,5.3112,5.4029,5.4869,5.4908,5.4088,5.4908,5.4869,5.4068,5.4908,5.6177,4.9912,4.9912,4.9912,4.9912,4.9912,4.9912,4.9912,4.9912,4.9912,4.9912,4.9912,4.9912,4.9912,4.9912,4.9912,4.9912,4.9912,4.992,4.9986,5.0233,5.0425,5.0477,5.0745,5.0898,5.0898,5.0898,5.0898,5.0898,5.0898,5.0898,5.0898,5.0898,5.0898,5.0898,5.0898,5.0898,5.0898,5.0898,5.0914,5.0925,5.1024,5.1117,5.1191,5.128,5.13,5.13,5.13,5.13,5.13,5.13,5.13,5.13,5.13,5.13,5.13,5.13,5.1339,5.137,5.1396,5.1405,5.1403,5.1403,5.1394,5.1394,5.1394,5.1394,5.1394,5.1394,5.1394,5.1394,5.1394,5.1394,5.1394,5.1394,5.1394,5.1394,5.1394,5.1394,5.1394,5.1394,5.1394,5.1394,5.1394,5.1394,5.1394,5.1394,5.1394,5.1394,5.1394,5.1394,5.1394,5.1394,5.1394,5.1394,5.1394,5.1394,5.1394,5.1394,5.1394,5.1531,5.1824,5.1843,5.2253,5.3112,5.3426,5.3992,5.4869,5.3992,5.3717,5.399,5.3717,5.45,4.9817,4.9912,4.9912,4.9912,4.9912,4.9912,4.9912,4.9912,4.9912,4.9912,4.9912,4.9912,4.9912,4.9912,4.9912,4.9912,4.9912,4.9912,4.9912,5.0197,5.0404,5.0404,5.0699,5.0898,5.0898,5.0898,5.0898,5.0898,5.0898,5.0898,5.0898,5.0898,5.0898,5.0898,5.0898,5.0898,5.0898,5.0898,5.0898,5.0898,5.101,5.1087,5.1134,5.1225,5.1256,5.1276,5.1292,5.13,5.13,5.13,5.13,5.13,5.13,5.13,5.1304,5.1303,5.134,5.1398,5.1398,5.1406,5.1396,5.14,5.1394,5.1394,5.1394,5.1394,5.1394,5.1394,5.1394,5.1394,5.1394,5.1394,5.1394,5.1394,5.1394,5.1394,5.1394,5.1394,5.1394,5.1394,5.1394,5.1394,5.1394,5.1394,5.1394,5.1394,5.1394,5.1394,5.1394,5.1394,5.1394,5.1394,5.1394,5.1394,5.1394,5.1394,5.1394,5.1394,5.1394,5.1394,5.1394,5.1707,5.2136,5.2685,5.3309,5.4031,5.483,5.401,5.3756,5.399,5.3424,5.3932,4.9684,4.9912,4.9912,4.9912,4.9912,4.9912,4.9912,4.9912,4.9912,4.9912,4.9912,4.9912,4.9912,4.9912,4.9912,4.9912,4.9912,4.9912,4.9912,5.0197,5.0404,0.0,0.0,0.0,0.0,0.0,5.0898,5.0898,5.0898,5.0898,5.0898,5.0898,5.0898,5.0898,5.0898,5.0898,5.0898,5.0898,5.0898,5.0898,5.0969,5.1004,5.1004,5.1139,5.1191,5.1191,5.1261,5.13,5.13,5.13,5.13,5.13,5.13,5.13,5.1308,5.1305,5.1341,5.1398,5.1399,5.1405,5.1394,5.1394,5.1394,5.1394,5.1394,5.1394,5.1394,5.1394,5.1394,5.1394,5.1394,5.1394,5.1394,5.1394,5.1394,5.1394,5.1394,5.1394,5.1394,5.1394,5.1394,5.1394,5.1394,5.1392,5.139,5.139,5.139,5.1392,5.1394,5.1394,5.1394,5.1394,5.1394,5.1394,5.1394,5.1394,5.1394,5.1394,5.1394,5.1394,5.1394,5.2234,5.2704,5.2704,5.4363,5.4849,5.4068,5.4849,5.483,5.4068,5.4029,5.4478,4.9684,4.9912,4.9912,4.9912,4.9912,4.9912,4.9912,4.9912,4.9912,4.9912,4.9912,4.9912,4.9912,4.9912,4.9912,4.9912,4.9912,4.9912,4.9912,5.0197,0.0,5.0404,0.0,5.0898,5.0898,5.0898,5.0898,5.0898,5.0898,5.0898,5.0898,5.0898,5.0898,5.0898,5.0898,5.0898,5.0898,5.0898,5.0898,5.0898,5.1017,5.105,5.1004,5.1181,5.1243,5.1191,5.1261,5.13,5.13,5.13,5.13,5.13,5.13,5.13,5.1308,5.1305,5.1341,5.14,5.1406,5.1399,5.1394,5.1394,5.1394,5.1394,5.1394,5.1394,5.1394,5.1394,5.1394,5.1394,5.1394,5.1394,5.1394,5.1394,5.1394,5.1394,5.1394,5.1394,5.1394,5.1394,5.1394,5.1394,5.1394,5.1325,5.1252,5.1252,5.1252,5.1291,5.139,5.1394,5.1394,5.1394,5.1394,5.1394,5.1394,5.1394,5.1394,5.1394,5.1394,5.1394,5.1394,5.2234,5.2704,5.2704,5.3776,5.4537,5.4966,5.4537,5.4556,5.4947,5.4303,5.4478,4.9562,4.9912,4.9912,4.9912,4.9912,4.9912,4.9912,4.9912,4.9912,4.9912,4.9912,4.9912,4.9912,4.9912,4.9912,4.9912,4.9912,4.9912,4.9912,5.0197,5.0404,0.0,5.0699,0.0,5.0898,5.0898,5.0898,5.0898,5.0898,5.0898,5.0898,5.0898,5.0898,5.0898,5.0898,5.0898,5.0898,5.0898,5.0898,5.0898,5.1004,5.1037,5.1004,5.1171,5.1234,5.1191,5.1261,5.13,5.13,5.13,5.13,5.13,5.13,5.13,5.1292,5.1323,5.1369,5.1401,5.1403,5.1408,5.1394,5.1394,5.1394,5.1394,5.1394,5.1394,5.1394,5.1394,5.1394,5.1394,5.1394,5.1394,5.1394,5.1394,5.1394,5.1394,5.1394,5.1394,5.1394,5.1394,5.1394,5.1388,5.1325,5.1252,5.1187,5.1128,5.1099,5.1141,5.1211,5.1327,5.1394,5.1394,5.1394,5.1394,5.1394,5.1394,5.1394,5.1394,5.1394,5.157,5.1941,5.28,5.3444,5.3836,5.4693,5.5376,5.5864,5.5376,5.5396,5.5845,5.4986,5.483,4.9389,4.9898,4.9912,4.9912,4.9912,4.9912,4.9912,4.9912,4.9912,4.9912,4.9912,4.9912,4.9912,4.9912,4.9912,4.9912,0.0,4.9912,4.9912,5.0197,5.0404,5.0404,5.0699,5.0898,5.0898,5.0898,5.0898,5.0898,5.0898,5.0898,5.0898,5.0898,5.0898,5.0898,5.0898,5.0898,5.0898,5.0898,5.0898,5.0898,5.0961,5.0997,5.1004,5.1139,5.1211,5.1191,5.1261,5.13,5.13,5.13,5.13,5.13,5.13,5.1304,5.1307,5.1384,5.1399,5.1404,5.1391,5.1394,5.1394,5.1394,5.1394,5.1394,5.1394,5.1394,5.1394,5.1394,5.1394,5.1394,5.1394,5.1394,5.1394,5.1394,5.1394,5.1394,5.1394,5.1394,5.1394,5.1394,5.139,5.1333,5.1214,5.1183,5.1118,5.0996,5.0997,5.0997,5.0997,5.1195,5.1355,5.1355,5.1362,5.1367,5.1367,5.139,5.1394,5.1394,5.1394,5.1785,5.2665,5.3541,5.44,5.5281,5.6157,5.6606,5.6606,5.6606,5.6606,5.6586,5.5825,5.5474,4.9263,4.9816,4.9912,4.9912,4.9912,4.9912,4.9912,4.9912,0.0,4.9912,4.9912,4.9912,4.9912,4.9912,4.9912,4.9912,4.9912,4.9912,4.9912,5.0197,5.0404,0.0,5.0699,5.0898,5.0898,5.0898,5.0898,5.0898,5.0898,5.0898,5.0898,5.0898,5.0898,5.0898,5.0898,5.0898,5.0898,5.0898,5.0898,5.0898,5.0961,5.0997,5.1004,5.1139,5.1211,5.1191,5.1261,5.13,5.13,5.13,5.13,5.13,5.13,5.1291,5.1316,5.137,5.1404,5.1405,5.1407,5.1394,5.1394,5.1394,5.1394,5.1394,5.1394,5.1394,5.1394,5.1394,5.1394,5.1394,5.1394,5.1394,5.1394,5.1394,5.1394,5.1394,5.1394,5.1394,5.1394,5.1394,5.13,5.1238,5.1203,5.1064,5.0949,5.092,5.0913,5.0913,5.0913,5.0997,5.1069,5.1069,5.1163,5.1222,5.1222,5.1333,5.1394,5.1394,5.1394,5.1785,5.2665,5.3541,5.44,5.5281,5.6157,5.6606,5.6606,5.6606,5.6606,5.6606,5.645,5.6372,4.8796,4.9535,4.9912,4.9912,4.9912,4.9912,4.9912,0.0,0.0,4.9912,4.9912,4.9912,4.9912,4.9912,4.9912,4.9912,4.9912,4.9912,4.9912,5.0197,5.0404,5.0404,5.0699,5.0898,5.0898,5.0898,5.0898,5.0898,5.0898,5.0898,5.0898,5.0898,5.0898,5.0898,5.0898,5.0898,5.0898,5.0898,5.0898,5.0898,5.1004,5.1056,5.1056,5.1181,5.1248,5.1248,5.1292,5.13,5.13,5.13,5.13,5.1304,5.1294,5.1302,5.1308,5.1381,5.1406,5.1403,5.1405,5.1394,5.1394,5.1394,5.1394,5.1394,5.1394,5.1394,5.1394,5.1394,5.1394,5.1394,5.1394,5.1394,5.1394,5.1394,5.1394,5.1394,5.1394,5.1355,5.1294,5.1294,5.1195,5.1069,5.1053,5.0951,5.0882,5.081,5.0793,5.0793,5.0793,5.083,5.0882,5.099,5.1058,5.1108,5.1108,5.115,5.1195,5.1195,5.1195,5.1608,5.2564,5.3423,5.4335,5.5279,5.5708,5.6157,5.6606,5.6138,5.6157,5.6606,5.6606,5.6606,4.8086,4.8861,4.9362,4.9362,4.9362,4.9362,4.9362,4.9362,4.9362,4.9362,4.9362,4.9419,4.9608,4.9646,4.9703,4.9874,4.9912,4.9912,4.9912,5.0162,5.0361,5.0404,5.0672,0.0,5.0898,5.0898,5.0898,5.0898,5.0898,5.0898,5.0898,5.0898,5.0898,5.0898,5.0898,5.0898,5.0898,5.0898,5.0898,5.0898,5.1004,5.1075,5.1105,5.1215,5.1261,5.13,5.13,5.13,5.13,5.13,5.13,5.1304,5.1302,5.1189,5.1045,5.1093,5.0994,5.0834,5.0837,5.0848,5.0848,5.0848,5.1102,5.1394,5.1394,5.1394,5.1394,5.1394,5.1394,5.1394,5.1394,5.1394,5.1394,5.1394,5.1394,5.1394,5.1394,5.1294,5.1203,5.1203,5.1088,5.0953,5.0917,5.0882,5.0827,5.0712,5.0712,5.0712,5.0712,5.0712,5.0766,5.0912,5.0966,5.0985,5.0985,5.099,5.1002,5.1002,5.1002,5.1442,5.2425,5.3106,5.4036,5.5187,5.5207,5.5636,5.6491,5.5808,5.5828,5.6491,5.6491,5.6491,4.7061,4.7481,4.7624,4.7624,4.7624,4.7624,4.7624,0.0,4.7624,4.7624,4.7624,4.787,4.8661,4.8812,4.9059,4.9779,4.9912,4.9912,4.9912,5.0089,5.0264,5.0383,0.0,0.0,5.089,5.0898,5.0898,5.0898,5.0898,5.0898,5.0898,5.0898,5.0898,5.0898,5.0898,5.0898,5.0898,5.0898,5.0898,5.0898,5.0914,5.0976,5.1105,5.1117,5.1176,5.13,5.13,5.13,5.13,5.13,5.13,5.1304,5.1302,5.085,5.0206,5.0215,4.9718,4.9036,4.9034,4.9032,4.9032,4.9032,5.0106,5.1394,5.1394,5.1394,5.1394,5.1394,5.1394,5.1394,5.1394,5.1394,5.1394,5.1394,5.1394,5.1394,5.1394,5.1294,5.1203,5.1203,5.1041,5.091,5.0894,5.0801,5.0712,5.0693,5.0712,5.0712,5.0712,5.0712,5.0702,5.0721,5.0841,5.0917,5.0917,5.0959,5.1002,5.1002,5.1002,5.1402,5.2275,5.2397,5.3233,5.4896,5.4935,5.5343,5.6154,5.6076,5.6076,5.6154,5.6154,5.6154,4.6439,4.6998,4.7397,4.7397,4.7397,4.7397,4.7397,0.0,4.7397,4.7397,4.7397,4.751,4.7864,4.8357,4.8812,4.9134,4.9695,5.0076,5.0076,5.0321,5.0516,5.0567,5.0718,5.0841,0.0,5.0898,5.0898,5.0898,5.0898,5.0898,5.0898,5.0898,5.0898,5.0898,5.0898,5.0898,5.0898,5.0898,5.0898,5.0898,5.0932,5.101,5.1105,5.1139,5.1215,5.13,5.13,5.13,5.1261,5.0735,5.054,5.0533,5.0007,4.9602,4.9316,4.9328,4.9101,4.8798,4.8798,4.8798,4.8798,4.8798,4.9267,4.9833,4.9833,5.0204,5.0612,5.0612,5.1004,5.1394,5.1394,5.1394,5.1394,5.1394,5.1394,5.1386,5.1294,5.1163,5.1078,5.1023,5.0883,5.0775,5.0775,5.074,5.0712,5.0712,5.0712,5.0712,5.0712,5.0712,5.0712,5.0712,5.074,5.0775,5.0775,5.0797,5.0819,5.0819,5.0819,5.1003,5.1436,5.192,5.255,5.3326,5.385,5.453,5.5385,5.5372,5.5625,5.6097,5.6097,5.6097,4.5742,4.6222,4.6657,4.6657,4.6657,4.6657,0.0,0.0,4.6657,4.6657,4.6657,4.6733,4.6999,4.7548,4.8143,4.8663,4.9309,4.9865,5.0202,5.0432,5.0596,5.0692,0.0,5.0858,5.0898,5.0898,5.0898,5.0898,5.0898,5.0898,5.0898,5.0898,5.0898,5.0898,5.0898,5.0898,5.0898,5.0898,5.0898,5.0898,5.0959,5.1017,5.1105,5.1145,5.1225,5.13,5.1028,5.093,5.0852,4.9994,4.9669,4.966,4.9046,4.8631,4.8416,4.8426,4.8259,4.8057,4.8057,4.8057,4.8057,4.8057,4.8057,4.8057,4.8057,4.8837,4.9714,4.9714,5.034,5.1023,5.1023,5.1219,5.1394,5.1394,5.1364,5.1302,5.1214,5.1083,5.0959,5.0917,5.0784,5.0712,5.0712,5.0712,5.0712,5.0712,5.0712,5.0712,5.0712,5.0712,5.0712,5.0712,5.0712,5.0712,5.0712,5.0712,5.0712,5.0712,5.0712,5.074,5.0833,5.1382,5.1846,5.2191,5.2773,5.3529,5.4401,5.4657,5.5064,5.5633,5.5866,5.5986,4.4877,4.4914,4.4933,4.4933,4.4933,4.4933,4.4933,4.4933,4.4933,4.4933,4.4933,4.5198,4.6051,4.6222,4.6809,4.8619,4.8789,4.9106,5.0235,5.0298,5.034,0.0,5.0701,5.0756,5.089,5.0898,5.0898,5.0898,5.0898,5.0898,5.0898,5.0898,5.0898,5.0898,5.0898,5.0898,5.0898,5.0898,5.0898,5.0898,5.0898,5.0969,5.1099,5.1105,5.1166,5.1242,5.0385,5.0014,4.994,4.9132,4.8818,4.8801,4.8793,4.8279,4.7518,4.7518,4.7003,4.6339,4.6339,4.6339,4.6339,4.6339,4.6339,4.6339,4.6339,4.749,4.8818,4.8818,4.9442,5.0104,5.0104,5.0748,5.1394,5.1394,5.1297,5.1203,5.1203,5.1041,5.0894,5.0894,5.0784,5.0712,5.0712,5.0712,5.0712,5.0712,5.0712,5.0712,5.0712,5.0712,5.0712,5.0712,5.0712,5.0712,5.0712,5.0712,5.0712,5.0712,5.0712,5.0693,5.0693,5.0712,5.1097,5.1895,5.1914,5.2356,5.3222,5.4078,5.4521,5.454,5.5329,5.5749,4.4858,4.4895,4.4895,4.4895,4.4895,4.4895,4.4895,4.4895,4.4895,4.4895,4.4895,4.499,4.5255,4.5805,4.6619,4.7869,4.8617,4.9409,5.0461,5.0654,0.0,5.0833,5.0841,5.0858,5.0898,5.0898,5.0898,5.0898,5.0898,5.0898,5.0898,5.0898,5.0898,5.0898,5.0898,5.0898,5.0898,5.0898,5.0898,5.0898,5.0898,5.0969,5.1099,5.1099,5.0855,5.0404,5.0112,4.9683,4.9102,4.8259,4.7917,4.7847,4.7251,4.6874,4.6677,4.6688,4.6523,4.63,4.63,4.63,4.63,4.63,4.63,4.63,4.63,4.7081,4.8096,4.8642,4.8993,4.9208,4.9208,4.9423,4.9612,4.9577,4.9939,5.0274,5.0143,5.0516,5.0882,5.0775,5.0731,5.0712,5.0712,5.0712,5.0712,5.0712,5.0712,5.0712,5.0712,5.0712,5.0712,5.0712,5.0712,5.0712,5.0712,5.0712,5.0712,5.0712,5.0712,5.0712,5.0712,5.0712,5.0827,5.1068,5.1625,5.2038,5.2308,5.3203,5.3914,5.4511,5.4761,5.5156,4.4895,4.4895,4.4895,4.4895,4.4895,0.0,4.4895,4.4895,4.4819,4.4516,4.4459,4.4459,4.4459,4.4895,4.5784,4.743,4.8223,4.912,5.0519,5.0484,0.0,5.0434,5.0724,5.0898,5.0898,5.0898,5.0898,5.0898,5.0898,5.0898,5.0898,5.0898,5.0898,5.0898,5.0898,5.0898,5.0898,5.0898,5.0898,5.0898,5.0929,5.0815,5.0614,5.0642,5.0233,4.9527,4.9196,4.8768,0.0,4.7369,4.7014,4.6967,4.6415,4.623,4.6301,4.6296,4.6308,4.63,4.63,4.63,4.63,4.63,4.63,4.63,4.63,4.6671,4.7217,4.7725,4.8096,4.8349,4.8349,4.8552,4.8747,4.8707,4.9015,4.9265,4.9139,4.9494,4.9817,4.973,4.9971,5.0212,5.0212,5.0481,5.0712,5.0712,5.0712,5.0712,5.0712,5.0712,5.0712,5.0712,5.0712,5.0712,5.0712,5.0712,5.0712,5.0712,5.0712,5.0712,5.0712,5.0712,5.0712,5.0712,5.1183,5.1452,5.1452,5.2299,5.3164,5.401,5.397,5.437,0.0,4.4837,4.4931,4.4931,4.4931,4.4919,4.4843,4.4831,0.0,4.3777,4.3606,4.3625,4.3682,4.3701,4.4588,4.7259,4.7701,4.8409,5.0433,4.9959,0.0,4.9672,5.0357,5.084,5.0898,5.084,5.0801,5.0801,5.0763,5.0724,5.0724,5.0724,5.0724,5.0724,5.0724,5.0782,5.0898,5.0898,5.0859,5.0821,5.0884,5.0494,4.972,4.978,4.9404,4.8651,4.7852,4.7462,4.7333,4.6538,4.6202,4.6203,4.6204,4.625,4.6306,4.6302,4.6299,4.63,4.63,4.63,4.63,4.63,4.63,4.63,4.63,4.63,4.63,4.6298,4.6862,4.7485,4.7481,4.7992,4.8491,4.8487,4.8361,4.8205,4.8198,4.8161,4.8105,4.8105,4.8759,4.9317,4.9317,5.0029,5.0616,5.0616,5.0654,5.0712,5.0712,5.0712,5.0712,5.0712,5.0712,5.0712,5.0712,5.0712,5.0712,5.0712,5.0712,5.0712,5.0712,5.0712,5.0712,5.0712,5.0712,5.0712,5.0712,5.1452,5.225,5.3106,5.3035,5.3432,4.3119,0.0,4.5272,4.5272,4.5216,4.4946,0.0,4.4053,4.3739,4.2886,4.2716,4.2924,4.3587,4.3701,4.4588,4.7259,4.7701,4.8409,5.0433,5.0077,0.0,4.968,4.9881,5.0221,5.084,5.0337,4.9977,4.9977,4.9359,4.8991,4.8991,4.8991,4.8991,4.8991,4.8991,4.961,5.0898,5.0898,5.0589,4.9977,5.0051,4.966,4.8871,4.8949,4.8548,4.7793,4.7579,4.7111,4.6491,4.6291,4.6206,4.62,4.6199,4.6249,4.6302,4.6294,4.6306,4.63,4.63,4.63,4.63,4.63,4.63,4.63,4.63,4.63,4.6275,4.6178,4.6281,4.6424,4.6325,4.6425,4.6547,4.6498,4.69,4.7291,4.724,4.769,4.8105,4.8105,4.8279,4.8413,4.8413,4.9125,4.9702,4.9702,5.0269,5.0712,5.0712,5.0712,5.0712,5.0712,5.0712,5.0712,5.0712,5.0712,5.0712,5.0712,5.0712,5.0712,5.0712,5.0712,5.0712,5.0712,5.0712,5.0712,5.0712,5.0894,5.1395,5.2192,5.2141,5.253,4.153,4.3215,4.4902,4.5304,4.5035,4.4563,4.4104,4.3621,4.3052,4.2214,0.0,4.2301,4.3169,4.3321,4.4306,4.7305,4.7869,4.8442,4.9903,5.0179,4.9935,4.9059,4.9397,4.9707,4.9745,4.9359,4.9107,4.9107,4.8662,4.8392,4.8392,4.8392,4.8392,4.8392,4.8392,4.8836,4.9745,4.9745,4.9533,4.9107,4.9194,4.8817,4.8017,4.8097,4.7693,4.6897,4.6897,4.6647,4.6199,4.6203,4.6199,4.6191,4.6227,4.6269,4.6297,4.6306,4.63,4.63,4.63,4.63,4.63,4.63,4.63,4.63,4.63,4.6267,4.6184,4.6112,4.6098,4.6064,4.593,4.5881,4.5841,4.5801,4.6097,4.6359,4.6315,4.6644,4.6951,4.6951,4.7278,4.7548,4.7548,4.8259,4.8798,4.8798,4.9202,4.9644,5.0048,5.0067,5.0221,5.0644,5.0712,5.0712,5.0712,5.0712,5.0712,5.0712,5.0712,5.0712,5.0712,5.0712,5.0692,5.0653,5.0653,5.0653,5.0653,5.0653,5.0874,5.1297,5.1226,5.1634,3.9961,4.1675,4.3606,4.4594,4.4402,4.3913,4.3779,0.0,0.0,0.0,0.0,4.1672,4.2543,4.2821,4.3952,4.7183,4.8087,4.8533,4.8958,4.9774,4.9718,4.8144,4.8747,4.9068,4.8469,4.8275,4.8198,4.8198,4.8082,4.8005,4.8005,4.8005,4.8005,4.8005,4.8005,4.8005,4.8005,4.8275,4.8333,4.8198,4.8347,4.7958,4.7104,4.7248,4.6897,4.6199,4.6199,4.6203,4.6193,4.6194,4.6207,4.6227,4.6289,4.63,4.63,4.63,4.63,4.63,4.63,4.63,4.63,4.63,4.63,4.63,4.63,4.6209,4.6098,4.6087,4.6053,4.6024,4.5897,4.5803,4.5771,4.5771,4.5684,4.5594,4.5594,4.5594,4.5594,4.5594,4.6201,4.6701,4.6701,4.7375,4.7932,4.7932,4.802,4.8375,4.9106,4.9135,4.9413,5.0212,5.0404,5.0491,5.05,5.0616,5.0712,5.0712,5.0712,5.0712,5.0712,5.0683,5.0653,5.0603,5.0593,5.0582,5.0582,5.0582,5.0582,5.0582,5.0511,5.084,3.8127,3.9187,4.0419,4.1967,4.2818,4.3052,4.2329,4.1961,0.0,0.0,0.0,0.0,0.0,4.2409,4.3751,4.6368,4.8154,4.8756,4.7475,4.7523,4.7572,4.7286,4.7398,4.7734,4.8333,4.7734,4.7289,4.7289,4.6619,4.6194,4.6194,4.6194,4.6194,4.6194,4.6194,4.6194,4.6194,4.7657,4.8024,4.7296,4.7435,4.7045,4.6196,4.6337,4.6336,4.6199,4.6199,4.6203,4.6199,4.6204,4.6237,4.6288,4.6307,4.63,4.63,4.63,4.63,4.63,4.63,4.63,4.63,4.63,4.63,4.63,4.63,4.6209,4.6087,4.5949,4.5894,4.5822,4.568,4.5635,4.5637,4.5637,4.5612,4.5594,4.5594,4.5594,4.5594,4.5594,4.571,4.5806,4.5806,4.6509,4.7077,4.7077,4.7655,4.8155,4.827,4.8231,4.8278,4.8481,4.9106,4.9548,4.9586,5.0289,5.0712,5.0712,5.0712,5.0712,5.0712,5.0643,5.0613,5.0603,5.0542,5.0511,5.0511,5.0511,5.0511,5.0511,5.0446,5.047,3.6411,3.724,3.8232,3.9453,4.0819,4.187,4.1896,4.1526,4.1058,0.0,0.0,0.0,0.0,0.0,4.3936,4.6461,4.7995,4.8544,4.7658,4.7697,4.7596,4.7063,4.7059,4.7076,4.6999,4.6631,4.6406,4.6406,4.6039,4.5807,4.5807,4.5807,4.5807,4.5807,4.5807,4.5807,4.5807,4.6593,4.6786,4.6406,4.6523,4.6385,4.6002,4.6142,4.6199,4.6199,4.6209,4.6192,4.621,4.6238,4.6269,4.6306,4.6301,4.6291,4.6241,4.5773,4.5304,4.4894,4.4894,4.4894,4.4894,4.4894,4.4894,4.4891,4.4848,4.5046,4.5269,4.5159,4.5448,4.5771,4.5618,4.5594,4.5594,4.5594,4.5594,4.5594,4.5594,4.5594,4.5594,4.5594,4.5568,4.5559,4.5586,4.5895,4.6155,4.6201,4.6473,4.6858,4.7338,4.7328,4.7481,4.799,4.8374,4.8624,4.8702,4.9067,4.9702,5.0654,5.0712,5.0673,5.0643,5.0613,5.0572,5.0489,5.0457,5.0446,5.0446,5.0446,5.0446,5.0446,5.0412,5.039,3.5345,3.5904,3.6749,3.7797,3.9271,4.0719,4.1525,4.1235,4.0797,0.0,0.0,0.0,0.0,4.2744,4.4311,4.6438,4.7521,4.7975,4.7621,4.7693,4.7503,4.6725,4.6727,4.6542,4.5865,4.5807,4.5807,4.5807,4.5807,4.5807,4.5807,4.5807,4.5807,4.5807,4.5807,4.5807,4.5807,4.5807,4.5814,4.5815,4.5933,4.6007,4.6022,4.6146,4.6206,4.62,4.6194,4.6097,4.5917,4.5976,4.5876,4.5698,4.5683,4.5695,4.5617,4.4933,4.427,4.3705,4.3705,4.3705,4.3705,4.3705,4.3699,4.3665,4.3623,4.3901,4.4261,4.4208,4.4657,4.5225,4.5513,4.5594,4.5594,4.5594,4.5594,4.5594,4.5594,4.5594,4.5594,4.5594,4.555,4.5513,4.5568,4.5513,4.5504,4.5568,4.5513,4.5716,4.6416,4.6436,4.6656,4.7317,4.7557,4.7788,4.8048,4.8087,4.8664,5.0019,5.0087,5.0067,5.0028,4.9997,4.9946,4.983,4.9808,4.9786,4.9786,4.9786,4.9912,5.0103,5.0103,5.0176,3.545,3.5541,3.6016,3.7757,3.8889,3.981,4.07,4.0835,0.0,4.0797,0.0,0.0,0.0,4.2879,4.4813,4.5749,4.6612,4.6902,4.6083,4.5974,4.5955,4.5889,4.5896,4.5865,4.5807,4.5807,4.5807,4.5807,4.5807,4.5807,4.5807,4.5807,4.5807,4.5807,4.5807,4.5807,4.5807,4.5807,4.5841,4.5886,4.5969,4.6027,4.6093,4.6177,4.6206,4.6204,4.6206,4.5786,4.5097,4.5096,4.4621,4.3883,4.3881,4.3881,4.3881,4.3821,4.3743,4.3705,4.3705,4.3705,4.3705,4.3705,4.3658,4.3614,4.3608,4.3452,4.3305,4.3299,4.3284,4.364,4.519,4.5594,4.5594,4.5594,4.5594,4.5594,4.5594,4.5594,4.5594,4.5594,4.555,4.5504,4.5504,4.5448,4.5429,4.5495,4.5448,4.5448,4.5571,4.5534,4.5524,4.5573,4.6262,4.7056,4.7941,4.8068,4.8145,4.8289,4.8289,4.8279,4.8288,4.8221,4.819,4.818,4.8045,4.799,4.799,4.799,4.8391,4.9186,4.9186,4.9587,3.5608,3.562,3.6031,3.7762,3.845,0.0,0.0,4.0797,4.0797,4.0797,4.0797,0.0,0.0,4.315,4.4233,4.5575,4.6078,4.6174,4.5845,4.5807,4.5807,4.5807,4.5807,4.5807,4.5807,4.5807,4.5807,4.5807,4.5807,4.5807,4.5807,4.5807,4.5807,4.5807,4.5316,4.5045,4.5045,4.4523,4.4311,4.443,4.5481,4.6047,4.6078,4.5616,4.5387,4.5365,4.4859,4.4468,4.4197,4.4191,4.4006,4.3705,4.3705,4.3372,4.2884,4.2884,4.2552,4.2085,4.2085,4.2085,4.2085,4.2085,4.2037,4.1981,4.1875,4.211,4.2383,4.2343,4.2691,4.3258,4.3874,4.4412,4.4778,4.4778,4.521,4.5594,4.5594,4.5594,4.5594,4.5594,4.5513,4.5448,4.5495,4.5429,4.5409,4.5429,4.5419,4.54,4.5429,4.5409,4.5379,4.535,4.5647,4.6001,4.6357,4.6407,4.6417,4.6417,4.7482,4.8087,4.8039,4.8001,4.8,4.7997,4.7905,4.7862,4.7862,4.7829,4.796,4.8296,4.8296,4.8449,3.5704,3.5704,3.6091,3.7787,0.0,0.0,4.041,4.0797,4.0797,4.0797,4.0797,4.1242,4.2628,0.0,4.3769,4.5181,4.5633,4.5807,4.5807,4.5807,4.5807,4.5807,4.5807,4.5807,4.5807,4.5807,4.5807,4.5807,4.5807,4.5691,4.5432,4.5413,4.5297,4.5026,4.4485,4.4201,4.4221,4.3621,4.3399,4.351,4.4662,4.5249,4.5297,4.4741,4.4507,4.4481,4.3938,4.3535,4.3295,4.3282,4.3138,4.2886,4.2886,4.2513,4.1986,4.1986,4.1615,4.1109,4.1109,4.1109,4.1108,4.1076,4.1014,4.0922,4.0791,4.1085,4.1458,4.1405,4.1816,4.2277,4.2277,4.3104,4.3912,4.3912,4.4374,4.4806,4.4806,4.4806,4.4797,4.4788,4.4698,4.4624,4.4642,4.4825,4.4977,4.4988,4.5227,4.539,4.539,4.5399,4.5369,4.5307,4.5338,4.5378,4.5378,4.539,4.54,4.54,4.6551,4.7233,4.7185,4.7184,4.7174,4.7172,4.7131,4.711,4.7089,4.7048,4.7161,4.7387,4.7387,4.754,3.5704,3.5704,3.6091,3.7787,0.0,0.0,4.041,4.0797,4.0797,4.0797,4.0797,4.1048,4.1854,4.2705,4.3576,4.4439,4.5258,4.5787,4.5787,4.5787,4.5787,4.5807,4.5807,4.5807,4.5807,4.5787,4.5787,4.5787,4.5787,4.5432,4.4632,4.4594,4.4188,4.3324,4.3285,4.3312,4.3393,4.3379,4.3416,4.3478,4.3478,4.3522,4.3601,4.359,4.3624,4.3685,4.3672,4.3196,4.2396,4.2396,4.1888,4.1109,4.1109,4.1109,4.1109,4.1109,4.1109,4.1109,4.1109,4.1109,4.1083,4.1014,4.0902,4.0791,4.0717,4.0621,4.0496,4.0496,4.0496,4.0496,4.0496,4.1777,4.3085,4.3085,4.3085,4.3104,4.3104,4.3104,4.3077,4.3015,4.2953,4.2879,4.2805,4.3454,4.4008,4.4087,4.4824,4.538,4.54,4.54,4.5369,4.5307,4.5307,4.5307,4.5307,4.5359,4.5408,4.5408,4.539,4.54,4.54,4.54,4.5408,4.5408,4.5408,4.5378,4.5307,4.5378,4.5769,4.65,4.65,4.6959,3.5704,3.5704,0.0,3.7787,0.0,0.0,0.0,4.0797,0.0,0.0,4.0797,4.1048,4.1854,4.2202,4.2667,4.3537,4.3885,4.4253,4.4871,4.4968,4.5162,4.5729,4.5807,4.5807,4.5807,4.5297,4.4968,4.4968,4.4388,4.3943,4.3711,4.3692,4.3576,4.3305,4.2705,4.2428,4.2488,4.1887,4.1635,4.1731,4.1731,4.2397,4.3582,4.3005,4.2767,4.2747,4.2148,4.1711,4.1498,4.1498,4.1324,4.1109,4.1109,4.1109,4.1109,4.1109,4.1109,4.1109,4.1109,4.107,4.1037,4.1016,4.0881,4.0729,4.0706,4.0621,4.0496,4.0496,4.0496,4.0496,4.0496,4.0877,4.141,4.1986,4.2556,4.2961,4.3015,4.2979,4.2961,4.2988,4.2898,4.2814,4.2795,4.2995,4.3157,4.3177,4.3884,4.464,4.5253,4.5338,4.5317,4.5307,4.5307,4.5307,4.5307,4.5317,4.5328,4.5328,4.5319,4.5351,4.54,4.539,4.54,4.54,4.5409,4.5398,4.5359,4.5338,4.5432,4.566,4.566,4.5793,3.5704,3.5704,0.0,3.7348,3.7941,3.8566,3.9965,0.0,0.0,0.0,4.0797,4.0951,4.1429,4.1777,4.2164,4.2705,4.3073,4.3479,4.402,4.4072,4.4253,4.4755,4.4813,4.4813,4.4813,4.4369,4.4072,4.4072,4.3595,4.315,4.2802,4.2783,4.2647,4.2318,4.1802,4.1554,4.1615,4.1131,4.093,4.1038,4.1038,4.1588,4.2599,4.2091,4.1882,4.1854,4.1326,4.11,4.1109,4.1109,4.1109,4.1109,4.1109,4.1109,4.1109,4.1109,4.1109,4.1109,4.1109,4.1061,4.0987,4.0937,4.0811,4.0687,4.0629,4.0552,4.0496,4.0496,4.05,4.0503,4.0503,4.0463,4.0556,4.1089,4.1562,4.192,4.1955,4.1937,4.192,4.1909,4.1865,4.181,4.181,4.2068,4.2278,4.2278,4.3261,4.4178,4.4723,4.5086,4.5307,4.5307,4.5307,4.5307,4.5307,4.5307,4.5246,4.5109,4.5235,4.5258,4.5169,4.5291,4.5361,4.5361,4.5389,4.5398,4.5348,4.5338,4.5328,4.5307,4.5307,4.5307,3.5704,3.5704,3.5897,3.6709,3.7555,0.0,3.921,3.9984,4.0584,4.0681,0.0,4.0797,4.0797,4.139,4.1893,4.1893,4.257,4.3092,4.3169,4.3189,4.3208,4.3285,4.3305,4.3305,4.3305,4.3227,4.3189,4.3189,4.3111,4.2725,4.1932,4.1893,4.157,4.0822,4.0798,4.0839,4.0912,4.0975,4.1034,4.1107,4.1094,4.11,4.1099,4.1101,4.1093,4.109,4.1098,4.1109,4.1109,4.1109,4.1109,4.1109,4.1109,4.1109,4.1109,4.1109,4.1106,4.1085,4.1085,4.1033,4.094,4.0824,4.0743,4.0655,4.0542,4.0496,4.0496,4.0496,4.0503,4.0502,4.0502,4.0396,4.0325,4.0449,4.0432,4.0398,4.0379,4.0398,4.0362,4.0316,4.0307,4.0299,4.0291,4.0903,4.1418,4.1495,4.2794,4.3796,4.3873,4.459,4.5078,4.5078,4.5078,4.5078,4.5078,4.5057,4.4911,4.4604,4.4847,4.4897,4.4662,4.5071,4.5307,4.5307,4.5348,4.5359,4.5307,4.5359,4.5348,4.5307,4.5307,4.5307,3.5704,3.5704,0.0,3.6709,3.7555,3.8251,3.845,3.8624,3.8953,3.9636,4.0313,4.0797,4.0797,4.0951,4.1067,4.1067,4.1222,4.1564,4.2183,4.228,4.2531,4.3227,4.3305,4.3305,4.3305,4.2686,4.228,4.228,4.168,4.1261,4.1067,4.1067,4.097,4.0809,4.0801,4.0854,4.098,4.0992,4.1034,4.111,4.1106,4.1099,4.1102,4.1106,4.1094,4.1095,4.1091,4.1109,4.1109,4.1109,4.1109,4.1109,4.1109,4.1109,4.1109,4.1109,4.107,4.1011,4.1011,4.091,4.0751,4.0729,4.0649,4.0542,4.0504,4.0496,4.0496,4.0496,4.0503,4.0502,4.0502,4.0396,4.0316,4.0334,4.0336,4.0328,4.0307,4.0327,4.0328,4.0298,4.029,4.0301,4.0301,4.0435,4.0769,4.1399,4.18,4.2278,4.2966,4.3214,4.3348,4.3348,4.3348,4.3348,4.3348,4.3145,4.2993,4.2917,4.2798,4.2951,4.3514,4.4669,4.5307,4.5307,4.5317,4.5317,4.5307,4.5317,4.5317,4.5307,4.5307,4.5307,3.5704,0.0,0.0,3.6709,0.0,3.7096,3.7497,3.7574,3.7715,3.816,3.9288,4.0313,4.0719,4.0797,4.0797,4.0797,4.0797,4.0951,4.1371,4.1429,4.1583,4.2048,4.2106,4.2106,4.2106,4.168,4.1429,4.1429,4.1048,4.0797,4.0797,4.0797,4.0802,4.0807,4.0833,4.0903,4.0996,4.1034,4.1065,4.1103,4.1105,4.0879,4.0488,4.0918,4.0873,4.0483,4.0483,4.027,3.9899,3.9899,3.9899,3.9899,3.9899,3.9899,3.9899,3.9899,4.0108,4.0386,4.0386,4.0509,4.0655,4.0687,4.0607,4.0503,4.0508,4.0496,4.0489,4.0511,4.0482,4.0441,4.0405,4.0344,4.0309,4.0309,4.0301,4.0291,4.03,4.0301,4.0291,4.03,4.0301,4.0301,4.0301,4.0301,4.0435,4.0864,4.1246,4.1648,4.2125,4.2545,4.2794,4.2794,4.2683,4.2601,4.2601,4.2363,4.214,4.1995,4.2,4.2123,4.2385,4.3228,4.4078,4.4843,4.4862,4.4862,4.4862,4.4862,4.4862,4.4862,4.4898,4.4929,3.5704,0.0,3.5858,3.6535,3.6187,0.0,3.6535,3.669,3.6729,3.6864,3.816,3.9501,4.0216,4.0468,4.0584,4.0584,4.07,4.0797,4.0797,4.0797,4.0797,4.0797,4.0797,4.0797,4.0797,4.0797,4.0797,4.0797,4.0797,4.0803,4.079,4.079,4.0806,4.0833,4.0898,4.0943,4.1023,4.0929,4.0886,4.0879,4.0712,4.0286,3.9626,4.0336,4.027,3.9585,3.9585,3.9214,3.8591,3.8591,3.8591,3.8591,3.8591,3.8588,3.8564,3.8564,3.8939,3.9418,3.9415,3.9738,4.0165,4.0365,4.0345,4.029,4.0438,4.0473,4.0484,4.0482,4.0432,4.037,4.0316,4.0309,4.0301,4.0301,4.0301,4.0301,4.0301,4.0301,4.0301,4.0301,4.0301,4.0301,4.0301,4.0301,4.0301,4.0301,4.0864,4.1285,4.1285,4.1915,4.2364,4.2305,4.211,4.1958,4.1893,4.1644,4.1384,4.1113,4.1315,4.1371,4.123,4.1493,4.2328,4.3811,4.406,4.4266,4.4397,4.4397,4.4397,4.4397,4.4452,4.4479,3.5704,0.0,3.5723,0.0,3.5781,3.5723,0.0,0.0,3.6052,3.6767,3.7696,3.8411,3.8522,3.9166,3.9675,3.9675,4.0313,4.0797,4.0797,4.0797,4.0797,4.0797,4.0797,4.0797,4.0797,4.0797,4.0797,4.0797,4.0797,4.0802,4.0796,4.0796,4.0844,4.0975,4.0984,4.1027,4.1081,4.0345,3.9975,3.996,3.9215,3.8826,3.8751,3.8885,3.8864,3.8767,3.8767,3.8708,3.8591,3.8591,3.8591,3.8591,3.8591,3.8534,3.8438,3.8438,3.8377,3.8308,3.8305,3.8292,3.8381,3.908,3.9298,3.9427,4.0175,4.0405,4.0405,4.0415,4.037,4.0316,4.0307,4.0309,4.0301,4.0301,4.0301,4.0301,4.0301,4.0301,4.0301,4.0301,4.0301,4.0301,4.0301,4.0301,4.0301,4.0301,4.0377,4.0454,4.0454,4.0549,4.0549,4.0308,4.0266,4.0148,3.9907,3.9629,3.9472,3.9431,3.9235,3.9436,4.0089,4.0154,4.0612,4.1517,4.2743,4.3702,4.4397,4.4397,4.4397,4.4397,4.4397,4.4411,3.5704,3.5704,3.5704,0.0,3.5704,3.5704,3.5704,3.5704,3.58,3.6149,3.6535,3.7096,3.8019,3.8508,3.876,3.876,3.9088,3.934,3.934,3.934,3.934,3.934,3.934,3.934,3.934,3.934,3.934,3.934,3.9375,3.9403,3.9392,3.9398,3.9446,3.9533,3.9533,3.9588,3.9643,3.9252,3.9078,3.9077,3.8729,3.8327,3.7869,3.7869,3.7869,3.7869,3.7869,3.7594,3.7145,3.7145,3.7145,3.7145,3.7145,3.7084,3.7002,3.7002,3.7156,3.7363,3.7371,3.7569,3.7915,3.8295,3.8405,3.8446,3.8873,3.8997,3.8997,3.8944,3.8927,3.8882,3.8837,3.922,3.9565,3.9565,3.9938,4.0301,4.0301,4.0301,4.0253,4.0108,4.0196,4.0253,4.0098,4.0196,4.0301,4.0301,4.0301,4.0301,4.0301,4.0166,4.0027,3.9914,3.9635,3.9395,3.9285,3.9031,3.8881,3.8881,3.8765,3.8854,3.9203,3.9239,3.9606,4.0414,4.1468,4.2195,4.2548,4.2548,4.2548,4.2548,4.2593,4.2623,0.0,0.0,3.5704,3.5704,3.5704,3.5704,0.0,0.0,3.5704,3.5704,3.5704,3.6071,3.7328,3.7729,3.7864,3.7864,3.8057,3.8193,3.8193,3.8193,3.8193,3.8193,3.8193,3.8193,3.8193,3.8193,3.8199,3.8216,3.826,3.8316,3.8326,3.8339,3.8366,3.842,3.842,3.8455,3.8507,3.8298,3.8081,3.7867,3.7914,3.7594,3.697,3.697,3.697,3.697,3.697,3.6597,3.5992,3.5992,3.5992,3.5991,3.5983,3.5914,3.5843,3.5801,3.6072,3.6434,3.6421,3.6748,3.7206,3.7469,3.751,3.7523,3.7775,3.7841,3.7833,3.7791,3.7764,3.7755,3.7702,3.8171,3.8667,3.8667,3.9164,3.9738,4.0129,4.0196,4.0118,3.9859,3.9965,4.0027,3.9818,3.9965,4.0087,4.0087,4.0087,4.0087,4.0087,3.9914,3.9773,3.9705,3.935,3.9073,3.8989,3.8807,3.8707,3.8707,3.8707,3.8707,3.8707,3.8707,3.8982,3.957,4.0194,4.0691,4.1095,4.1095,4.1095,4.1095,4.1158,4.1172,0.0,3.5704,0.0,3.5704,3.5704,3.5704,0.0,3.5704,3.5704,3.5704,3.5704,3.5723,3.58,3.6458,3.698,3.698,3.7651,3.8193,3.8193,3.8193,3.8193,3.8193,3.8193,3.8193,3.8193,3.8193,3.8241,3.8296,3.8306,3.8331,3.8393,3.8381,3.8423,3.8493,3.8493,3.8507,3.8506,3.7734,3.695,3.613,3.6129,3.6109,3.607,3.607,3.607,3.607,3.607,3.6031,3.5992,3.5992,3.5992,3.5989,3.5931,3.5833,3.5693,3.5576,3.5496,3.5463,3.5396,3.5396,3.5572,3.6315,3.6566,3.6719,3.7472,3.7702,3.7702,3.7721,3.7721,3.7702,3.7693,3.7731,3.7769,3.7769,3.7789,3.8221,3.9625,3.9924,3.9829,3.9556,3.952,3.9551,3.9508,3.952,3.9551,3.9551,3.9551,3.9551,3.9551,3.9539,3.9408,3.9183,3.9129,3.9007,3.8735,3.8707,3.8707,3.8707,3.8707,3.8707,3.8707,3.8707,3.8726,3.8762,3.8799,3.9588,4.1095,4.1095,4.1095,4.1095,4.1095,4.1111,0.0,0.0,0.0,3.4877,3.4447,3.4035,3.4035,3.4035,3.4195,3.4761,3.4877,3.5032,3.5588,3.5936,3.6129,3.6129,3.6381,3.6593,3.6593,3.6593,3.6593,3.6593,3.6593,3.6593,3.6593,3.6593,3.6616,3.6634,3.6667,3.6712,3.6789,3.6802,3.6818,3.6838,3.6875,3.6908,3.6894,3.6617,3.6313,3.5992,3.5992,3.5992,3.5992,3.5992,3.5992,3.5992,3.5992,3.5992,3.5992,3.5992,3.596,3.5936,3.5916,3.5772,3.5576,3.5527,3.5432,3.5331,3.5319,3.5269,3.5283,3.5572,3.566,3.5717,3.6012,3.6107,3.6107,3.6107,3.6107,3.6107,3.6107,3.6384,3.6777,3.7151,3.7374,3.7612,3.795,3.8572,3.9108,3.9212,3.9389,3.9452,3.9272,3.9389,3.9514,3.9514,3.9514,3.9514,3.9514,3.935,3.9205,3.9115,3.895,3.8792,3.8707,3.8707,3.8707,3.8707,3.8707,3.8707,3.8707,3.8707,3.8707,3.8707,3.8707,3.8982,3.957,3.957,3.957,3.957,3.957,3.957,3.5301,0.0,0.0,0.0,3.3532,3.3107,3.3107,3.3107,3.3262,3.3847,3.3963,3.4137,3.4717,3.4833,3.5027,3.5607,3.5704,3.5704,3.5704,3.5704,3.5704,3.5704,3.5704,3.5704,3.5704,3.5704,3.5716,3.5727,3.576,3.5833,3.59,3.5914,3.5938,3.5924,3.5975,3.5995,3.5991,3.6,3.5992,3.5992,3.5992,3.5992,3.5992,3.5992,3.5992,3.5992,3.5992,3.5992,3.5991,3.598,3.594,3.5886,3.5794,3.565,3.5498,3.5451,3.5388,3.5304,3.5269,3.5253,3.5209,3.5209,3.5209,3.5209,3.5209,3.5209,3.5209,3.5209,3.5209,3.5174,3.5115,3.5334,3.5658,3.6076,3.6295,3.6421,3.6459,3.7318,3.8192,3.8588,3.8755,3.8862,3.8952,3.9115,3.9232,3.9232,3.9232,3.9232,3.9232,3.9073,3.8964,3.8964,3.881,3.8707,3.8707,3.8707,3.8707,3.8707,3.8707,3.8707,3.8707,3.8707,3.8707,3.8707,3.8707,3.8707,3.8707,3.8707,3.8707,3.8707,3.8707,3.8704,0.0,0.0,0.0,3.3083,3.3049,3.303,3.303,3.303,3.3035,3.3054,3.3073,3.3073,3.3093,3.3093,3.3659,3.5342,3.5651,3.5665,3.5665,3.5684,3.5704,3.5704,3.5704,3.5704,3.5704,3.5709,3.5737,3.5791,3.5801,3.5836,3.5901,3.5964,3.5995,3.5995,3.6003,3.5992,3.5992,3.5992,3.5992,3.5992,3.5992,3.5992,3.5992,3.5992,3.5992,3.5992,3.5991,3.5991,3.5988,3.5929,3.5906,3.5849,3.5606,3.5504,3.5475,3.5357,3.5304,3.5285,3.5218,3.5209,3.5209,3.5209,3.5209,3.5209,3.5209,3.5209,3.5209,3.5209,3.5201,3.5141,3.4926,3.4703,3.4497,3.4486,3.4486,3.4656,3.5231,3.6191,3.7079,3.7647,3.7608,3.7731,3.8524,3.867,3.867,3.8707,3.8707,3.8707,3.8707,3.8707,3.8707,3.8707,3.8707,3.8707,3.8707,3.8707,3.8707,3.8707,3.8707,3.8707,3.8707,3.8707,3.8707,3.8707,3.8707,3.8707,3.8707,3.8707,3.8707,3.8707,3.8707,3.8735,3.3747,0.0,0.0,0.0,0.0,0.0,3.1279,3.1286,3.1468,3.2108,3.2271,3.2483,3.3063,3.3219,3.3393,3.382,3.4376,3.4761,3.4761,3.5303,3.5704,3.5704,3.5704,3.5704,3.5704,3.5699,3.5732,3.5781,3.5841,3.5901,3.5965,3.5995,3.5994,3.6001,3.5995,3.5992,3.5992,3.5992,3.5992,3.5992,3.5992,3.5992,3.5992,3.5992,3.5992,3.5991,3.5945,3.5931,3.5929,3.5916,3.5787,3.5606,3.5532,3.5438,3.5345,3.5316,3.5269,3.5226,3.5209,3.5209,3.5209,3.5209,3.5209,3.5209,3.5209,3.5209,3.5209,3.5209,3.5098,3.4889,3.4491,3.4344,3.422,3.4043,3.4136,3.4318,3.4488,3.476,3.533,3.6505,3.6673,3.6905,3.7694,3.7841,3.8028,3.8615,3.8707,3.8707,3.8707,3.8707,3.8707,3.8707,3.8707,3.8707,3.8707,3.8707,3.8707,3.8707,3.8707,3.8707,3.8707,3.8707,3.8707,3.8707,3.8707,3.8707,3.8707,3.8707,3.8707,3.8707,3.8707,3.8723,3.2856,3.2093,3.1459,3.1407,0.0,0.0,3.0641,3.0633,3.0794,3.1297,3.1423,3.159,3.2078,3.2197,3.2191,3.2153,3.285,3.3537,3.3886,3.4387,3.4814,3.5167,3.5226,3.5366,3.572,3.5745,3.5775,3.5841,3.5882,3.5929,3.5996,3.5992,3.6004,3.5992,3.5992,3.5992,3.5992,3.5992,3.5817,3.5465,3.5465,3.527,3.4919,3.4919,3.4893,3.486,3.4835,3.4775,3.4738,3.4695,3.5005,3.5498,3.5445,3.5369,3.5304,3.5269,3.5226,3.5209,3.5209,3.5209,3.5209,3.5209,3.5209,3.5209,3.5209,3.5132,3.5072,3.5072,3.486,3.4545,3.4281,3.4124,3.3998,3.3847,3.3921,3.4036,3.4036,3.4036,3.4412,3.567,3.5837,3.6028,3.6868,3.6997,3.7272,3.8083,3.8193,3.8322,3.867,3.8707,3.8707,3.8707,3.8707,3.8707,3.8707,3.8707,3.8707,3.8707,3.8707,3.8707,3.8707,3.8707,3.8707,3.8707,3.8707,3.8707,3.8707,3.8707,3.8707,3.8707,3.8707,3.8707,3.1914,3.1292,3.0708,3.0693,3.0701,0.0,3.0682,3.0687,3.0704,3.0682,3.0709,3.0715,3.0691,3.0713,3.0717,3.0717,3.1356,3.2167,3.3034,3.3245,3.3579,3.4283,3.4422,3.4734,3.5457,3.5524,3.56,3.5749,3.585,3.5937,3.5994,3.5992,3.5953,3.5856,3.5856,3.5817,3.5719,3.5719,3.5329,3.4569,3.4569,3.4157,3.3392,3.3392,3.3356,3.3298,3.327,3.3218,3.3073,3.3023,3.3851,3.5192,3.5163,3.5163,3.5162,3.5179,3.5209,3.5209,3.5209,3.5209,3.5209,3.5209,3.5209,3.5209,3.5209,3.5063,3.4898,3.4831,3.4524,3.4197,3.4161,3.3985,3.3807,3.3807,3.3807,3.3807,3.3807,3.3807,3.4089,3.5025,3.5034,3.5119,3.5995,3.6142,3.6413,3.7235,3.7364,3.7658,3.8469,3.8579,3.8597,3.8689,3.8707,3.8707,3.8707,3.8707,3.8707,3.8707,3.8707,3.867,3.8579,3.8579,3.8524,3.845,3.8524,3.8579,3.8579,3.867,3.8707,3.8707,3.8707,3.8707,3.1228,3.0908,3.078,3.0714,3.0692,0.0,3.0621,3.0656,3.0686,3.0623,3.0711,3.0767,3.0715,3.0737,3.0773,3.0773,3.0929,3.1328,3.2148,3.2859,3.3362,3.3521,3.356,3.3618,3.3774,3.3832,3.4134,3.4795,3.5546,3.5982,3.5992,3.5992,3.568,3.4979,3.4959,3.4627,3.3904,3.3904,3.3826,3.365,3.365,3.3541,3.3319,3.3319,3.3273,3.3213,3.316,3.3093,3.3009,3.2954,3.3077,3.3389,3.4009,3.4251,3.4327,3.4961,3.5209,3.5209,3.5209,3.5209,3.5209,3.5209,3.5209,3.5209,3.5209,3.5063,3.4821,3.4435,3.4281,3.4148,3.3934,3.3829,3.3807,3.3807,3.3807,3.3807,3.3807,3.3807,3.3844,3.399,3.3991,3.422,3.5026,3.5168,3.5475,3.6395,3.6523,3.6817,3.7639,3.7731,3.7988,3.8634,3.8707,3.8707,3.8707,3.8707,3.8707,3.8707,3.8707,3.8414,3.7768,3.7731,3.7437,3.678,3.7386,3.7731,3.7749,3.8377,3.8707,3.8707,3.8707,3.8707,3.0918,3.0799,3.0796,3.0753,3.0743,0.0,0.0,3.0773,3.0799,3.0753,3.079,3.0837,3.0809,3.0833,3.0856,3.0855,3.0855,3.0989,3.1387,3.1832,3.226,3.2691,3.2749,3.2906,3.3317,3.3387,3.3571,3.3965,3.4444,3.4704,3.4704,3.4704,3.4509,3.4061,3.4042,3.3846,3.3396,3.3396,3.3182,3.2753,3.2718,3.2467,3.1997,3.1971,3.1919,3.184,3.1811,3.1746,3.1655,3.1584,3.1525,3.1639,3.2896,3.3375,3.3394,3.3807,3.3941,3.3933,3.384,3.3788,3.3798,3.3701,3.3655,3.3655,3.3655,3.378,3.388,3.35,3.3677,3.3921,3.3834,3.378,3.3766,3.3775,3.378,3.3753,3.3753,3.3726,3.3671,3.3601,3.3605,3.3747,3.4173,3.4288,3.4604,3.5457,3.5556,3.5882,3.6798,3.6842,3.6974,3.7459,3.7496,3.7496,3.7496,3.7496,3.7496,3.7496,3.7496,3.7312,3.6923,3.6905,3.6707,3.6303,3.6703,3.6905,3.6905,3.7312,3.7918,3.8707,3.8707,3.8707,3.0799,3.0793,3.0798,3.0793,3.0799,3.0801,0.0,0.0,0.0,3.0859,3.0878,3.0878,3.0878,3.0879,3.0879,3.0898,3.0898,3.0898,3.0898,3.0898,3.1152,3.1875,3.1953,3.2207,3.2851,3.3066,3.3143,3.3159,3.3306,3.3396,3.3396,3.3396,3.3318,3.3143,3.3143,3.3064,3.2908,3.2908,3.2558,3.1856,3.1783,3.1366,3.0672,3.0607,3.0543,3.0462,3.0456,3.0386,3.0279,3.0215,3.0187,3.0293,3.1881,3.2485,3.2481,3.2553,3.261,3.261,3.2414,3.2342,3.2315,3.2147,3.2098,3.2098,3.2048,3.2369,3.269,3.2426,3.2768,3.3241,3.3295,3.3378,3.346,3.3515,3.3616,3.3671,3.3671,3.3647,3.3577,3.3506,3.3506,3.3534,3.3577,3.3633,3.3876,3.4544,3.4611,3.4921,3.5878,3.5923,3.5945,3.6223,3.6256,3.6256,3.6241,3.6241,3.6241,3.6241,3.6241,3.6182,3.605,3.5899,3.5826,3.5826,3.5973,3.6046,3.6046,3.6211,3.7055,3.8469,3.8469,3.856,3.0805,3.0795,3.08,3.08,3.0798,3.0797,3.081,0.0,3.0784,3.0734,0.0,3.0818,3.0818,0.0,0.0,3.0897,3.0859,3.0839,3.0898,3.0896,3.0936,3.1035,3.1055,3.1074,3.1172,3.1834,3.2241,3.224,3.2954,3.3396,3.3396,3.3396,3.3045,3.2265,3.2246,3.1875,3.1093,3.1093,3.1054,3.0956,3.0886,3.0762,3.0603,3.0539,3.0447,3.0315,3.0309,3.0279,3.0202,3.0195,3.009,3.0024,3.0997,3.1485,3.1676,3.2032,3.2288,3.2414,3.2194,3.2137,3.2127,3.2108,3.2098,3.2068,3.1888,3.1842,3.179,3.1518,3.1477,3.1493,3.1488,3.2022,3.2557,3.257,3.3104,3.3619,3.3619,3.3619,3.3577,3.3506,3.3549,3.3577,3.352,3.3524,3.3571,3.3715,3.3747,3.4039,3.487,3.5019,3.5294,3.5966,3.6083,3.6098,3.6039,3.6024,3.6024,3.6024,3.6024,3.5725,3.5099,3.444,3.4082,3.4082,3.4784,3.5151,3.5151,3.5917,3.6762,3.7639,3.7639,3.801,3.0799,3.078,3.0757,3.0795,3.0773,3.0749,3.0799,3.08,3.0781,3.0762,0.0,0.0,0.0,0.0,0.0,0.0,3.0878,3.0878,3.0896,3.0895,3.0896,3.0898,3.0898,3.0897,3.0897,3.1208,3.1401,3.1398,3.1704,3.1893,3.1893,3.1893,3.1718,3.1368,3.1348,3.1172,3.08,3.0765,3.0735,3.0735,3.063,3.0576,3.0539,3.0423,3.035,3.0304,3.026,3.0221,3.0181,3.0075,2.9977,2.991,3.0057,3.0217,3.0414,3.0584,3.0688,3.0753,3.0544,3.0474,3.0472,3.0336,3.0312,3.0279,3.0145,3.0408,3.0747,3.0594,3.0834,3.1154,3.1193,3.1422,3.1664,3.1704,3.2283,3.2857,3.2857,3.3178,3.3481,3.3452,3.3466,3.3481,3.3452,3.3481,3.3506,3.3534,3.3506,3.3633,3.4061,3.4097,3.4211,3.4572,3.4619,3.4637,3.4608,3.4608,3.4608,3.4608,3.4608,3.4458,3.4154,3.3853,3.3684,3.3684,3.4018,3.4182,3.4182,3.4353,3.4891,3.5718,3.6454,3.6982,3.0747,3.0724,3.0715,3.0788,3.0762,3.0734,3.0792,3.0798,3.08,3.08,3.08,0.0,0.0,0.0,3.0867,3.0871,0.0,3.0872,3.0892,3.0872,3.0874,3.0898,3.0897,3.0894,3.0894,3.0894,3.0892,3.0908,3.0844,3.08,3.08,3.08,3.08,3.08,3.0774,3.077,3.077,3.0713,3.0667,3.0667,3.0552,3.0506,3.0501,3.0364,3.0286,3.0273,3.0155,3.0126,3.0104,2.9913,2.9796,2.9707,2.9415,2.9355,2.9435,2.9435,2.9474,2.9494,2.9301,2.9217,2.9195,2.9044,2.8994,2.8952,2.8917,2.9277,2.9716,2.9667,3.0023,3.0438,3.0472,3.061,3.0765,3.08,3.1392,3.1937,3.1937,3.253,3.3067,3.3067,3.3248,3.3393,3.3393,3.3437,3.3481,3.3481,3.3422,3.3437,3.3534,3.3448,3.3357,3.3383,3.3306,3.3247,3.3247,3.3232,3.3232,3.3232,3.3353,3.3401,3.328,3.3383,3.3397,3.3291,3.3397,3.3397,3.3291,3.3047,3.3257,3.3894,3.5051,3.5733,3.0587,3.065,3.0718,3.0773,3.0791,3.0796,3.0803,3.0791,3.08,3.08,3.08,3.08,3.0801,3.0801,3.0801,3.0801,3.0801,0.0,0.0,3.0845,3.0825,3.0894,3.0894,3.0894,3.0894,3.0891,3.0907,3.0907,3.0844,3.08,3.08,3.08,3.08,3.08,3.0732,3.0691,3.0691,3.0636,3.06,3.0597,3.0524,3.0496,3.0491,3.0367,3.0254,3.0188,3.0,2.9907,2.9888,2.9689,2.9485,2.9314,2.9304,2.9185,2.9028,2.9028,2.9149,2.9272,2.9089,2.9017,2.9017,2.9005,2.897,2.8887,2.8905,2.8822,2.8743,2.8743,2.8717,2.8672,2.8672,2.9264,2.9839,2.9839,3.0455,3.1034,3.1034,3.1668,3.2234,3.2234,3.2868,3.3393,3.3393,3.3393,3.3393,3.3393,3.3393,3.3393,3.3411,3.318,3.2975,3.2844,3.2584,3.2419,3.2351,3.2351,3.2351,3.2351,3.2766,3.283,3.2453,3.2876,3.2939,3.2534,3.2923,3.2923,3.2534,3.2517,3.2535,3.2587,3.3399,3.4283,3.0533,3.0517,3.0524,3.0581,3.0594,3.0594,3.0597,3.0704,3.0774,3.0698,3.0745,3.077,3.0675,3.0691,3.0722,3.0667,3.0661,3.0681,0.0,3.0684,3.0684,3.0694,3.0737,3.0773,3.0762,3.0762,3.076,3.0776,3.0792,3.08,3.08,3.0764,3.073,3.073,3.0664,3.0633,3.0633,3.0576,3.0531,3.0527,3.0422,3.0369,3.0364,3.0148,3.0022,2.9992,2.9801,2.9697,2.9689,2.9475,2.9365,2.9283,2.916,2.9055,2.9005,2.9005,2.9044,2.9082,2.901,2.9005,2.8994,2.894,2.8917,2.8875,2.8791,2.8731,2.8682,2.865,2.8612,2.86,2.86,2.8799,2.8998,2.8998,2.9626,3.0219,3.0219,3.0835,3.156,3.2089,3.2187,3.2454,3.3258,3.3178,3.3099,3.3364,3.3393,3.3301,3.3052,3.2908,3.2765,3.2503,3.2402,3.2334,3.23,3.23,3.23,3.23,3.2453,3.2469,3.2351,3.2486,3.2519,3.2368,3.2502,3.2502,3.2368,3.2109,3.2021,3.2109,3.2063,3.2508,3.0453,3.0424,3.0413,3.047,3.0492,3.0492,3.0492,3.0603,3.0673,3.0571,3.0642,3.0699,3.0574,3.0626,3.0645,3.0613,3.0609,3.0593,0.0,3.0593,3.0593,3.0593,3.0634,3.066,3.0661,3.0667,3.0667,3.0661,3.0691,3.0726,3.0726,3.0699,3.0661,3.0661,3.0593,3.0552,3.0552,3.0496,3.0462,3.0462,3.0285,3.0196,3.017,2.9912,2.979,2.9782,2.9579,2.9504,2.9484,2.928,2.9185,2.9174,2.9055,2.9005,2.9005,2.9005,2.9005,2.9005,2.9005,2.8975,2.897,2.8917,2.8881,2.8803,2.8718,2.8682,2.8662,2.8612,2.86,2.86,2.86,2.86,2.86,2.86,2.9011,2.9373,2.9373,3.002,3.0726,3.1252,3.1469,3.1857,3.2625,3.2682,3.2797,3.3334,3.3286,3.3099,3.2827,3.2568,3.2334,3.2109,3.1985,3.1913,3.1913,3.2021,3.2039,3.1931,3.2021,3.2039,3.1913,3.2021,3.2039,3.1913,3.2021,3.2021,3.1913,3.1638,3.1562,3.1654,3.1329,3.1487]}]]